[[{"header":{"parameterUnit":"m.s-1","parameterCategory":1,"la1":30.6,"la2":28.766,"lo1":-90.7593,"lo2":-88.6598,"dy":0.0162,"dx":0.0183,"nx":116,"ny":114,"refTime":"2023-04-13T12:00:00:Z","depth":0,"parameterNumber":2,"parameterNumberName":"U-component_of_WINDS"},"data":[0.0,0.0,0.0,0.0,0.0,0.0,0.0,0.0,0.0,0.0,0.0,0.0,0.0,0.0,0.0,0.0,0.0,0.0,0.0,0.0,0.0,0.0,0.0,0.0,0.0,0.0,0.0,0.0,0.0,0.0,0.0,0.0,0.0,0.0,0.0,0.0,0.0,0.0,0.0,0.0,0.0,0.0,0.0,0.0,0.0,0.0,0.0,0.0,0.0,0.0,0.0,0.0,0.0,0.0,0.0,0.0,0.0,0.0,0.0,0.0,0.0,0.0,0.0,0.0,0.0,0.0,0.0,0.0,0.0,0.0,0.0,0.0,0.0,0.0,0.0,0.0,0.0,0.0,0.0,0.0,0.0,0.0,0.0,0.0,0.0,0.0,0.0,0.0,0.0,0.0,0.0,0.0,0.0,0.0,0.0,0.0,0.0,0.0,0.0,0.0,0.0,0.0,0.0,0.0,0.0,0.0,0.0,0.0,0.0,0.0,0.0,0.0,0.0,0.0,0.0,0.0,0.0,0.0,0.0,0.0,0.0,0.0,0.0,0.0,0.0,0.0,0.0,0.0,0.0,0.0,0.0,0.0,0.0,0.0,0.0,0.0,0.0,0.0,0.0,0.0,0.0,0.0,0.0,0.0,0.0,0.0,0.0,0.0,0.0,0.0,0.0,0.0,0.0,0.0,0.0,0.0,0.0,0.0,0.0,0.0,0.0,0.0,0.0,0.0,0.0,0.0,0.0,0.0,0.0,0.0,0.0,0.0,0.0,0.0,0.0,0.0,0.0,0.0,0.0,0.0,0.0,0.0,0.0,0.0,0.0,0.0,0.0,0.0,0.0,0.0,0.0,0.0,0.0,0.0,0.0,0.0,0.0,0.0,0.0,0.0,0.0,0.0,0.0,0.0,0.0,0.0,0.0,0.0,0.0,0.0,0.0,0.0,0.0,0.0,0.0,0.0,0.0,0.0,0.0,0.0,0.0,0.0,0.0,0.0,0.0,0.0,0.0,0.0,0.0,0.0,0.0,0.0,0.0,0.0,0.0,0.0,0.0,0.0,0.0,0.0,0.0,0.0,0.0,0.0,0.0,0.0,0.0,0.0,0.0,0.0,0.0,0.0,0.0,0.0,0.0,0.0,0.0,0.0,0.0,0.0,0.0,0.0,0.0,0.0,0.0,0.0,0.0,0.0,0.0,0.0,0.0,0.0,0.0,0.0,0.0,0.0,0.0,0.0,0.0,0.0,0.0,0.0,0.0,0.0,0.0,0.0,0.0,0.0,0.0,0.0,0.0,0.0,0.0,0.0,0.0,0.0,0.0,0.0,0.0,0.0,0.0,0.0,0.0,0.0,0.0,0.0,0.0,0.0,0.0,0.0,0.0,0.0,0.0,0.0,0.0,0.0,0.0,0.0,0.0,0.0,0.0,0.0,0.0,0.0,0.0,0.0,0.0,0.0,0.0,0.0,0.0,0.0,0.0,0.0,0.0,0.0,0.0,0.0,0.0,0.0,0.0,0.0,0.0,0.0,0.0,0.0,0.0,0.0,0.0,0.0,0.0,0.0,0.0,0.0,0.0,0.0,0.0,0.0,0.0,0.0,0.0,0.0,0.0,0.0,0.0,0.0,0.0,0.0,0.0,0.0,0.0,0.0,0.0,0.0,0.0,0.0,0.0,0.0,0.0,0.0,0.0,0.0,0.0,0.0,0.0,0.0,0.0,0.0,0.0,0.0,0.0,0.0,0.0,0.0,0.0,0.0,0.0,0.0,0.0,0.0,0.0,0.0,0.0,0.0,0.0,0.0,0.0,0.0,0.0,0.0,0.0,0.0,0.0,0.0,0.0,0.0,0.0,0.0,0.0,0.0,0.0,0.0,0.0,0.0,0.0,0.0,0.0,0.0,0.0,0.0,0.0,0.0,0.0,0.0,0.0,0.0,0.0,0.0,0.0,0.0,0.0,0.0,0.0,0.0,0.0,0.0,0.0,0.0,0.0,0.0,0.0,0.0,0.0,0.0,0.0,0.0,0.0,0.0,0.0,0.0,0.0,0.0,0.0,0.0,0.0,0.0,0.0,0.0,0.0,0.0,0.0,0.0,0.0,0.0,0.0,0.0,0.0,0.0,0.0,0.0,0.0,0.0,0.0,0.0,0.0,0.0,0.0,0.0,0.0,0.0,0.0,0.0,0.0,0.0,0.0,0.0,0.0,0.0,0.0,0.0,0.0,0.0,0.0,0.0,0.0,0.0,0.0,0.0,0.0,0.0,0.0,0.0,0.0,0.0,0.0,0.0,0.0,0.0,0.0,0.0,0.0,0.0,0.0,0.0,0.0,0.0,0.0,0.0,0.0,0.0,0.0,0.0,0.0,0.0,0.0,0.0,0.0,0.0,0.0,0.0,0.0,0.0,0.0,0.0,0.0,0.0,0.0,0.0,0.0,0.0,0.0,0.0,0.0,0.0,0.0,0.0,0.0,0.0,0.0,0.0,0.0,0.0,0.0,0.0,0.0,0.0,0.0,0.0,0.0,0.0,0.0,0.0,0.0,0.0,0.0,0.0,0.0,0.0,0.0,0.0,0.0,0.0,0.0,0.0,0.0,0.0,0.0,0.0,0.0,0.0,0.0,0.0,0.0,0.0,0.0,0.0,0.0,0.0,0.0,0.0,0.0,0.0,0.0,0.0,0.0,0.0,0.0,0.0,0.0,0.0,0.0,0.0,0.0,0.0,0.0,0.0,0.0,0.0,0.0,0.0,0.0,0.0,0.0,0.0,0.0,0.0,0.0,0.0,0.0,0.0,0.0,0.0,0.0,0.0,0.0,0.0,0.0,0.0,0.0,0.0,0.0,0.0,0.0,0.0,0.0,0.0,0.0,0.0,0.0,0.0,0.0,0.0,0.0,0.0,0.0,0.0,0.0,0.0,0.0,0.0,0.0,0.0,0.0,0.0,0.0,0.0,0.0,0.0,0.0,0.0,0.0,0.0,0.0,0.0,0.0,0.0,0.0,0.0,0.0,0.0,0.0,0.0,0.0,0.0,0.0,0.0,0.0,0.0,0.0,0.0,0.0,0.0,0.0,0.0,0.0,0.0,0.0,0.0,0.0,0.0,0.0,0.0,0.0,0.0,0.0,0.0,0.0,0.0,0.0,0.0,0.0,0.0,0.0,0.0,0.0,0.0,0.0,0.0,0.0,0.0,0.0,0.0,0.0,0.0,0.0,0.0,0.0,0.0,0.0,0.0,0.0,0.0,0.0,0.0,0.0,0.0,0.0,0.0,0.0,0.0,0.0,0.0,0.0,0.0,0.0,0.0,0.0,0.0,0.0,0.0,0.0,0.0,0.0,0.0,0.0,0.0,0.0,0.0,0.0,0.0,0.0,0.0,0.0,0.0,0.0,0.0,0.0,0.0,0.0,0.0,0.0,0.0,0.0,0.0,0.0,0.0,0.0,0.0,0.0,0.0,0.0,0.0,0.0,0.0,0.0,0.0,0.0,0.0,0.0,0.0,0.0,0.0,0.0,0.0,0.0,0.0,0.0,0.0,0.0,0.0,0.0,0.0,0.0,0.0,0.0,0.0,0.0,0.0,0.0,0.0,0.0,0.0,0.0,0.0,0.0,0.0,0.0,0.0,0.0,0.0,0.0,0.0,0.0,0.0,0.0,0.0,0.0,0.0,0.0,0.0,0.0,0.0,0.0,0.0,0.0,0.0,0.0,0.0,0.0,0.0,0.0,0.0,0.0,0.0,0.0,0.0,0.0,0.0,0.0,0.0,0.0,0.0,0.0,0.0,0.0,0.0,0.0,0.0,0.0,0.0,0.0,0.0,0.0,0.0,0.0,0.0,0.0,0.0,0.0,0.0,0.0,0.0,0.0,0.0,0.0,0.0,0.0,0.0,0.0,0.0,0.0,0.0,0.0,0.0,0.0,0.0,0.0,0.0,0.0,0.0,0.0,0.0,0.0,0.0,0.0,0.0,0.0,0.0,0.0,0.0,0.0,0.0,0.0,0.0,0.0,0.0,0.0,0.0,0.0,0.0,0.0,0.0,0.0,0.0,0.0,0.0,0.0,0.0,0.0,0.0,0.0,0.0,0.0,0.0,0.0,0.0,0.0,0.0,0.0,0.0,0.0,0.0,0.0,0.0,0.0,0.0,0.0,0.0,0.0,0.0,0.0,0.0,0.0,0.0,0.0,0.0,0.0,0.0,0.0,0.0,0.0,0.0,0.0,0.0,0.0,0.0,0.0,0.0,0.0,0.0,0.0,0.0,0.0,0.0,0.0,0.0,0.0,0.0,0.0,0.0,0.0,0.0,0.0,0.0,0.0,0.0,0.0,0.0,0.0,0.0,0.0,0.0,0.0,0.0,0.0,0.0,0.0,0.0,0.0,0.0,0.0,0.0,0.0,0.0,0.0,0.0,0.0,0.0,0.0,0.0,0.0,0.0,0.0,0.0,0.0,0.0,0.0,0.0,0.0,0.0,0.0,0.0,0.0,0.0,0.0,0.0,0.0,0.0,0.0,0.0,0.0,0.0,0.0,0.0,0.0,0.0,0.0,0.0,0.0,0.0,0.0,0.0,0.0,0.0,0.0,0.0,0.0,0.0,0.0,0.0,0.0,0.0,0.0,0.0,0.0,0.0,0.0,0.0,0.0,0.0,0.0,0.0,0.0,0.0,0.0,0.0,0.0,0.0,0.0,0.0,0.0,0.0,0.0,0.0,0.0,0.0,0.0,0.0,0.0,0.0,0.0,0.0,0.0,0.0,0.0,0.0,0.0,0.0,0.0,0.0,0.0,0.0,0.0,0.0,0.0,0.0,0.0,0.0,0.0,0.0,0.0,0.0,0.0,0.0,0.0,0.0,0.0,0.0,0.0,0.0,0.0,0.0,0.0,0.0,0.0,0.0,0.0,0.0,0.0,0.0,0.0,0.0,0.0,0.0,0.0,0.0,0.0,0.0,0.0,0.0,0.0,0.0,0.0,0.0,0.0,0.0,0.0,0.0,0.0,0.0,0.0,0.0,0.0,0.0,0.0,0.0,0.0,0.0,0.0,0.0,0.0,0.0,0.0,0.0,0.0,0.0,0.0,0.0,0.0,0.0,0.0,0.0,0.0,0.0,0.0,0.0,0.0,0.0,0.0,0.0,0.0,0.0,0.0,0.0,0.0,0.0,0.0,0.0,0.0,0.0,0.0,0.0,0.0,0.0,0.0,0.0,0.0,0.0,0.0,0.0,0.0,0.0,0.0,0.0,0.0,0.0,0.0,0.0,0.0,0.0,0.0,0.0,0.0,0.0,0.0,0.0,0.0,0.0,0.0,0.0,0.0,0.0,0.0,0.0,0.0,0.0,0.0,0.0,0.0,0.0,0.0,0.0,0.0,0.0,0.0,0.0,0.0,0.0,0.0,0.0,0.0,0.0,0.0,0.0,0.0,0.0,0.0,0.0,0.0,0.0,0.0,0.0,0.0,0.0,0.0,0.0,0.0,0.0,0.0,0.0,0.0,0.0,0.0,0.0,0.0,0.0,0.0,0.0,0.0,0.0,0.0,0.0,0.0,0.0,0.0,0.0,0.0,0.0,0.0,0.0,0.0,0.0,0.0,0.0,0.0,0.0,0.0,0.0,0.0,0.0,0.0,0.0,0.0,0.0,0.0,0.0,0.0,0.0,0.0,0.0,0.0,0.0,0.0,0.0,0.0,0.0,0.0,0.0,0.0,0.0,0.0,0.0,0.0,0.0,0.0,0.0,0.0,0.0,0.0,0.0,0.0,0.0,0.0,0.0,0.0,0.0,0.0,0.0,0.0,0.0,0.0,0.0,0.0,0.0,0.0,0.0,0.0,0.0,0.0,0.0,0.0,0.0,0.0,0.0,0.0,0.0,0.0,0.0,0.0,0.0,0.0,0.0,0.0,0.0,0.0,0.0,0.0,0.0,0.0,0.0,0.0,0.0,0.0,0.0,0.0,0.0,0.0,0.0,0.0,0.0,0.0,0.0,0.0,0.0,0.0,0.0,0.0,0.0,0.0,0.0,0.0,0.0,0.0,0.0,0.0,0.0,0.0,0.0,0.0,0.0,0.0,0.0,0.0,0.0,0.0,0.0,0.0,0.0,0.0,0.0,4.3991,0.0,0.0,0.0,0.0,0.0,0.0,0.0,0.0,0.0,0.0,0.0,0.0,0.0,0.0,0.0,0.0,0.0,0.0,0.0,0.0,0.0,0.0,0.0,0.0,0.0,0.0,0.0,0.0,0.0,0.0,0.0,0.0,0.0,0.0,0.0,0.0,0.0,0.0,0.0,0.0,0.0,0.0,0.0,5.5957,5.5658,0.0,0.0,0.0,0.0,0.0,0.0,0.0,0.0,0.0,0.0,0.0,0.0,0.0,0.0,0.0,0.0,0.0,0.0,0.0,0.0,0.0,0.0,0.0,0.0,0.0,0.0,0.0,0.0,0.0,0.0,0.0,0.0,0.0,0.0,0.0,0.0,0.0,0.0,0.0,0.0,0.0,0.0,0.0,0.0,0.0,0.0,0.0,0.0,0.0,0.0,0.0,0.0,0.0,0.0,0.0,0.0,0.0,0.0,0.0,0.0,0.0,0.0,0.0,0.0,0.0,0.0,0.0,0.0,0.0,0.0,0.0,4.4041,0.0,0.0,0.0,0.0,0.0,0.0,0.0,0.0,0.0,0.0,0.0,0.0,0.0,0.0,0.0,0.0,0.0,0.0,0.0,0.0,0.0,0.0,0.0,0.0,5.6256,5.6496,5.6316,0.0,0.0,0.0,0.0,0.0,0.0,0.0,0.0,0.0,0.0,0.0,0.0,0.0,0.0,0.0,5.7124,5.6496,5.6376,0.0,0.0,0.0,0.0,0.0,0.0,0.0,0.0,0.0,0.0,0.0,0.0,0.0,0.0,0.0,0.0,0.0,0.0,0.0,0.0,0.0,0.0,0.0,0.0,0.0,0.0,0.0,0.0,0.0,0.0,0.0,0.0,0.0,0.0,0.0,0.0,0.0,0.0,0.0,0.0,0.0,0.0,0.0,0.0,0.0,0.0,0.0,0.0,0.0,0.0,0.0,0.0,0.0,0.0,0.0,0.0,0.0,0.0,0.0,0.0,0.0,0.0,0.0,4.4769,4.4819,4.492,4.492,4.492,4.492,4.492,4.4794,4.4593,0.0,0.0,0.0,0.0,0.0,0.0,0.0,0.0,0.0,0.0,0.0,0.0,0.0,0.0,0.0,0.0,0.0,0.0,0.0,0.0,0.0,0.0,5.6496,5.6645,5.7752,5.6825,5.6137,0.0,0.0,0.0,0.0,0.0,0.0,0.0,0.0,0.0,0.0,0.0,5.8201,5.883,5.883,5.8501,5.7842,5.7244,5.6915,5.6825,0.0,0.0,0.0,0.0,0.0,0.0,0.0,0.0,0.0,0.0,0.0,0.0,0.0,0.0,0.0,0.0,0.0,0.0,0.0,0.0,0.0,0.0,0.0,0.0,0.0,0.0,0.0,0.0,0.0,0.0,0.0,0.0,0.0,0.0,0.0,0.0,0.0,0.0,0.0,0.0,0.0,5.2506,5.1121,0.0,0.0,0.0,0.0,0.0,0.0,0.0,0.0,0.0,0.0,0.0,0.0,0.0,4.4543,4.4618,4.4618,4.4869,4.5372,4.5372,4.5623,4.61,4.61,4.61,4.61,4.61,0.0,4.4669,4.5095,0.0,0.0,0.0,0.0,0.0,0.0,0.0,0.0,0.0,0.0,0.0,0.0,0.0,0.0,0.0,0.0,0.0,0.0,0.0,0.0,0.0,5.6855,5.7064,5.8052,5.7603,5.6944,5.6226,0.0,0.0,0.0,0.0,0.0,0.0,0.0,0.0,0.0,5.7663,5.8471,5.9099,5.9099,5.8949,5.865,5.8351,5.7812,5.7064,5.6436,0.0,0.0,0.0,0.0,0.0,0.0,0.0,0.0,0.0,0.0,0.0,0.0,0.0,0.0,0.0,0.0,0.0,0.0,0.0,0.0,0.0,0.0,0.0,0.0,0.0,0.0,0.0,0.0,0.0,0.0,0.0,0.0,0.0,0.0,0.0,0.0,0.0,0.0,0.0,5.2665,5.2358,5.1728,4.996,4.8272,0.0,0.0,0.0,0.0,0.0,0.0,0.0,0.0,0.0,4.5095,4.5121,4.5246,4.5573,4.5573,4.5698,4.5949,4.5949,4.6075,4.6301,4.6301,4.6301,4.6301,4.6301,4.6024,4.5573,4.5522,4.5196,4.4719,0.0,0.0,0.0,0.0,4.389,4.3865,0.0,0.0,0.0,0.0,0.0,0.0,0.0,0.0,0.0,0.0,0.0,0.0,5.6974,5.7244,5.7633,5.8321,5.8231,5.7633,5.6466,5.6256,0.0,0.0,0.0,0.0,0.0,0.0,0.0,5.7363,5.8052,5.862,5.9099,5.9099,5.9099,5.9099,5.9099,5.856,5.7573,5.6944,5.6675,5.6555,0.0,0.0,0.0,0.0,0.0,0.0,0.0,0.0,0.0,0.0,0.0,0.0,0.0,0.0,0.0,0.0,0.0,0.0,0.0,0.0,0.0,0.0,0.0,0.0,0.0,0.0,0.0,0.0,0.0,0.0,0.0,0.0,0.0,0.0,0.0,0.0,0.0,5.286,5.2674,5.1814,5.0449,4.8954,0.0,0.0,0.0,0.0,0.0,0.0,4.4844,4.497,4.5246,4.5673,4.5698,4.5899,4.6301,4.6301,4.6301,4.6301,4.6301,4.6301,4.6301,4.6301,4.6301,4.6301,4.6301,4.6301,4.6276,4.5874,4.5623,4.5447,4.502,4.4744,4.4618,4.4618,4.4618,4.4543,0.0,0.0,0.0,0.0,0.0,0.0,0.0,0.0,0.0,0.0,0.0,5.6376,5.7034,5.7693,5.8351,5.9009,5.8471,5.7812,5.7094,5.6496,5.5867,5.5209,0.0,0.0,0.0,0.0,0.0,5.8082,5.874,5.9069,5.9099,5.9099,5.9099,5.9099,5.9099,5.9069,5.8949,5.8291,5.8022,5.7902,5.6585,0.0,0.0,0.0,0.0,0.0,0.0,0.0,0.0,0.0,0.0,0.0,0.0,0.0,0.0,0.0,0.0,0.0,0.0,0.0,0.0,0.0,0.0,0.0,0.0,0.0,0.0,0.0,0.0,0.0,0.0,0.0,0.0,0.0,0.0,0.0,0.0,0.0,0.0,5.1098,5.1266,0.0,0.0,0.0,0.0,4.4669,4.5121,4.5447,4.5447,4.5949,4.6225,4.6276,4.6276,4.6276,4.6301,4.6301,4.6301,4.6301,4.6301,4.6301,4.6301,4.6301,4.6301,4.6301,4.6301,4.6301,4.6301,4.6276,4.5949,4.5497,4.5447,4.5095,4.4618,4.4618,4.4618,4.4543,0.0,0.0,0.0,0.0,0.0,0.0,0.0,0.0,0.0,5.5718,5.6017,5.6585,5.7633,5.7992,5.8381,5.9039,5.889,5.8291,5.7154,5.6885,5.6286,5.5239,0.0,0.0,0.0,0.0,5.7423,5.8112,5.877,5.9099,5.9099,5.9099,5.9099,5.9099,5.9099,5.9099,5.9069,5.8411,5.8112,5.8052,5.7124,5.6526,0.0,0.0,0.0,0.0,0.0,0.0,0.0,0.0,0.0,0.0,0.0,0.0,0.0,0.0,0.0,0.0,0.0,0.0,0.0,0.0,0.0,0.0,0.0,0.0,0.0,0.0,0.0,0.0,0.0,0.0,0.0,0.0,0.0,0.0,0.0,0.0,0.0,5.2807,5.1618,0.0,4.8964,4.7436,4.6326,4.5748,4.5899,4.6024,4.6024,4.62,4.6301,4.6301,4.6301,4.6301,4.6301,4.6301,4.6301,4.6301,4.6301,4.6301,4.6301,4.6301,4.6301,4.6301,4.6301,4.6301,4.6301,4.6301,4.62,4.6024,4.6024,4.5899,4.5698,4.5698,4.5472,4.5095,0.0,0.0,0.0,0.0,0.0,0.0,0.0,0.0,5.494,5.6017,5.6346,5.6915,5.7992,5.8321,5.862,5.9069,5.9099,5.853,5.7184,5.7094,5.6526,5.5239,5.5179,0.0,0.0,5.6885,5.7543,5.8471,5.889,5.9099,5.9099,5.9099,5.9099,5.9099,5.9099,5.9099,5.9069,5.865,5.8471,5.8411,5.7723,5.7184,5.6675,0.0,0.0,0.0,0.0,0.0,0.0,0.0,0.0,0.0,0.0,0.0,0.0,0.0,0.0,0.0,0.0,0.0,0.0,0.0,0.0,0.0,0.0,0.0,0.0,0.0,0.0,0.0,0.0,0.0,0.0,0.0,0.0,0.0,0.0,0.0,5.3934,5.3079,5.2397,5.1163,4.9489,4.8248,4.7456,4.6878,4.6853,4.6853,4.6853,4.6677,4.6602,4.6602,4.6602,4.6502,4.6301,4.6502,4.6502,4.6301,4.6301,4.6301,4.6301,4.6301,4.6301,4.6301,4.6125,4.6024,4.6024,4.5824,4.5748,4.5773,4.615,4.6301,4.6301,4.6301,4.5974,4.5397,0.0,0.0,0.0,0.0,0.0,0.0,0.0,5.5179,5.5448,5.6107,5.6735,5.7363,5.8082,5.871,5.9099,5.9099,5.9099,5.853,5.7184,5.7094,5.6526,0.0,0.0,0.0,5.7064,5.7124,5.7782,5.9099,5.9099,5.9099,5.9099,5.9099,5.9099,5.9099,5.9099,5.9099,5.9099,5.9099,5.9099,5.9039,5.8411,5.8141,5.7992,0.0,0.0,0.0,0.0,0.0,0.0,0.0,0.0,0.0,0.0,0.0,0.0,0.0,0.0,0.0,0.0,0.0,0.0,0.0,0.0,0.0,0.0,0.0,0.0,0.0,0.0,0.0,0.0,0.0,0.0,0.0,0.0,0.0,5.3366,5.5319,5.5562,5.1844,5.3619,5.3497,4.9267,4.8812,4.8586,4.7983,4.7933,4.7933,4.7908,4.7431,4.7154,4.7154,4.7154,4.6903,4.6376,4.6903,4.6878,4.6326,4.6326,4.6326,4.6301,4.6301,4.6301,4.6276,4.5723,4.5497,4.5447,4.4869,4.4618,4.4744,4.5824,4.625,4.625,4.625,4.5899,4.5347,0.0,0.0,0.0,0.0,0.0,0.0,0.0,5.5179,5.5598,5.6705,5.7004,5.7543,5.871,5.9009,5.9099,5.9099,5.9099,5.853,5.7184,5.7094,5.6526,0.0,0.0,0.0,5.7064,5.7573,5.8261,5.9099,5.9099,5.9099,5.9099,5.9099,5.9099,5.9099,5.9099,5.9099,5.9099,5.9099,5.9099,5.9099,5.8919,5.856,5.8082,0.0,0.0,0.0,0.0,0.0,0.0,0.0,0.0,0.0,0.0,0.0,0.0,0.0,0.0,0.0,0.0,0.0,0.0,0.0,0.0,0.0,0.0,0.0,0.0,0.0,0.0,0.0,0.0,0.0,0.0,0.0,0.0,5.5944,5.5946,5.5382,5.5278,5.581,5.3771,5.2233,5.171,5.0691,4.9565,4.8611,4.8535,4.836,4.7933,4.7782,4.7682,4.7682,4.7682,4.7631,4.7481,4.7631,4.7431,4.6903,4.6903,4.6702,4.6301,4.6301,4.6301,4.6276,4.5723,4.5497,4.5447,4.4869,4.4618,4.4644,4.497,4.5095,4.5095,4.5095,4.4744,4.4051,0.0,0.0,0.0,0.0,0.0,0.0,0.0,5.5179,5.5658,5.6915,5.7094,5.7603,5.8949,5.9099,5.9099,5.9099,5.886,5.8231,5.7154,5.6585,5.5957,0.0,0.0,5.6466,5.7094,5.7782,5.8441,5.9099,5.9099,5.9099,5.9099,5.9099,5.9099,5.9099,5.9099,5.9099,5.9099,5.9099,5.9099,5.9099,5.9099,5.889,5.8501,5.8231,5.7872,5.7453,5.6795,5.6316,5.5927,5.5538,0.0,0.0,0.0,0.0,0.0,0.0,0.0,0.0,0.0,0.0,0.0,0.0,0.0,0.0,0.0,0.0,0.0,0.0,0.0,0.0,0.0,0.0,0.0,0.0,5.6376,5.7423,5.862,5.6964,5.6265,5.8143,5.5195,5.3085,5.3497,5.21,5.077,4.9891,4.959,4.9414,4.9314,4.8862,4.8611,4.8611,4.8611,4.8385,4.7908,4.8159,4.7883,4.7129,4.7129,4.6853,4.6301,4.6301,4.6175,0.0,4.5372,4.4995,4.4744,4.4166,4.394,0.0,0.0,0.0,0.0,0.0,4.3581,4.2634,0.0,0.0,0.0,0.0,0.0,0.0,0.0,5.5179,5.5658,5.6915,5.7094,5.7603,5.8949,5.9099,5.9069,5.9009,5.8471,5.7812,5.7034,5.5927,0.0,5.5299,5.5927,5.6555,5.7184,5.7812,5.8441,5.9099,5.9099,5.9099,5.9099,5.9099,5.9099,5.9099,5.9099,5.9099,5.9099,5.9099,5.9099,5.9099,5.9099,5.9099,5.9039,5.8471,5.8231,5.8141,5.7453,5.7214,5.7184,5.7124,0.0,0.0,0.0,0.0,0.0,0.0,0.0,0.0,0.0,0.0,0.0,0.0,0.0,0.0,0.0,0.0,0.0,0.0,0.0,0.0,0.0,0.0,0.0,0.0,5.709,5.8545,6.0588,5.8755,5.7733,5.9142,5.6886,5.4971,5.4446,5.3069,5.1975,5.1423,5.0896,5.077,5.1172,0.0,0.0,0.0,0.0,4.9188,4.8109,4.8611,4.8335,4.7305,4.7255,4.6928,4.6401,4.6326,4.605,4.5547,4.4895,4.4342,4.384,4.3237,4.2986,4.3062,4.4066,4.4443,4.4367,4.389,4.2865,4.1468,0.0,0.0,0.0,0.0,0.0,0.0,0.0,5.5179,5.5658,5.6915,5.7094,5.7603,5.8949,5.9099,5.889,5.8351,5.8201,5.7633,5.6436,0.0,5.5987,5.5987,5.6585,5.7244,5.7902,5.8052,5.8441,5.9099,5.9099,5.9099,5.9099,5.9099,5.9099,5.9099,5.9099,5.9099,5.9099,5.9099,5.9099,5.9099,5.9099,5.9099,5.9099,5.8949,5.8919,5.883,5.8171,5.7932,5.7842,5.7274,5.7094,5.7094,5.7094,5.7004,0.0,0.0,0.0,0.0,0.0,0.0,0.0,0.0,0.0,0.0,0.0,0.0,0.0,0.0,0.0,0.0,0.0,0.0,0.0,5.621,5.5964,5.6576,5.942,5.7064,5.5907,5.798,5.5393,5.3376,5.3275,5.2891,5.2528,5.2,5.185,5.1423,5.0619,5.082,5.0544,4.9615,5.0017,4.9941,4.9264,4.9389,4.9113,4.846,0.0,0.0,4.6954,4.6527,4.625,4.61,4.507,4.4568,4.4392,4.3388,4.2986,4.3011,4.3212,4.3288,4.3288,4.3162,4.3,4.2273,0.0,0.0,0.0,0.0,0.0,0.0,0.0,5.5179,5.5658,5.6915,5.7094,5.7603,5.8949,5.88,5.8471,5.8141,5.7812,5.7184,0.0,5.6466,5.6645,5.6645,5.7274,5.7782,5.8112,5.8441,5.877,5.9099,5.9428,5.9608,5.9608,5.9937,6.0116,6.0086,5.9757,5.9608,5.9578,5.9249,5.9099,5.9099,5.9099,5.9099,5.9099,5.9099,5.9099,5.9069,5.874,5.862,5.856,5.8201,5.8112,5.8112,5.8112,5.7872,5.7543,0.0,0.0,0.0,0.0,0.0,0.0,0.0,0.0,0.0,0.0,0.0,0.0,0.0,0.0,5.2989,0.0,0.0,5.3834,5.6002,5.5881,5.6249,5.8485,5.6522,5.5988,5.8952,5.5446,5.3179,5.4055,5.3427,5.2804,5.2528,5.2251,5.1975,5.1699,5.1674,5.1423,5.087,5.0845,5.0569,5.0017,4.9741,4.9314,4.8761,4.8184,4.7631,4.7104,4.6552,4.615,4.5874,4.5296,4.4895,4.4568,4.374,4.3212,4.2986,4.2986,4.2986,4.2986,4.2986,4.2012,4.0361,0.0,0.0,0.0,0.0,0.0,0.0,0.0,0.0,5.5598,5.6765,5.7034,5.7513,5.859,5.8351,5.8022,5.7752,5.7244,5.6705,0.0,5.6885,5.7304,5.7304,5.7812,5.8171,5.8321,5.871,5.9039,5.9308,5.9817,6.0146,6.0296,6.0864,6.1104,6.1104,6.0535,6.0266,6.0266,5.9727,5.9488,5.9488,5.9338,5.9308,5.9279,5.9159,5.9099,5.9099,5.9099,5.9099,5.9099,5.9099,5.9099,5.9099,5.9099,5.883,5.8334,5.7851,5.6216,0.0,0.0,0.0,0.0,0.0,0.0,0.0,0.0,0.0,5.1099,5.121,5.1007,5.1174,5.2685,5.2447,5.2899,5.529,5.5562,5.5871,5.7332,5.5945,5.6076,5.9076,5.5578,5.3427,5.4809,5.3674,5.2929,5.2929,5.2528,5.2402,5.2754,5.2452,5.2176,5.195,5.1523,5.0996,5.0419,4.9866,4.9364,4.8912,4.8234,4.7682,4.7255,4.6602,4.6075,4.5648,4.5547,4.5171,4.4593,4.4141,4.3689,4.3288,4.3288,4.3237,4.3112,4.3011,4.1191,3.858,0.0,0.0,0.0,0.0,0.0,0.0,0.0,0.0,0.0,5.6166,5.6765,5.7154,5.7304,5.7812,5.7663,5.6496,5.6316,0.0,5.6166,5.7334,5.8022,5.8022,5.8082,5.8411,5.8979,5.8501,5.88,5.9967,6.0057,6.0386,6.1014,6.1074,6.1104,6.1104,6.1044,6.1014,6.0984,6.0924,6.0894,6.0835,6.0236,5.9967,5.9907,5.9338,5.9099,5.9099,5.9099,5.9099,5.9099,5.9099,5.9099,5.9099,5.9099,5.9458,5.9389,5.6689,0.0,5.4129,5.2321,5.1349,0.0,5.1431,5.1541,5.1567,0.0,0.0,5.2393,5.2801,5.2904,5.3198,5.4506,5.3949,5.3629,5.452,5.3941,5.3792,5.5419,5.4299,5.392,5.5814,5.419,5.2929,5.3179,5.3067,5.2929,5.2929,5.2879,5.2653,5.2226,5.2603,5.2377,5.1398,5.1322,5.0996,5.0419,4.9866,4.9565,4.949,4.841,4.7883,4.7782,4.6778,4.6276,4.6175,4.5698,4.5171,4.4618,4.4568,4.4493,4.4443,4.4443,4.4141,4.3639,4.3162,4.1899,4.0129,0.0,0.0,0.0,0.0,0.0,0.0,0.0,0.0,0.0,0.0,5.6406,5.6705,5.7064,5.7034,5.6615,5.5688,0.0,0.0,5.6675,5.7603,5.8291,5.868,5.871,5.883,5.9099,5.9219,5.9338,5.9518,6.0685,6.1224,6.1134,6.1912,6.2241,6.2241,6.1852,6.1672,6.1672,6.1283,6.1104,6.1104,6.0805,6.0685,6.0625,5.9937,5.9668,5.9608,5.9249,5.886,0.0,5.8979,5.886,5.859,5.8979,5.8703,5.7844,5.6589,5.4753,0.0,5.0575,0.0,0.0,0.0,4.9688,5.0002,5.0237,5.0551,5.0864,5.11,5.1701,5.2175,5.2798,5.3008,5.3196,0.0,5.3164,5.3179,5.381,5.3291,5.3179,5.3784,5.3291,5.2929,5.2929,5.2929,5.2929,5.2929,5.2929,5.2829,5.2603,5.2804,5.2703,5.2251,5.1624,5.1172,5.0921,5.0042,4.959,4.959,4.8786,4.841,4.8385,4.728,4.6627,4.6301,4.6075,4.5648,4.5121,4.5121,4.492,4.4593,4.4267,4.4016,4.3765,4.3539,4.2282,4.0476,0.0,0.0,0.0,0.0,0.0,0.0,0.0,0.0,0.0,0.0,5.6077,5.6346,5.6795,5.6286,5.5718,5.5239,0.0,0.0,0.0,5.7752,5.8411,5.9069,5.9099,5.9189,5.9368,5.9847,6.0027,5.9937,6.1403,6.1942,6.1672,6.263,6.3079,6.3049,6.257,6.2361,6.2331,6.1852,6.1642,6.1642,6.1463,6.1283,6.1044,6.0356,5.9847,5.9488,5.9009,5.853,5.8171,5.8471,5.8231,5.7856,5.8051,5.7517,5.648,5.5647,5.3413,5.0831,4.9242,0.0,0.0,4.8234,4.8812,4.9264,4.9439,4.9766,5.0092,5.0268,5.0946,5.1548,5.1699,5.2402,5.2929,5.2929,5.2929,5.2929,5.2929,5.2929,5.2929,5.2929,5.2804,5.2754,5.2904,5.2929,5.2929,5.2929,5.2929,5.2929,5.2929,5.2929,5.2929,5.2929,5.2,5.1448,5.1272,5.0318,4.9741,4.959,4.9038,4.8761,4.8736,4.7631,4.6928,4.6527,4.6376,4.6075,4.5723,4.5723,4.5472,4.5045,4.4644,4.4392,4.4267,4.4267,4.2379,3.9873,0.0,0.0,0.0,0.0,0.0,0.0,0.0,0.0,0.0,0.0,0.0,0.0,0.0,0.0,5.5209,0.0,0.0,0.0,0.0,5.7752,5.8411,5.9069,5.9099,5.9398,6.0057,6.0086,6.0715,6.2002,6.2061,6.2421,6.3019,6.3049,6.3079,6.3079,6.3049,6.3049,6.3049,6.3019,6.3019,6.2959,6.2331,6.1672,6.1044,6.0356,5.9279,5.8171,5.8171,5.8141,5.8022,5.7363,5.7154,5.7004,5.6055,5.6246,0.0,5.3039,5.0628,4.8913,0.0,0.0,4.8862,4.9414,4.9967,5.0519,5.1071,5.1222,5.1373,5.1925,5.2051,5.2251,5.2779,5.2904,5.2929,5.2929,5.2929,5.2929,5.2929,5.2929,5.2929,5.2929,5.2452,5.2352,0.0,5.2929,5.2929,5.2929,5.2929,5.2929,5.2929,5.2929,5.2929,5.2929,5.2377,5.1825,5.1297,5.0695,5.0117,4.959,4.9038,4.8761,4.8736,4.7631,4.7129,4.7079,4.6552,4.6301,4.6276,4.6276,4.6276,4.625,4.625,4.5899,4.5447,4.5447,4.2423,3.8223,0.0,0.0,0.0,0.0,0.0,0.0,0.0,0.0,0.0,0.0,0.0,0.0,0.0,0.0,0.0,0.0,0.0,0.0,0.0,5.7094,5.7752,5.8411,5.886,5.9219,5.9428,6.0326,6.0775,6.0745,6.1642,6.2211,6.2421,6.2421,6.266,6.3079,6.3079,6.3079,6.3079,6.3079,6.3079,6.3019,6.2361,6.1972,6.1642,6.0505,5.9548,5.865,0.0,5.7184,5.6855,5.7034,5.7094,5.6974,5.6026,0.0,0.0,5.1393,4.9673,4.8937,0.0,0.0,4.9992,5.0569,5.1122,5.1599,5.1774,5.2126,5.2427,5.2603,5.2076,5.1624,5.18,5.1825,5.1825,5.1825,5.2452,5.2929,5.2929,5.2929,5.2929,5.2929,5.2754,0.0,0.0,0.0,0.0,5.2904,5.2929,5.2929,5.2929,5.2929,5.2929,5.2929,5.2402,5.185,5.1297,5.072,5.0142,4.959,4.9414,4.8912,4.8184,4.7807,4.7255,4.6577,4.6401,4.6301,4.6301,4.6301,4.6301,4.6276,4.5899,4.5648,4.5447,4.5045,4.3208,4.0997,0.0,0.0,0.0,0.0,0.0,0.0,0.0,0.0,0.0,0.0,0.0,0.0,0.0,0.0,0.0,0.0,0.0,0.0,0.0,0.0,5.7184,5.8082,5.853,5.8979,5.9458,6.0296,6.0655,6.0446,6.1313,6.1732,6.1732,6.1732,6.1972,6.2391,6.2391,6.2391,6.2391,6.2391,6.251,6.266,6.2002,6.1732,6.1613,6.0236,5.9338,0.0,5.7244,5.6645,5.6496,5.6436,5.6585,5.6646,0.0,0.0,0.0,0.0,4.9952,4.9515,5.0218,5.072,5.1122,5.1473,5.2,5.2402,5.2402,5.2678,5.2929,5.2929,5.2051,5.1272,5.1272,5.1096,5.0971,5.0971,5.1749,5.2477,5.2879,5.2754,5.2779,5.3155,5.2879,5.2703,0.0,0.0,0.0,5.2879,5.2929,5.2929,5.2929,5.2929,5.2929,5.2929,5.2578,5.2126,5.1574,5.1197,5.0645,4.9891,4.969,4.9213,4.8485,4.8083,4.7531,4.6853,4.6476,4.6301,4.6301,4.6301,4.6301,4.6276,4.5924,4.5773,4.5748,4.5372,4.4606,4.3649,0.0,0.0,0.0,0.0,0.0,0.0,0.0,0.0,0.0,0.0,0.0,0.0,0.0,0.0,0.0,0.0,0.0,0.0,0.0,0.0,0.0,5.8022,5.8112,5.871,5.9967,6.0027,6.0326,6.0954,6.0954,6.0984,6.1014,6.1014,6.1044,6.1074,6.1104,6.1104,6.1104,6.1104,6.1463,6.2002,6.1313,6.1074,6.0924,5.9608,5.871,5.7962,5.6705,5.6615,5.6915,0.0,0.0,0.0,0.0,0.0,0.0,0.0,0.0,5.0469,5.0494,5.1322,5.2176,5.2176,5.2578,5.298,5.298,5.2955,5.2904,5.2854,5.1975,5.1172,0.0,0.0,5.0368,5.0368,5.0921,5.1724,5.2779,5.2477,5.2528,0.0,0.0,0.0,0.0,0.0,0.0,5.2879,0.0,5.2929,5.2929,5.2929,5.2929,5.2929,5.2929,5.2653,5.2126,5.2076,5.1498,5.0368,4.9866,4.9615,4.9515,4.8435,4.7933,4.7857,4.6803,4.6351,4.6351,4.6326,4.6301,4.6301,4.6301,4.6301,4.6301,4.6301,4.6301,4.591,0.0,0.0,0.0,0.0,0.0,0.0,0.0,0.0,0.0,0.0,0.0,0.0,0.0,0.0,0.0,0.0,0.0,0.0,0.0,0.0,0.0,0.0,5.7842,5.8291,5.862,5.9099,5.9189,5.889,5.889,5.9129,5.9608,5.9608,5.9877,6.0386,6.0894,6.1104,6.1104,6.1104,6.1224,6.1313,6.0625,6.0356,6.0266,5.9428,5.871,5.8082,5.7752,5.7393,0.0,0.0,0.0,0.0,0.0,0.0,5.2147,0.0,0.0,5.1147,5.1574,5.2477,5.3306,5.3306,5.3406,5.3507,5.3507,5.3206,5.2703,5.1875,5.0795,4.9766,0.0,0.0,0.0,4.9791,5.1322,0.0,5.2879,5.2804,0.0,5.308,0.0,5.2779,5.2904,5.2804,0.0,0.0,5.2929,5.2929,5.2929,5.2929,5.2929,5.2929,5.2929,5.2653,5.2126,5.1699,5.0921,4.9816,5.0067,4.9766,4.8962,4.8686,4.8309,4.7883,4.7205,4.6928,4.6903,4.6476,4.6301,4.6301,4.6301,4.6301,4.6301,4.6301,4.6301,4.6155,0.0,0.0,0.0,0.0,0.0,0.0,0.0,0.0,0.0,0.0,0.0,0.0,0.0,0.0,0.0,0.0,0.0,0.0,0.0,0.0,0.0,0.0,5.7453,5.7812,5.8112,5.8201,5.8321,5.856,5.7962,5.8321,5.9518,5.8949,5.9039,5.9668,6.0057,6.0236,6.0236,6.0236,6.0386,0.0,0.0,5.9817,5.9967,5.9039,5.862,5.8471,5.7872,0.0,0.0,0.0,0.0,5.7423,5.842,5.702,5.5029,5.5716,0.0,5.387,5.3546,5.4209,5.4679,5.4289,5.3884,5.3582,5.3105,5.2578,5.19,5.077,4.964,0.0,4.8033,0.0,0.0,0.0,0.0,0.0,5.2854,5.2729,5.2729,0.0,5.3055,0.0,5.2929,5.2929,5.2929,0.0,5.2929,5.2929,5.2929,5.2929,5.2929,5.2929,5.2929,5.2779,5.2477,5.1925,5.1197,5.0343,5.0393,4.9967,4.9113,4.8887,4.8586,4.8259,0.0,4.7481,4.7456,4.7129,4.6878,4.6677,4.6677,4.6527,4.6301,4.6301,4.6301,4.6301,0.0,0.0,0.0,0.0,0.0,0.0,0.0,0.0,0.0,0.0,0.0,0.0,0.0,0.0,0.0,0.0,0.0,0.0,0.0,0.0,0.0,0.0,5.7244,5.7513,5.8112,5.7543,5.7752,5.883,5.7663,5.7992,5.9668,5.862,5.8441,5.8979,5.9069,5.9099,5.9099,5.9099,5.9428,5.9907,5.9338,5.9488,5.9937,0.0,5.865,5.9069,0.0,0.0,0.0,0.0,5.9697,5.9368,6.0116,5.9644,5.8869,5.9042,5.8277,5.7201,5.626,5.6478,5.6551,5.5357,5.4632,5.3785,5.2452,5.1724,5.0921,4.964,0.0,4.7857,4.7732,4.8209,4.8711,4.8862,0.0,5.1674,5.2779,5.2528,5.2553,5.3482,5.3206,5.2929,5.2929,5.2929,5.2929,5.2929,5.2929,5.2929,5.2929,5.2929,5.2929,5.2929,5.2929,5.2904,5.2829,5.2427,5.19,5.1272,5.077,5.0243,4.969,4.9138,4.8887,4.8862,4.8259,0.0,4.8008,4.7933,4.7631,4.723,4.723,4.6954,4.6527,4.6527,4.6527,4.6527,0.0,0.0,0.0,0.0,0.0,0.0,0.0,0.0,0.0,0.0,5.5179,5.5179,0.0,0.0,0.0,0.0,0.0,0.0,0.0,0.0,0.0,0.0,5.7932,5.7992,5.8112,5.8022,5.7782,5.7453,5.7214,5.7274,5.7633,5.7962,5.8171,5.8321,5.886,5.9099,5.9099,5.9099,5.9159,5.9249,5.9159,5.9488,5.9997,5.9219,0.0,0.0,0.0,0.0,0.0,0.0,5.9997,6.0116,6.1373,6.0674,5.9587,6.0652,5.9917,5.8723,5.9071,5.9676,5.9612,5.7874,5.7066,5.595,5.3417,5.2,0.0,0.0,4.8033,4.7631,4.6753,4.7405,4.836,4.9314,0.0,0.0,0.0,0.0,5.2854,0.0,0.0,0.0,0.0,0.0,0.0,0.0,0.0,5.2929,5.2929,5.2929,5.2929,5.2929,5.2929,5.2703,5.2251,5.2603,5.2277,5.1272,5.1172,5.082,5.0243,4.9715,4.9464,4.9414,4.8862,0.0,4.8586,4.8109,4.7857,4.7782,4.7782,4.7707,4.7631,4.7631,4.7631,4.7631,0.0,0.0,0.0,0.0,0.0,0.0,0.0,5.5478,5.5718,5.5718,5.5718,5.5568,5.5239,5.5508,5.5568,0.0,0.0,0.0,0.0,0.0,0.0,0.0,0.0,0.0,0.0,0.0,0.0,0.0,0.0,5.7633,5.865,0.0,5.8321,5.865,5.8979,5.9099,5.9099,5.9099,5.9099,5.9129,5.9488,5.9787,6.0086,0.0,0.0,0.0,0.0,0.0,0.0,0.0,6.0326,6.0805,6.1792,6.1813,6.1498,6.2587,6.2453,6.2179,6.221,6.2405,6.2324,6.0757,5.9508,5.7624,5.4207,0.0,0.0,0.0,4.7079,4.6928,4.6401,4.7179,0.0,0.0,0.0,0.0,0.0,0.0,0.0,0.0,0.0,0.0,0.0,0.0,0.0,0.0,0.0,5.2929,5.2929,5.2929,5.2929,5.2929,5.2929,5.2804,5.2528,5.2804,5.2528,5.1699,5.1423,5.0971,5.0393,4.9841,4.959,4.959,4.9314,0.0,4.9188,4.8887,4.8611,4.836,4.836,4.8184,4.7908,4.7908,4.7908,4.7908,0.0,0.0,0.0,0.0,0.0,0.0,0.0,5.5951,5.6166,5.6166,5.6286,5.6137,5.5478,5.5748,5.5748,0.0,0.0,0.0,0.0,0.0,0.0,0.0,0.0,0.0,0.0,0.0,0.0,0.0,0.0,0.0,0.0,0.0,0.0,0.0,0.0,5.9189,5.9308,5.9159,5.9099,0.0,0.0,6.0176,0.0,0.0,0.0,0.0,0.0,0.0,0.0,0.0,6.0446,6.1014,6.1672,6.2421,6.3169,6.3647,6.4485,6.5232,6.491,6.5025,6.4958,6.3673,6.2012,5.9617,5.5572,5.3664,0.0,0.0,4.718,4.718,4.718,4.7656,4.81,0.0,0.0,0.0,0.0,0.0,0.0,0.0,0.0,0.0,0.0,0.0,0.0,0.0,0.0,0.0,5.2929,5.2929,5.2929,5.2929,5.2929,5.2929,5.2929,5.2929,5.2703,5.2277,5.1599,5.1046,5.0569,4.9891,4.959,4.959,4.959,0.0,0.0,4.959,4.9339,4.8937,4.8937,4.8661,4.8259,4.8259,4.8259,4.8259,0.0,0.0,0.0,0.0,0.0,0.0,0.0,5.6464,5.6166,5.6166,5.6645,5.6765,5.6137,5.5598,5.5269,0.0,0.0,0.0,0.0,0.0,0.0,0.0,0.0,0.0,0.0,0.0,0.0,0.0,0.0,0.0,0.0,0.0,0.0,0.0,0.0,0.0,5.9967,5.9368,0.0,0.0,0.0,0.0,0.0,0.0,0.0,0.0,0.0,0.0,0.0,0.0,0.0,6.0296,6.0984,6.2061,6.3079,6.3139,0.0,0.0,6.6667,6.7617,6.8131,6.6388,6.4555,6.2079,5.7813,0.0,0.0,5.0874,5.0268,5.0268,5.0268,4.9274,4.8799,0.0,0.0,4.9443,0.0,0.0,0.0,0.0,0.0,0.0,0.0,0.0,0.0,0.0,0.0,0.0,5.2929,5.2929,5.2929,5.2929,5.2929,5.2929,5.2929,5.2929,5.2904,5.2829,5.1774,5.1247,5.1172,5.0092,4.959,4.959,4.959,0.0,0.0,4.959,4.9565,4.9515,4.9515,4.949,4.9439,4.9439,4.9439,4.9439,0.0,0.0,0.0,0.0,0.0,0.0,5.7837,5.7709,5.8023,5.8522,5.8797,5.8978,5.9055,5.7721,5.6625,5.5879,0.0,0.0,0.0,0.0,0.0,0.0,0.0,0.0,0.0,0.0,0.0,5.9099,0.0,0.0,0.0,0.0,0.0,0.0,0.0,0.0,0.0,0.0,0.0,0.0,0.0,0.0,0.0,0.0,0.0,0.0,0.0,0.0,0.0,0.0,0.0,0.0,5.9937,6.0835,0.0,0.0,6.4485,6.6251,6.7298,6.8555,6.9355,6.8269,6.6125,6.3285,5.9228,0.0,0.0,5.135,5.0713,5.0713,5.0713,5.0268,4.9983,5.0471,5.0274,0.0,0.0,0.0,0.0,0.0,0.0,0.0,0.0,0.0,0.0,0.0,0.0,0.0,5.2929,5.2929,5.2929,5.2929,5.2929,5.2929,5.2929,5.2929,5.2929,5.2929,5.2151,5.1599,5.1247,5.0444,4.9916,4.959,4.959,0.0,0.0,4.959,4.959,4.959,4.959,4.959,4.959,4.959,4.959,4.959,0.0,0.0,0.0,0.0,0.0,6.0152,5.8934,5.919,5.975,6.025,6.0657,6.105,6.1183,6.0012,5.8896,5.797,5.704,0.0,0.0,0.0,0.0,0.0,0.0,0.0,0.0,0.0,5.9099,5.9099,5.9099,5.9099,0.0,0.0,0.0,0.0,0.0,0.0,0.0,0.0,0.0,0.0,0.0,0.0,0.0,0.0,0.0,0.0,0.0,0.0,0.0,0.0,0.0,0.0,0.0,0.0,0.0,0.0,6.3707,6.5712,6.7029,6.8525,6.9632,6.9363,6.7298,6.4427,0.0,0.0,0.0,5.2892,5.2164,5.2051,5.2051,5.1699,5.1372,5.1372,5.1294,5.1958,5.3832,0.0,0.0,0.0,0.0,0.0,0.0,0.0,0.0,0.0,0.0,0.0,0.0,5.3674,5.3427,5.2929,5.2929,5.2929,5.2929,5.2929,5.2929,5.2929,5.2377,5.1825,5.1272,5.0695,5.0193,4.9816,4.9665,0.0,0.0,4.9665,4.959,4.959,4.959,4.959,4.959,4.959,4.959,4.959,0.0,0.0,0.0,0.0,0.0,0.0,6.0619,6.072,6.0892,6.0892,6.2108,6.2716,6.2107,6.1916,6.1916,6.1916,5.9008,0.0,0.0,0.0,0.0,0.0,0.0,0.0,0.0,0.0,5.9099,5.9099,5.9099,5.9099,5.9099,5.9099,5.9458,0.0,0.0,0.0,0.0,0.0,0.0,0.0,0.0,0.0,6.3019,0.0,0.0,0.0,0.0,0.0,0.0,0.0,0.0,0.0,0.0,0.0,0.0,0.0,6.1972,6.4306,6.5652,6.7478,6.9153,6.9812,6.7956,6.5473,0.0,0.0,5.7752,5.6436,5.5658,5.5179,5.5179,5.3964,5.2963,5.2963,5.1727,5.1905,5.5415,0.0,0.0,0.0,0.0,0.0,0.0,0.0,0.0,0.0,0.0,0.0,0.0,5.5419,5.4541,5.2929,5.2929,5.2929,5.2929,5.2929,5.2929,5.2929,5.2377,5.1825,5.1272,5.0695,5.0419,0.0,0.0,0.0,0.0,4.9816,4.959,4.959,4.959,4.959,4.959,4.959,4.959,4.959,0.0,0.0,0.0,0.0,0.0,0.0,0.0,6.1786,6.2273,6.2852,6.3734,6.4334,6.4527,6.3814,6.3244,6.3244,6.1535,0.0,0.0,0.0,0.0,0.0,0.0,0.0,0.0,0.0,5.994,5.9099,5.994,5.994,5.9099,5.9099,5.9458,6.0086,6.0086,0.0,0.0,0.0,0.0,0.0,0.0,6.2899,6.2959,0.0,0.0,0.0,0.0,0.0,0.0,0.0,0.0,0.0,0.0,0.0,0.0,5.9338,6.0984,0.0,6.3767,6.5114,6.6221,6.5951,6.4605,6.2929,6.1373,0.0,5.7184,5.6346,5.5658,5.5179,5.5179,5.4845,5.4509,5.4509,5.4068,5.4462,0.0,0.0,0.0,0.0,0.0,0.0,0.0,0.0,0.0,0.0,0.0,0.0,0.0,5.7213,5.6337,5.4675,5.3563,5.2929,5.2929,5.2929,5.2929,5.2929,5.2754,5.2377,5.185,5.1649,5.1373,0.0,0.0,0.0,0.0,4.9816,4.959,4.959,4.959,4.959,4.964,5.0017,4.9916,4.964,0.0,0.0,0.0,0.0,0.0,0.0,0.0,6.2532,6.3264,6.3995,6.4694,6.544,6.6052,6.5444,6.498,6.4893,6.4243,0.0,0.0,0.0,0.0,0.0,0.0,0.0,5.9864,6.0609,6.0609,5.9864,6.0609,6.0609,5.9864,6.0359,6.0499,6.0502,6.0668,6.091,0.0,0.0,0.0,0.0,6.281,6.2839,6.2989,0.0,0.0,0.0,0.0,0.0,0.0,0.0,0.0,0.0,0.0,0.0,0.0,0.0,5.9997,6.1224,0.0,6.3468,6.4246,6.4036,6.3049,0.0,0.0,0.0,0.0,5.6585,5.5807,5.5179,5.5179,5.5179,5.5179,5.5179,5.5179,0.0,0.0,0.0,0.0,0.0,0.0,0.0,0.0,0.0,0.0,0.0,0.0,0.0,0.0,5.898,5.8103,5.644,5.4675,5.3538,5.2929,5.2929,5.2929,5.2929,5.2929,5.2628,5.2101,5.2101,5.18,0.0,0.0,0.0,0.0,5.0042,4.9791,4.9615,4.9816,4.9766,4.9665,5.0218,5.0067,4.9665,0.0,0.0,0.0,0.0,0.0,0.0,0.0,6.3024,6.3768,6.4444,6.5189,6.5967,6.6643,6.6779,6.6812,6.6812,0.0,0.0,0.0,0.0,0.0,0.0,0.0,0.0,6.1193,6.113,6.113,6.1091,6.1193,6.1193,6.1193,6.239,6.2291,6.1122,6.1774,6.2488,0.0,0.0,0.0,0.0,6.2421,6.254,0.0,0.0,0.0,0.0,0.0,0.0,0.0,0.0,0.0,0.0,0.0,0.0,0.0,0.0,0.0,0.0,0.0,6.2331,0.0,0.0,0.0,0.0,0.0,0.0,0.0,0.0,0.0,0.0,5.5179,5.5179,5.5179,5.5179,5.5179,0.0,0.0,0.0,0.0,0.0,0.0,0.0,0.0,0.0,0.0,0.0,0.0,0.0,0.0,6.0721,5.9872,5.8257,5.644,5.4675,5.2929,5.2929,5.2929,5.2929,5.2929,5.2653,5.2176,5.2176,5.1875,0.0,0.0,0.0,0.0,5.0444,5.0117,4.9715,5.0218,5.0067,4.9665,5.0218,5.0067,4.9665,0.0,0.0,0.0,0.0,0.0,0.0,0.0,0.0,0.0,0.0,6.4884,6.5764,6.5933,6.6474,6.6812,0.0,0.0,0.0,0.0,0.0,0.0,0.0,0.0,0.0,6.2487,6.2934,6.2901,6.2487,6.3544,6.3449,6.2487,6.2876,6.2779,6.2519,6.2678,6.344,0.0,0.0,0.0,0.0,6.3327,6.2929,0.0,0.0,0.0,0.0,6.0116,5.9697,0.0,0.0,0.0,0.0,0.0,0.0,0.0,0.0,5.9099,5.9219,5.9668,0.0,6.0086,6.0206,6.0027,5.9638,0.0,0.0,0.0,0.0,0.0,0.0,0.0,5.5179,5.5179,5.5179,5.5179,0.0,0.0,0.0,0.0,0.0,0.0,0.0,0.0,0.0,0.0,0.0,0.0,0.0,0.0,6.2438,6.1644,5.9994,5.823,5.5972,5.2929,5.2929,5.2929,5.2929,5.2929,5.2854,5.2729,5.2729,5.2427,0.0,0.0,0.0,5.1046,5.0594,5.0343,5.0243,5.0368,5.0067,4.9665,5.0218,5.0067,4.9665,0.0,0.0,0.0,0.0,0.0,0.0,0.0,0.0,0.0,0.0,0.0,6.4952,6.5628,6.6068,0.0,0.0,0.0,0.0,0.0,0.0,0.0,0.0,0.0,6.3661,6.3826,6.3817,6.3785,6.3858,6.4597,6.4505,6.3826,6.4414,6.4414,6.3858,6.4539,6.4965,0.0,0.0,0.0,6.4476,6.3159,0.0,0.0,0.0,0.0,0.0,5.9937,5.9578,0.0,5.9219,5.9099,5.9099,0.0,0.0,0.0,0.0,5.9099,5.9039,5.874,5.865,5.874,5.9039,5.889,5.865,5.859,0.0,0.0,0.0,0.0,0.0,0.0,0.0,0.0,0.0,0.0,0.0,0.0,0.0,0.0,0.0,0.0,0.0,0.0,0.0,0.0,0.0,0.0,0.0,0.0,6.3079,6.2292,6.06,5.9626,5.7469,5.4055,5.3291,5.2929,5.2929,5.2929,5.2929,5.2929,5.2929,5.2628,0.0,0.0,0.0,5.087,5.082,5.0519,5.0067,5.0318,5.0067,4.9665,5.0218,5.0067,4.9665,0.0,0.0,0.0,0.0,0.0,0.0,0.0,0.0,0.0,0.0,0.0,0.0,0.0,0.0,0.0,0.0,0.0,0.0,0.0,0.0,0.0,0.0,6.6102,6.5514,6.4972,6.441,6.4443,6.5171,6.5171,6.5237,6.5425,6.6488,6.6402,6.5369,6.6443,6.6315,0.0,0.0,0.0,6.4128,6.2662,0.0,0.0,0.0,0.0,0.0,0.0,0.0,0.0,5.9129,5.9099,5.9099,5.9099,0.0,0.0,0.0,0.0,0.0,5.8291,5.8112,5.8261,5.883,5.853,5.8261,5.883,0.0,0.0,0.0,0.0,0.0,0.0,0.0,0.0,0.0,0.0,0.0,0.0,0.0,0.0,0.0,0.0,0.0,0.0,0.0,0.0,0.0,0.0,0.0,0.0,6.3079,6.2409,6.099,6.06,5.9076,5.618,5.4567,5.3563,5.3291,5.3291,5.3179,5.2929,5.2929,5.2628,5.2101,0.0,0.0,5.0594,5.1071,5.067,4.9766,5.0243,5.0067,4.9665,5.0117,4.9992,4.9665,0.0,0.0,0.0,0.0,0.0,0.0,0.0,0.0,0.0,0.0,0.0,0.0,0.0,0.0,0.0,0.0,0.0,0.0,0.0,0.0,0.0,6.6779,6.6102,6.5647,6.5581,6.548,6.5783,6.6525,6.6525,6.6828,6.7435,6.764,6.764,6.7435,6.6452,6.6552,6.7334,6.5674,0.0,6.4843,6.3392,0.0,0.0,0.0,0.0,0.0,0.0,0.0,0.0,5.9279,5.9099,5.9099,5.9099,0.0,0.0,0.0,0.0,0.0,5.8291,5.8112,5.8141,5.8261,5.8201,5.8141,5.8261,0.0,0.0,0.0,0.0,0.0,0.0,0.0,0.0,0.0,0.0,0.0,0.0,0.0,0.0,0.0,0.0,0.0,0.0,0.0,0.0,0.0,0.0,0.0,0.0,6.3079,6.2963,6.2701,6.1258,6.0237,5.9721,5.8103,5.6466,5.5049,5.5049,5.4299,5.2929,5.2929,5.2628,5.2101,0.0,5.1749,5.1147,5.1247,5.0896,5.0293,5.0393,5.0067,4.9615,4.969,4.9665,4.9615,0.0,0.0,0.0,0.0,0.0,0.0,0.0,0.0,0.0,0.0,0.0,0.0,0.0,0.0,0.0,0.0,0.0,0.0,0.0,0.0,6.6271,6.6203,6.6271,6.6305,6.6305,6.5899,6.6237,6.7387,6.7387,6.7793,6.8538,6.8098,6.7895,6.7895,6.7255,6.7342,6.7809,6.6865,6.6171,6.5478,0.0,0.0,0.0,0.0,0.0,0.0,0.0,0.0,0.0,0.0,5.9099,5.9099,5.9099,0.0,0.0,0.0,0.0,0.0,5.7842,5.7573,5.7573,5.7573,5.7842,5.8201,5.859,0.0,0.0,0.0,0.0,0.0,0.0,0.0,0.0,0.0,0.0,0.0,0.0,0.0,0.0,0.0,0.0,0.0,0.0,0.0,0.0,0.0,0.0,0.0,0.0,0.0,6.3079,6.3079,6.2292,6.191,6.191,6.1168,5.898,5.5419,5.5419,5.4541,5.2929,5.2929,5.2779,5.2528,0.0,5.18,5.1247,5.0946,5.0469,4.9967,4.9967,4.9992,5.0042,5.0042,4.9841,4.959,0.0,0.0,0.0,0.0,0.0,0.0,0.0,0.0,0.0,0.0,0.0,0.0,0.0,0.0,0.0,0.0,0.0,0.0,0.0,6.5764,6.6203,6.5967,6.6508,6.6745,6.6542,6.6339,6.6745,6.7895,6.8098,6.8571,6.935,6.8538,6.8166,6.8166,6.7793,6.7658,6.7658,6.7658,6.6866,6.5568,0.0,0.0,0.0,0.0,0.0,0.0,0.0,0.0,0.0,0.0,0.0,0.0,0.0,0.0,0.0,5.9099,5.9009,5.862,5.7423,5.7094,5.7094,5.7094,0.0,5.8141,5.9099,0.0,0.0,0.0,0.0,0.0,0.0,0.0,0.0,0.0,0.0,0.0,0.0,0.0,0.0,0.0,0.0,0.0,0.0,0.0,0.0,0.0,0.0,0.0,0.0,0.0,6.3079,6.3079,6.3079,6.3079,6.3079,6.3079,6.0899,5.6569,5.618,5.5049,5.3427,5.2916,5.2729,5.2703,5.2151,5.1599,5.1046,5.0594,5.0092,4.959,4.959,4.9841,5.0218,5.0218,4.9967,4.959,0.0,0.0,0.0,0.0,0.0,0.0,0.0,0.0,0.0,0.0,0.0,0.0,0.0,0.0,0.0,0.0,0.0,0.0,0.0,6.5087,6.5358,6.6677,6.6779,6.6474,6.5764,6.7049,6.7793,6.7895,6.8639,6.9383,7.0094,6.935,6.9011,6.8944,6.7523,6.688,6.688,6.688,6.6129,6.4967,6.4811,0.0,0.0,0.0,0.0,0.0,0.0,0.0,0.0,0.0,0.0,0.0,0.0,0.0,5.9099,5.9099,5.868,5.8052,5.7304,5.7094,5.7094,5.7094,5.7124,0.0,5.9578,6.0027,0.0,0.0,0.0,0.0,0.0,0.0,0.0,0.0,0.0,0.0,0.0,0.0,0.0,0.0,0.0,0.0,0.0,0.0,0.0,0.0,0.0,0.0,0.0,0.0,0.0,6.3079,6.3079,6.3079,6.3079,6.3079,6.2145,6.0087,5.8606,5.6828,5.5155,5.3139,5.2176,5.2126,5.1574,5.1021,5.0469,5.0444,5.0092,4.959,4.959,4.9615,4.9665,4.9665,4.9615,4.959,0.0,0.0,0.0,0.0,0.0,0.0,0.0,0.0,0.0,0.0,0.0,0.0,0.0,0.0,0.0,0.0,0.0,0.0,0.0,6.5189,6.5527,6.6102,6.6576,6.644,6.5696,6.7151,6.8132,6.8639,6.9891,7.0398,7.0161,6.9451,6.8842,6.8301,6.7286,6.6812,6.6812,6.6812,6.6525,6.6029,6.526,6.4597,0.0,0.0,0.0,0.0,0.0,0.0,0.0,0.0,5.9099,5.9099,5.9099,5.9099,5.9009,5.862,5.8321,5.7902,5.6825,5.6526,5.6615,5.7004,0.0,0.0,0.0,0.0,0.0,0.0,0.0,0.0,0.0,0.0,0.0,0.0,0.0,0.0,0.0,0.0,0.0,0.0,0.0,0.0,0.0,0.0,0.0,0.0,0.0,0.0,0.0,0.0,0.0,6.3079,6.3079,6.3079,6.3079,6.266,6.2191,6.1438,5.9784,5.7716,5.5393,5.3713,5.2634,5.2051,5.1147,5.0619,5.0393,5.0042,4.9791,4.9665,5.0368,5.0419,5.0142,5.0519,5.0193,4.959,0.0,0.0,0.0,0.0,0.0,0.0,0.0,0.0,0.0,0.0,0.0,0.0,0.0,0.0,0.0,0.0,0.0,0.0,6.4613,6.529,6.5696,6.5696,6.6406,6.6576,6.6068,6.7252,6.8301,6.9113,7.0601,7.0939,7.0161,6.9451,6.8673,6.7861,6.7151,6.6812,6.6812,6.6812,6.6812,6.6728,6.5855,6.547,0.0,0.0,0.0,0.0,0.0,0.0,0.0,0.0,5.9392,5.9099,5.9099,5.9099,5.8979,5.8321,5.7962,5.7573,5.6466,5.6017,5.6077,0.0,0.0,0.0,0.0,0.0,0.0,0.0,0.0,0.0,0.0,0.0,0.0,0.0,0.0,0.0,0.0,0.0,0.0,0.0,0.0,0.0,0.0,0.0,0.0,0.0,0.0,0.0,0.0,0.0,0.0,0.0,6.3079,6.3079,6.3079,6.2421,6.2091,6.2091,6.0527,5.8526,5.6332,5.4246,5.2906,5.2272,5.0806,5.0167,5.0117,4.9741,4.959,4.9665,5.0444,5.0519,5.0218,5.0795,5.0419,4.9615,0.0,0.0,0.0,0.0,0.0,0.0,0.0,0.0,0.0,0.0,0.0,0.0,0.0,0.0,0.0,0.0,0.0,0.0,6.4613,6.529,6.5696,6.5696,6.6406,6.6812,6.6812,6.7523,6.8301,6.9113,7.0567,7.0906,7.0161,6.9451,6.8673,6.7861,6.7151,6.6812,6.6812,6.6812,6.6812,6.6812,6.6812,6.6812,6.6643,0.0,0.0,0.0,0.0,0.0,0.0,0.0,6.015,5.9099,5.9099,5.9099,5.8979,5.8321,5.7633,5.6944,5.6346,5.5688,0.0,0.0,0.0,0.0,0.0,0.0,0.0,0.0,0.0,0.0,0.0,0.0,0.0,0.0,0.0,0.0,0.0,0.0,0.0,0.0,0.0,0.0,0.0,0.0,0.0,0.0,0.0,0.0,0.0,0.0,0.0,0.0,6.3079,6.3079,6.3079,6.2421,6.2091,6.2061,6.0715,5.9575,5.8344,5.4541,5.2833,5.2681,5.0563,4.959,4.959,4.959,4.959,4.9615,4.9615,4.9615,4.9665,5.0218,5.0067,4.9665,0.0,0.0,0.0,0.0,0.0,0.0,0.0,0.0,0.0,0.0,0.0,0.0,0.0,0.0,0.0,0.0,0.0,0.0,6.5358,6.5561,6.5696,6.5696,6.6406,6.6576,6.6034,6.7252,6.8301,6.9113,6.9553,6.935,6.8571,6.8944,6.8673,6.7895,6.7658,6.7557,6.7557,6.7015,6.6812,6.6812,6.6812,6.6812,6.6643,0.0,0.0,0.0,0.0,0.0,0.0,0.0,0.0,0.0,6.015,5.9864,5.889,5.7723,5.7244,5.6855,5.5777,5.5688,0.0,0.0,0.0,0.0,0.0,0.0,0.0,0.0,0.0,0.0,0.0,0.0,0.0,0.0,0.0,0.0,0.0,0.0,0.0,0.0,0.0,0.0,0.0,0.0,0.0,0.0,0.0,0.0,0.0,0.0,0.0,0.0,6.3079,6.2839,6.2391,6.2181,6.1852,6.1403,6.0505,5.9575,5.8433,5.5344,5.416,5.4243,5.1022,5.0181,5.1142,5.0078,4.9816,5.0167,5.0167,5.0167,5.0193,5.0368,5.0067,4.9615,0.0,0.0,0.0,0.0,0.0,0.0,0.0,0.0,0.0,0.0,0.0,0.0,0.0,0.0,0.0,0.0,0.0,0.0,0.0,6.5967,6.6,6.5696,6.6406,6.6609,6.6136,6.7015,6.7692,6.8199,6.8808,6.8707,6.7929,6.8707,6.8673,6.7895,6.7895,6.7895,6.7861,6.7117,6.6812,6.6812,6.6812,6.6812,6.6728,0.0,0.0,0.0,0.0,0.0,0.0,0.0,0.0,0.0,6.1496,6.1037,6.0055,5.8947,5.8237,5.7648,5.6616,0.0,0.0,0.0,0.0,0.0,0.0,0.0,0.0,0.0,0.0,0.0,0.0,0.0,0.0,0.0,0.0,0.0,0.0,0.0,0.0,0.0,0.0,0.0,0.0,0.0,0.0,0.0,0.0,0.0,0.0,0.0,0.0,0.0,6.3079,6.2899,6.248,6.1972,6.1493,6.1104,6.0146,5.9407,5.8691,5.6363,5.5524,5.5597,5.2121,5.079,5.1016,4.995,4.9791,5.0092,5.0092,5.0092,5.0117,5.0343,5.0067,4.9615,0.0,0.0,0.0,0.0,0.0,0.0,0.0,0.0,0.0,0.0,6.6812,0.0,0.0,0.0,0.0,0.0,0.0,0.0,0.0,6.644,6.6508,6.5831,6.6508,6.688,6.6812,6.688,6.688,6.6812,6.8199,6.8504,6.7827,6.8707,6.8707,6.7996,6.7996,6.7996,6.7963,6.7151,6.6812,6.6812,6.6812,6.6812,6.6812,6.6812,0.0,0.0,0.0,0.0,0.0,0.0,0.0,0.0,6.3196,6.2588,6.1788,6.118,6.0075,5.8949,0.0,0.0,0.0,0.0,0.0,0.0,0.0,0.0,0.0,0.0,0.0,0.0,0.0,0.0,0.0,0.0,0.0,0.0,0.0,0.0,0.0,0.0,0.0,0.0,0.0,0.0,0.0,0.0,0.0,0.0,0.0,0.0,0.0,6.3079,6.3019,6.2959,6.2899,6.1702,6.1074,6.1014,5.9787,5.9189,5.908,5.747,5.6593,5.6366,5.3402,5.1268,4.9847,4.9719,4.959,4.959,4.959,4.959,4.9665,5.0167,5.0017,4.9665,0.0,0.0,0.0,0.0,0.0,0.0,0.0,0.0,0.0,0.0,0.0,0.0,0.0,0.0,0.0,0.0,0.0,0.0,0.0,6.6711,6.6745,6.6576,6.7286,6.7387,6.6812,6.7387,6.7387,6.6812,6.7151,6.7218,6.7083,6.847,6.9011,6.8842,6.8842,6.8842,6.8741,6.7387,6.6812,6.6812,6.6812,6.6812,6.6812,6.6812,6.6812,0.0,0.0,0.0,0.0,0.0,0.0,0.0,6.423,6.3339,6.1884,6.1756,6.112,6.0202,0.0,0.0,0.0,0.0,0.0,0.0,0.0,0.0,0.0,0.0,0.0,0.0,0.0,0.0,0.0,0.0,0.0,0.0,0.0,0.0,0.0,0.0,0.0,0.0,0.0,0.0,0.0,0.0,0.0,0.0,0.0,0.0,0.0,6.3079,6.257,6.2061,6.1553,6.1253,6.0835,0.0,6.0027,5.9877,5.9847,5.7674,5.6022,5.4859,5.4149,5.2944,5.1393,5.0078,4.959,4.959,4.959,4.959,4.9615,4.9715,4.969,4.9615,0.0,0.0,0.0,0.0,0.0,0.0,0.0,0.0,0.0,0.0,0.0,0.0,0.0,0.0,0.0,0.0,0.0,0.0,0.0,0.0,6.6812,6.6812,6.7523,6.7557,6.6846,6.7523,6.7557,6.6812,6.6812,6.6812,6.6846,6.7996,6.8538,6.8538,6.8538,6.8538,6.8436,6.7286,6.6812,6.6812,6.6812,6.6812,6.6812,6.6812,6.6812,6.6812,6.6812,0.0,0.0,0.0,0.0,0.0,0.0,0.0,6.3199,6.3199,6.2582,6.1627,0.0,0.0,0.0,0.0,0.0,0.0,0.0,0.0,0.0,0.0,0.0,0.0,0.0,0.0,0.0,0.0,0.0,0.0,0.0,0.0,0.0,0.0,0.0,0.0,0.0,0.0,0.0,0.0,0.0,0.0,0.0,6.3079,6.3079,6.3079,6.275,6.2241,6.1583,6.1583,6.1253,6.0565,6.0236,5.9907,5.9608,5.8423,5.6962,5.5444,5.4741,5.3429,5.1865,5.0308,4.959,4.959,4.959,4.959,4.959,4.959,4.959,4.959,0.0,0.0,0.0,0.0,0.0,0.0,0.0,0.0,0.0,0.0,0.0,0.0,0.0,0.0,0.0,0.0,0.0,0.0,0.0,0.0,0.0,6.6812,6.7523,6.7557,6.6846,6.7523,6.7557,6.6812,6.6812,6.688,6.7015,6.7624,6.7895,6.7895,6.7895,6.7895,6.7861,6.7117,6.6812,6.6812,6.6812,6.6812,6.6812,6.6812,6.6812,6.6812,6.6812,6.6812,6.6812,6.6812,0.0,0.0,0.0,0.0,6.4613,6.4749,6.3886,6.2835,0.0,0.0,0.0,0.0,0.0,0.0,0.0,0.0,0.0,0.0,0.0,0.0,0.0,0.0,0.0,0.0,0.0,0.0,0.0,0.0,0.0,0.0,0.0,0.0,0.0,0.0,0.0,0.0,0.0,0.0,6.3079,6.3079,6.3079,6.3079,6.2959,6.266,6.2091,6.2002,6.1642,6.1104,6.0416,5.9727,5.9099,5.9099,5.8386,5.7075,5.5444,5.391,5.2332,5.0664,4.9822,4.959,4.959,4.959,4.959,4.959,4.959,4.959,0.0,0.0,0.0,0.0,0.0,0.0,0.0,0.0,0.0,0.0,0.0,0.0,0.0,0.0,0.0,0.0,0.0,0.0,6.6812,0.0,0.0,6.6812,6.7523,6.7557,6.6846,6.7523,6.7557,6.6812,6.6812,6.7151,6.776,6.7861,6.7895,6.7895,6.7895,6.7895,6.7861,6.7117,6.6812,6.6812,6.6812,6.6812,6.6812,6.6812,6.6812,6.6812,6.6812,6.6812,6.6812,6.6812,6.6812,0.0,0.0,0.0,6.4715,6.5358,6.4566,6.3381,0.0,0.0,0.0,0.0,0.0,0.0,0.0,0.0,0.0,0.0,0.0,0.0,0.0,0.0,0.0,0.0,0.0,0.0,0.0,0.0,0.0,0.0,0.0,0.0,0.0,0.0,0.0,0.0,0.0,0.0,6.3079,6.3079,6.3079,6.3079,6.254,6.2181,6.2091,6.1523,6.1194,6.1104,6.0416,5.9727,5.9099,5.9099,5.8991,5.8743,5.7075,5.556,5.391,5.2332,5.0916,4.959,4.959,4.959,4.959,4.959,4.959,4.959,0.0,0.0,0.0,0.0,0.0,0.0,0.0,0.0,0.0,0.0,0.0,0.0,0.0,0.0,0.0,6.6812,6.6812,6.6812,6.6812,6.6812,6.6812,6.6812,6.7523,6.7557,6.6846,6.7523,6.7557,6.6812,6.6812,6.7184,6.7895,6.7895,6.8132,6.8538,6.8098,6.7895,6.7861,6.7117,6.6812,6.6812,6.6812,6.6812,6.6812,6.6812,6.6812,6.6812,6.6812,6.6812,6.6812,6.6812,6.6812,6.6812,6.6812,0.0,0.0,0.0,0.0,0.0,0.0,0.0,0.0,0.0,0.0,0.0,0.0,0.0,0.0,0.0,0.0,0.0,0.0,0.0,0.0,0.0,0.0,0.0,0.0,0.0,0.0,0.0,0.0,0.0,0.0,0.0,0.0,0.0,0.0,6.3079,6.3079,6.3079,6.3079,6.3079,6.278,6.248,6.2091,6.2181,6.1852,6.1104,6.0805,6.0116,5.9099,5.9099,5.9099,5.8991,5.744,5.5791,5.4268,5.27,5.1016,4.959,4.959,4.959,4.959,4.959,4.959,4.959,0.0,0.0,0.0,0.0,0.0,0.0,0.0,0.0,0.0,0.0,0.0,0.0,0.0,0.0,0.0,0.0,6.6812,6.6812,6.6812,6.6812,6.6812,6.6812,6.7354,6.7354,6.6812,6.7354,6.7354,6.6812,6.6812,6.7286,6.8199,6.8199,6.8741,6.962,6.8639,6.8199,6.8166,6.7421,6.7083,6.7083,6.688,6.6812,6.6812,6.6812,6.6812,6.6812,6.6812,6.6812,0.0,0.0,0.0,0.0,6.6305,6.5358,0.0,0.0,0.0,0.0,0.0,0.0,0.0,0.0,0.0,0.0,0.0,0.0,0.0,0.0,0.0,0.0,0.0,0.0,0.0,0.0,0.0,0.0,0.0,0.0,0.0,0.0,0.0,0.0,0.0,0.0,0.0,0.0,0.0,6.3079,6.3079,6.3079,6.3079,6.3079,6.3079,6.2839,6.2361,6.2839,6.2421,6.1104,6.1104,6.0416,5.9099,5.9099,5.9099,5.8991,5.7804,5.6394,5.4859,5.3308,5.1616,5.0181,4.9719,4.959,4.959,4.959,4.959,4.959,0.0,0.0,0.0,0.0,0.0,0.0,0.0,0.0,0.0,0.0,0.0,0.0,6.6812,6.6812,6.6812,6.6812,6.6812,6.6812,6.6812,6.6812,6.6812,6.6812,6.6846,0.0,6.6812,6.6846,6.6846,6.6812,6.6812,6.759,6.9045,6.9045,6.9823,7.1142,6.9688,6.9045,6.8977,6.8199,6.7827,6.7793,6.7083,6.6812,6.6812,6.6812,6.6812,6.6812,6.6812,0.0,0.0,0.0,0.0,0.0,0.0,0.0,0.0,0.0,0.0,0.0,0.0,0.0,0.0,0.0,0.0,0.0,0.0,0.0,0.0,0.0,0.0,0.0,0.0,0.0,0.0,0.0,0.0,0.0,0.0,0.0,0.0,0.0,0.0,0.0,0.0,0.0,0.0,0.0,0.0,6.3079,6.3079,6.3079,6.3079,6.3079,6.3079,6.3049,6.3019,6.3049,6.2421,6.1104,6.1104,6.0416,5.9099,5.9099,5.9099,5.9099,5.8991,5.8026,5.648,5.4859,5.3308,5.1741,5.0181,4.959,4.959,4.959,4.959,4.959,0.0,0.0,0.0,0.0,0.0,0.0,0.0,0.0,0.0,0.0,0.0,0.0,0.0,6.6812,6.6812,6.6812,6.6812,6.6812,6.6812,6.6812,6.6812,6.6812,6.6812,6.6812,6.6812,6.6812,6.6812,6.6812,6.6812,6.732,6.8335,6.8335,6.9147,7.0567,7.0026,6.9553,6.9045,6.8233,6.7624,6.7184,6.6914,6.6812,6.6812,6.6812,6.6812,0.0,0.0,0.0,0.0,0.0,0.0,0.0,0.0,0.0,0.0,0.0,0.0,0.0,0.0,0.0,0.0,0.0,0.0,0.0,0.0,0.0,0.0,0.0,0.0,0.0,0.0,0.0,0.0,0.0,0.0,0.0,0.0,0.0,0.0,0.0,0.0,0.0,0.0,0.0,0.0,0.0,0.0,6.3079,6.3079,6.3079,6.3079,6.3079,6.3079,6.3079,6.3079,6.3079,6.2421,6.1104,6.1104,6.0416,5.9099,5.9099,5.9099,5.9099,5.9099,5.8166,5.6593,5.4976,5.3429,5.1865,5.0181,4.959,4.959,4.959,4.959,4.959,0.0,0.0,0.0,0.0,0.0,0.0,0.0,0.0,0.0,0.0,0.0,0.0,0.0,0.0,6.6812,6.6812,6.6812,6.6812,6.6812,6.6812,6.6812,6.6812,6.6812,6.6812,6.6812,6.6576,6.6542,6.6812,6.6542,6.6948,6.7895,6.7895,6.8571,6.9823,6.9823,6.9823,6.9789,6.8741,6.803,6.7523,6.7015,6.6812,6.6846,0.0,0.0,0.0,0.0,0.0,0.0,0.0,0.0,0.0,0.0,0.0,0.0,0.0,0.0,0.0,0.0,0.0,0.0,0.0,0.0,0.0,0.0,0.0,0.0,0.0,0.0,0.0,0.0,0.0,0.0,0.0,0.0,0.0,0.0,0.0,0.0,0.0,0.0,0.0,0.0,0.0,0.0,0.0,0.0,0.0,6.3079,6.3079,6.3079,6.3079,6.3079,6.3079,6.3079,6.3079,6.2421,6.1104,6.1104,6.0416,5.9099,5.9099,5.9099,5.9099,5.9099,5.8495,5.744,5.5791,5.4268,5.27,5.1016,5.0078,4.959,4.959,4.959,4.959,0.0,0.0,0.0,0.0,0.0,0.0,0.0,0.0,0.0,6.6812,0.0,0.0,0.0,0.0,0.0,6.6812,6.6812,6.6812,6.6812,6.6812,6.6812,6.6812,6.6812,6.6812,6.6812,6.6102,6.6068,6.6812,6.6068,6.644,6.7861,6.7861,6.8301,6.9079,6.9079,6.9891,7.1142,6.9688,6.9045,6.891,0.0,6.6812,6.688,0.0,0.0,0.0,6.7624,6.7387,0.0,0.0,0.0,0.0,0.0,0.0,0.0,0.0,0.0,0.0,0.0,0.0,0.0,0.0,0.0,0.0,0.0,0.0,0.0,0.0,0.0,0.0,0.0,0.0,0.0,0.0,0.0,0.0,0.0,0.0,0.0,0.0,0.0,0.0,0.0,0.0,0.0,0.0,0.0,6.3079,6.3079,6.3079,6.3079,6.3079,6.3079,6.3079,6.3079,6.3079,6.2421,6.1104,6.1104,6.0416,5.9099,5.9099,5.9099,5.9099,5.9099,5.9099,5.8991,5.7328,5.5791,5.4268,5.27,5.1016,4.9719,4.959,4.959,4.959,0.0,0.0,0.0,0.0,0.0,0.0,6.6812,6.6812,6.6812,0.0,0.0,0.0,6.7557,6.759,6.7387,6.688,6.6812,6.6812,6.6812,6.6812,6.6812,6.6812,6.6812,6.6812,6.6812,6.6609,6.6609,6.6812,6.6609,6.6711,6.7117,6.7117,6.7523,6.8233,6.8233,6.8774,6.9654,6.8639,0.0,6.7421,6.6981,6.6812,0.0,0.0,0.0,0.0,0.0,6.6643,0.0,0.0,6.5189,6.4478,0.0,0.0,0.0,0.0,0.0,0.0,6.2381,0.0,0.0,0.0,0.0,0.0,0.0,0.0,0.0,0.0,0.0,0.0,0.0,0.0,0.0,0.0,0.0,0.0,0.0,0.0,0.0,0.0,0.0,0.0,0.0,0.0,0.0,0.0,6.3079,6.3079,6.3079,6.3079,6.3079,6.3079,6.3079,6.3079,6.3079,6.3079,6.2421,6.1104,6.1104,6.0416,5.9099,5.9099,5.9099,5.9099,5.9099,5.9099,5.8991,5.7328,5.648,5.5791,5.3039,5.1741,5.1142,5.0078,4.959,4.959,0.0,0.0,0.0,0.0,0.0,6.6812,6.6812,6.6812,6.6812,0.0,0.0,0.0,6.7827,6.7895,6.7726,6.732,6.6981,6.6812,6.6812,6.6812,6.6812,6.6812,6.6812,6.6812,6.6812,6.6508,6.6508,6.6812,6.6508,6.6508,6.6812,6.6812,6.7049,6.7455,6.7455,6.7692,6.8132,6.7658,0.0,0.0,6.7252,0.0,0.0,6.7624,6.7557,0.0,0.0,0.0,6.617,6.617,6.5662,0.0,0.0,0.0,0.0,0.0,0.0,0.0,6.2381,6.2381,0.0,0.0,0.0,0.0,6.345,6.3682,0.0,0.0,0.0,0.0,0.0,0.0,0.0,0.0,0.0,0.0,0.0,0.0,0.0,0.0,0.0,0.0,0.0,6.3079,6.3079,6.3079,6.3079,6.3079,6.3079,6.3079,6.3079,6.3079,6.3079,6.3079,6.3079,6.3079,6.2421,6.1104,6.1104,6.0416,5.9099,5.9099,5.9099,5.9099,5.9099,5.9099,5.8991,5.8026,5.7328,5.648,5.4713,5.3522,5.2944,5.1989,5.1168,5.0537,0.0,0.0,6.6812,6.6812,6.688,6.6948,6.6948,6.6948,6.6948,0.0,6.7015,6.7252,6.7726,6.7929,6.7963,6.7793,6.7184,6.6812,6.6812,6.6812,6.6812,6.6812,6.6812,6.6812,6.6812,6.617,6.6136,6.6812,6.6068,6.6068,6.6812,6.6745,6.6745,6.6812,6.6812,6.6812,6.6812,0.0,0.0,6.7793,6.7861,6.7895,0.0,0.0,6.8605,0.0,6.7895,6.7421,6.6812,6.6812,6.6305,0.0,0.0,0.0,0.0,0.0,6.2516,0.0,6.2516,6.2516,6.2685,0.0,0.0,0.0,6.4072,6.3517,6.3111,0.0,0.0,0.0,0.0,0.0,0.0,0.0,0.0,0.0,0.0,0.0,0.0,0.0,0.0,0.0,6.3079,6.3079,6.3079,6.3079,6.3079,6.3079,6.3079,6.3079,6.3079,6.3079,6.3079,6.3079,6.3079,6.3079,6.245,6.1224,6.1164,6.0446,5.9219,5.9129,5.9099,5.9099,5.9099,5.9099,5.9099,5.9099,5.8276,5.6962,5.6736,5.5907,5.4623,5.4505,5.3429,5.2209,0.0,0.0,6.6812,6.6812,6.7286,6.7692,6.7692,6.7692,6.7692,6.7692,6.8267,6.8233,6.7151,6.8132,6.8368,6.7117,6.688,6.6812,6.6812,6.6812,6.6812,6.6812,6.6812,6.6812,6.6812,6.6677,6.6677,6.6812,6.6068,6.6068,6.6812,6.6203,6.6237,6.6812,6.6812,6.6812,6.6812,0.0,0.0,6.7083,6.7658,0.0,6.7996,6.8808,6.8605,6.7895,6.7895,6.7421,6.6812,0.0,6.6305,6.5628,0.0,0.0,0.0,0.0,0.0,0.0,0.0,0.0,0.0,0.0,0.0,0.0,6.2888,6.31,6.3165,0.0,0.0,0.0,0.0,0.0,0.0,0.0,0.0,0.0,0.0,0.0,0.0,0.0,0.0,0.0,6.3079,6.3079,6.3079,6.3079,6.3079,6.3079,6.3079,6.3079,6.3079,6.3079,6.3079,6.3079,6.3079,6.3079,6.269,6.1912,6.1373,6.0685,5.9877,5.9338,5.9099,5.9099,5.9099,5.9099,5.9099,5.9099,5.8882,5.8495,5.7187,5.648,5.6137,5.4859,5.4149,5.379,0.0,6.6812,6.6812,6.6812,6.7421,6.7895,6.7895,6.7895,6.7895,6.7895,6.8233,6.8199,6.7455,6.803,6.8199,6.7421,6.7015,6.6812,6.6812,6.6812,6.6812,6.6812,6.6812,6.6812,6.6812,6.6812,6.6812,6.6812,6.644,6.644,6.6812,6.644,6.644,6.6812,6.6812,6.6812,6.6812,0.0,6.6812,6.688,6.759,0.0,6.7929,6.8335,6.8233,6.7861,6.7489,6.7117,6.6812,6.6812,6.6542,0.0,0.0,6.5425,6.4986,0.0,6.4072,6.4072,0.0,0.0,0.0,6.4072,0.0,0.0,0.0,6.3226,6.3337,6.2698,0.0,0.0,0.0,0.0,0.0,0.0,0.0,0.0,0.0,0.0,0.0,0.0,0.0,0.0,6.3079,6.3079,6.3079,6.3079,6.3079,6.3079,6.3079,6.3079,6.3079,6.3079,6.3079,6.3079,6.3079,6.3079,6.275,6.2091,6.1433,6.0745,6.0057,5.9398,5.9099,5.9099,5.9099,5.9099,5.9099,5.9099,5.9099,5.8991,5.8166,5.7915,5.7804,5.6991,5.628,5.5444,0.0,0.0,6.7078,6.7112,6.7557,6.7895,6.7895,6.7895,6.7861,6.7692,6.7793,6.7861,6.7692,6.7964,6.8132,6.7996,6.7584,6.7243,0.0,0.0,6.6894,6.6812,6.6677,6.6677,6.6812,6.6812,6.6812,6.6812,6.6677,6.6677,6.6812,6.6508,6.6542,6.6812,6.6677,6.6677,6.6812,0.0,0.0,6.7049,0.0,6.776,6.7929,6.8064,6.803,6.7793,6.7083,6.6812,6.6812,6.6812,0.0,6.6711,6.6102,6.5899,0.0,0.0,0.0,0.0,0.0,0.0,0.0,0.0,0.0,6.3869,0.0,0.0,0.0,6.3328,0.0,0.0,0.0,0.0,0.0,0.0,0.0,0.0,0.0,0.0,0.0,0.0,0.0,0.0,0.0,6.2989,6.3079,6.3079,6.3079,6.3079,6.3079,6.3079,6.3079,6.3079,6.3079,6.3079,6.3079,6.3079,6.281,6.2271,6.1613,6.1014,6.0446,5.9668,5.9368,5.9488,5.9338,5.9279,5.9279,5.9279,5.9219,5.9099,5.9099,5.9099,5.9099,5.9099,5.8276,5.7075,6.9208,6.8648,0.0,6.8137,6.8022,6.7895,6.7895,6.7895,6.7658,6.7015,6.7489,6.7658,0.0,0.0,0.0,0.0,0.0,0.0,6.8068,0.0,6.6975,6.6779,6.617,6.6136,6.6812,6.6812,6.6812,6.6812,6.6136,6.617,6.6779,6.5459,6.5561,6.6779,6.6102,0.0,0.0,0.0,6.7184,0.0,6.7151,6.732,0.0,6.8707,6.8504,6.7793,6.7083,6.6812,6.6812,0.0,6.6812,6.6812,0.0,6.6677,6.6542,0.0,0.0,0.0,0.0,0.0,0.0,0.0,6.5493,0.0,0.0,0.0,6.3328,6.2651,0.0,0.0,0.0,0.0,0.0,0.0,0.0,0.0,0.0,0.0,0.0,0.0,0.0,0.0,0.0,6.272,6.3079,6.3079,6.3079,6.3079,6.3079,6.3079,6.3079,6.3079,6.3079,6.3079,6.3079,6.3079,6.3049,6.2959,6.2301,6.1942,6.1822,6.0565,6.0296,6.0864,6.0236,5.9967,5.9967,5.9967,5.9638,5.9099,5.9099,5.9099,5.9099,5.9099,5.8991,5.8634,6.8922,6.8148,0.0,6.7467,6.735,6.7421,6.7827,6.7895,6.7658,6.6914,6.7083,6.732,0.0,0.0,0.0,0.0,0.0,0.0,0.0,0.0,6.7477,6.6779,6.6508,0.0,6.6812,6.6373,6.617,6.617,6.5425,6.5222,6.5527,6.5324,6.5561,6.617,6.6305,0.0,6.6812,0.0,0.0,0.0,0.0,0.0,0.0,6.7996,6.7557,6.7218,6.6914,6.6812,6.6812,0.0,6.6812,0.0,0.0,0.0,0.0,0.0,0.0,0.0,0.0,0.0,0.0,0.0,0.0,0.0,6.4918,0.0,6.4038,0.0,0.0,0.0,0.0,0.0,0.0,0.0,6.3637,0.0,0.0,0.0,0.0,0.0,0.0,0.0,0.0,0.0,0.0,0.0,6.2301,6.251,6.251,6.2869,6.3079,6.3079,6.3079,6.3079,6.3079,6.3079,6.3079,6.3079,6.2421,6.2091,6.2061,6.1104,6.0835,6.1074,6.0386,6.0086,6.0086,6.0086,5.9697,5.9129,5.9518,5.9428,5.9099,5.9099,5.9099,5.8991,6.854,0.0,0.0,0.0,6.6919,6.6738,6.7269,6.7286,6.7184,0.0,0.0,0.0,6.7827,6.8417,0.0,0.0,0.0,7.0476,0.0,0.0,6.8301,0.0,0.0,0.0,0.0,6.6234,6.5696,6.5696,6.4952,6.4715,6.4884,6.5019,6.5425,6.6,0.0,6.644,6.6812,0.0,0.0,6.8199,6.7658,6.7963,6.8639,6.7523,6.6981,6.6812,6.6812,6.6812,6.6812,6.6812,6.6812,0.0,6.6812,0.0,0.0,0.0,0.0,0.0,6.6812,0.0,0.0,0.0,0.0,0.0,0.0,0.0,0.0,0.0,0.0,0.0,0.0,0.0,0.0,0.0,0.0,6.3073,0.0,0.0,0.0,0.0,0.0,0.0,0.0,0.0,0.0,0.0,0.0,6.1912,6.2091,6.254,6.2899,6.3079,6.3079,6.3079,6.3079,6.3079,6.3079,6.3079,6.2421,6.2091,6.2061,6.1224,6.1044,6.1343,6.0655,6.0356,6.0356,6.0356,5.9877,5.9159,5.9638,5.9518,5.9099,5.9099,5.9099,5.9099,6.8739,6.8661,0.0,0.0,0.0,0.0,6.5793,0.0,0.0,0.0,0.0,0.0,0.0,0.0,0.0,0.0,0.0,7.4019,7.2286,0.0,6.9708,0.0,0.0,0.0,0.0,0.0,6.5696,6.5696,6.4952,6.4952,6.5628,6.4241,6.4715,6.6711,6.529,6.5459,6.688,6.7557,6.8335,6.9079,6.9045,6.8605,6.7929,0.0,6.7421,6.6812,6.6812,0.0,0.0,6.6812,6.6812,0.0,0.0,0.0,0.0,0.0,0.0,0.0,0.0,0.0,0.0,6.6812,0.0,0.0,0.0,0.0,6.5459,0.0,0.0,0.0,0.0,0.0,0.0,6.3666,0.0,0.0,0.0,0.0,0.0,0.0,0.0,0.0,0.0,0.0,0.0,0.0,0.0,0.0,6.2061,6.2121,6.2421,6.3049,6.3079,6.3079,6.3079,6.3079,6.3079,6.3079,6.2421,6.2091,6.2061,6.0715,6.0835,6.2032,6.1373,6.1074,6.1074,6.1074,6.0296,5.9099,5.9129,5.9129,5.9099,5.9099,5.9099,5.9099,0.0,0.0,0.0,0.0,0.0,0.0,0.0,6.6245,0.0,0.0,0.0,0.0,0.0,0.0,7.2761,0.0,0.0,7.4058,7.2424,7.1192,0.0,0.0,0.0,6.6971,0.0,0.0,6.5696,6.5696,6.4478,6.4241,6.4952,6.4478,6.4647,6.5358,0.0,6.6068,0.0,0.0,0.0,0.0,0.0,6.8944,6.8571,0.0,0.0,6.6812,6.6812,6.6812,0.0,6.6812,6.6812,6.6812,6.6812,6.6812,6.6812,6.6812,6.6812,0.0,0.0,0.0,6.7523,6.7523,0.0,0.0,0.0,0.0,0.0,0.0,0.0,0.0,0.0,0.0,0.0,6.4986,6.4749,6.4146,0.0,0.0,0.0,0.0,0.0,0.0,0.0,0.0,0.0,0.0,5.9279,0.0,0.0,6.1373,6.2181,6.2421,6.2839,6.3079,6.3079,6.3079,6.3079,6.3079,6.2839,6.275,6.272,6.1822,6.1672,6.2032,6.0924,6.0446,6.0446,6.0446,5.9907,5.9159,5.9578,5.9488,5.9099,5.9099,5.9099,5.9099,6.776,0.0,0.0,0.0,0.0,0.0,0.0,0.0,0.0,0.0,7.0159,0.0,7.2292,0.0,7.4082,0.0,7.5334,7.4747,7.2857,7.2466,0.0,7.0232,6.8927,0.0,0.0,0.0,0.0,6.6165,6.464,6.4275,6.4986,6.4715,6.4884,6.5425,0.0,6.6305,6.6203,0.0,6.8166,0.0,0.0,6.8673,0.0,0.0,6.6981,6.7151,0.0,6.6812,6.6812,6.6812,6.6812,6.6812,6.6812,6.6812,6.6812,6.6812,6.7015,6.7252,6.7455,6.7895,0.0,6.7963,6.8132,0.0,6.7354,0.0,0.0,0.0,0.0,0.0,0.0,0.0,0.0,6.5392,6.4918,6.4241,0.0,6.1699,0.0,0.0,0.0,0.0,0.0,0.0,0.0,5.7124,5.7902,5.859,0.0,0.0,6.1343,6.2061,6.251,6.2839,6.3079,6.2839,6.2839,6.3079,6.26,6.251,6.272,6.2061,6.1732,6.1702,6.0835,6.0326,6.0086,6.0086,5.9697,5.9129,5.9578,5.9488,5.9099,5.9099,5.9099,5.9099,0.0,0.0,0.0,0.0,6.636,0.0,0.0,0.0,6.9281,0.0,7.1055,7.173,7.3221,7.4221,7.506,7.5819,7.6728,0.0,7.3819,7.4302,0.0,0.0,7.1085,7.1052,7.1204,0.0,0.0,0.0,0.0,6.5019,6.573,6.4986,6.5392,6.6745,6.6034,0.0,6.6846,6.8402,6.8639,6.7996,6.7895,6.7895,6.7929,6.7117,6.7252,6.7793,6.7083,6.6812,6.6812,6.6812,6.6812,6.6812,6.6812,6.6812,6.6812,6.6812,6.732,6.7726,6.7083,6.7996,6.891,6.8166,0.0,0.0,0.0,0.0,6.7692,0.0,0.0,0.0,0.0,0.0,0.0,6.4884,6.458,6.4038,6.2584,0.0,0.0,0.0,0.0,0.0,0.0,0.0,5.7139,5.7109,5.7034,5.7603,0.0,0.0,6.0027,6.2002,6.2121,6.245,6.3079,6.245,6.245,6.3019,6.1762,6.1493,6.2061,6.1373,6.1074,6.1104,6.1044,6.0655,6.0027,6.0027,5.9668,5.9099,5.9099,5.9099,5.9099,5.9099,5.9099,5.9099,6.7834,6.7648,6.7782,0.0,6.7692,6.7275,0.0,0.0,0.0,0.0,7.3595,7.4925,7.5325,7.6136,7.6737,7.692,7.7181,0.0,0.0,0.0,0.0,7.3934,7.2538,7.2121,7.2864,7.03,0.0,6.889,0.0,0.0,6.6508,6.5764,6.5628,6.6,6.6373,0.0,6.6068,6.7557,6.8741,6.9451,6.776,6.8098,0.0,0.0,6.7252,6.7793,6.7083,6.6812,6.6812,6.6812,6.6812,6.6812,6.6812,6.6812,6.6812,6.6812,6.6948,6.7286,6.8267,6.8808,6.9045,6.8842,6.8944,6.8741,0.0,0.0,0.0,0.0,0.0,0.0,0.0,0.0,0.0,0.0,6.4512,0.0,0.0,0.0,0.0,6.2959,0.0,0.0,0.0,5.8581,5.7617,5.7064,5.6688,5.6765,5.7573,0.0,0.0,6.1343,6.2301,6.2899,6.3079,6.2899,6.266,6.2331,6.2002,6.1942,6.2061,6.0894,6.0625,6.1044,6.0057,5.9518,5.9368,5.9368,5.9249,5.9099,5.9099,5.9099,5.9099,5.9099,5.9099,5.9099,6.7834,0.0,0.0,6.8844,0.0,0.0,6.9589,0.0,0.0,7.3297,7.4653,0.0,7.6056,7.6827,7.7304,7.7304,7.7304,0.0,0.0,0.0,0.0,7.4296,7.4,7.3935,7.4097,7.1904,0.0,7.0138,0.0,0.0,6.6305,6.5865,6.5696,6.5696,6.6136,6.6271,6.6237,6.7083,6.8301,6.9553,6.759,6.776,0.0,6.7421,6.7083,6.7421,6.732,6.7286,6.7252,6.6914,6.7015,6.7218,6.6914,6.6812,6.6812,6.6812,6.7286,6.7929,6.8436,6.9316,6.9992,6.9654,6.9823,6.9688,6.8166,6.8368,6.8605,0.0,0.0,0.0,0.0,0.0,0.0,0.0,0.0,0.0,0.0,0.0,0.0,0.0,6.1966,0.0,0.0,5.8405,5.6874,5.7022,5.6252,5.6137,0.0,0.0,0.0,6.1074,6.1822,6.251,6.3079,6.278,6.26,6.251,6.1942,6.1822,6.2061,6.1014,6.0565,6.0625,5.9847,5.9368,5.9099,5.9099,5.9099,5.9099,5.9099,5.9099,5.9099,5.9099,5.9099,5.9099,0.0,0.0,0.0,0.0,0.0,0.0,0.0,7.2899,0.0,7.4882,0.0,7.5506,7.6166,7.69,7.7304,7.7304,0.0,7.6664,7.5152,7.6491,7.6335,7.4102,7.5432,7.5946,7.5249,7.3389,0.0,0.0,0.0,0.0,6.5696,6.5696,6.5696,6.5696,6.5797,0.0,0.0,6.6946,6.7794,6.9067,6.7607,6.7303,6.7827,6.7083,6.6812,6.6914,6.7658,6.7895,6.7827,6.7286,6.7523,6.7929,6.7184,6.6948,6.6948,6.6846,6.7827,6.8808,6.8233,6.9586,7.1007,7.0364,7.0669,7.0804,6.9417,6.9654,6.9789,6.8335,6.8199,6.8301,0.0,0.0,0.0,0.0,0.0,0.0,0.0,0.0,0.0,0.0,0.0,0.0,0.0,0.0,5.6085,5.7181,5.6017,5.5718,0.0,0.0,0.0,6.0775,6.1104,6.1762,6.281,0.0,6.2301,6.266,6.1523,6.1283,6.1822,6.1134,6.0565,6.0086,5.9997,5.9638,5.9099,5.9099,5.9099,5.9099,5.9099,5.9099,5.9099,5.9099,5.9099,5.9099,0.0,0.0,0.0,0.0,0.0,7.3707,7.4404,7.5028,7.5579,7.5836,7.6497,0.0,7.7084,7.7231,7.7304,7.7304,7.7304,0.0,0.0,0.0,0.0,7.6679,7.6949,7.7047,7.69,7.4514,7.2821,0.0,0.0,0.0,6.5696,6.5696,6.5696,6.573,6.6339,0.0,6.7911,6.7911,0.0,6.9256,6.829,6.7946,6.7827,6.7083,6.6812,6.6914,6.7658,6.7895,6.7996,6.8538,6.8774,6.8741,6.7963,6.7692,6.759,6.6981,6.7421,6.8233,6.8741,6.962,7.0364,7.0229,7.0297,7.0161,6.9316,6.9654,6.9925,6.9079,6.9857,7.0331,6.9113,0.0,0.0,0.0,0.0,0.0,0.0,0.0,0.0,0.0,0.0,6.2349,0.0,0.0,5.8268,5.8451,5.6445,5.5538,0.0,0.0,0.0,0.0,6.1074,0.0,0.0,0.0,6.1583,6.0595,6.0386,6.0326,6.0416,5.9757,5.9697,6.0057,5.9518,5.9219,5.9099,5.9099,5.9099,5.9099,5.9099,5.9099,5.9099,5.9099,5.9099,5.9099,0.0,0.0,0.0,0.0,0.0,0.0,0.0,7.6203,0.0,7.6166,7.646,7.668,7.668,7.7084,7.7304,7.7304,7.7304,7.7304,7.7304,7.7304,7.7304,7.7304,7.7304,0.0,7.7304,7.5687,7.3941,7.2082,0.0,0.0,6.5121,6.5121,6.5121,6.5155,6.6779,6.7787,0.0,0.0,0.0,7.0068,6.9262,6.8829,6.8563,6.7809,6.7209,6.6914,6.7658,6.8166,6.8571,6.8977,6.935,6.9553,6.8774,6.8504,6.8368,6.759,6.8199,6.9079,6.9113,6.9925,7.077,7.077,7.077,7.0567,6.9823,7.0229,7.0567,6.9823,7.0229,7.0263,6.8774,6.7861,0.0,0.0,0.0,0.0,0.0,0.0,0.0,0.0,0.0,0.0,0.0,0.0,0.0,0.0,0.0,0.0,0.0,0.0,0.0,0.0,0.0,0.0,0.0,0.0,0.0,6.0625,6.0266,6.0086,6.0057,5.9398,5.9279,5.9548,5.9249,5.9099,5.9099,5.9099,5.9099,5.9099,5.9099,5.9099,5.9099,5.9099,5.9099,5.9099,0.0,7.1248,0.0,0.0,7.4221,0.0,7.6019,7.679,7.7084,7.646,7.635,7.635,7.635,7.6937,7.7304,7.7304,7.7304,7.7304,7.7304,7.7304,7.7304,7.7304,7.7304,7.7304,7.7304,7.6533,7.4897,0.0,0.0,0.0,0.0,6.4898,6.5047,6.5459,0.0,0.0,0.0,0.0,7.0415,7.1055,7.0273,6.988,6.961,6.8578,6.7708,6.718,6.7709,6.8402,6.9113,6.9282,6.9722,7.0094,6.9519,6.9214,6.8977,6.8335,6.9113,7.006,6.9485,7.0297,7.1312,7.1312,7.1312,7.1142,7.0567,7.0872,7.1109,7.0331,7.0195,6.9722,6.8166,6.803,0.0,0.0,0.0,0.0,0.0,0.0,0.0,0.0,0.0,0.0,6.3599,0.0,0.0,0.0,0.0,0.0,0.0,0.0,0.0,0.0,0.0,6.0445,6.0685,0.0,6.0835,6.0685,6.0146,5.9877,5.9847,5.9338,5.9099,5.9099,5.9099,5.9099,5.9099,5.9099,5.9099,5.9099,5.9099,5.9099,5.9099,5.9099,5.9099,5.9099,0.0,0.0,0.0,0.0,0.0,0.0,0.0,7.679,7.7304,7.7231,7.7194,7.7194,7.7194,7.7268,7.7304,7.7304,7.7304,7.7304,7.7304,7.7304,7.7304,7.7304,7.7304,7.7304,7.7304,7.6533,7.5187,0.0,0.0,0.0,0.0,6.6016,6.6438,0.0,0.0,0.0,0.0,7.093,7.1398,7.2083,7.1254,7.0865,7.0517,6.8851,6.8146,6.8014,6.7928,6.8402,6.9214,6.9857,7.0128,7.0161,7.0094,6.962,6.9079,6.9011,6.9553,7.0161,7.0094,7.0703,7.1312,7.1312,7.1312,7.1312,7.121,7.1278,7.1109,7.0331,7.0195,6.9722,6.8166,6.8504,6.8504,0.0,0.0,0.0,0.0,0.0,0.0,0.0,0.0,0.0,0.0,6.2741,0.0,0.0,5.9434,0.0,0.0,0.0,0.0,5.7348,0.0,6.0272,5.9279,5.9877,5.9877,5.9308,5.9219,5.9189,5.9189,5.9129,5.9099,5.9099,5.9099,5.9099,5.9099,5.9099,5.9099,5.9099,5.9099,5.9099,5.9099,5.9099,5.9099,5.9099,0.0,0.0,0.0,0.0,0.0,0.0,0.0,7.7121,7.7304,7.7304,7.7304,7.7304,7.7304,7.7304,7.7304,7.7304,7.7304,7.7304,7.7304,7.7304,7.7304,7.7304,7.6864,7.6607,7.6607,7.5799,7.4555,0.0,0.0,0.0,0.0,0.0,0.0,0.0,0.0,7.0364,7.1159,7.1732,7.2389,7.3082,7.279,7.2545,7.2362,7.1658,7.0687,6.9644,6.9508,6.9612,6.9789,7.0094,7.0195,7.0195,7.0195,6.9992,6.9654,6.9214,6.9925,7.077,7.0297,7.0737,7.1312,7.1312,7.1312,7.1312,7.1312,7.1312,7.1244,7.0939,7.05,6.9992,6.9383,6.918,6.8741,0.0,0.0,0.0,0.0,0.0,0.0,0.0,0.0,0.0,0.0,0.0,0.0,0.0,0.0,0.0,0.0,0.0,0.0,5.9465,0.0,6.1927,6.1457,6.0917,6.0499,6.0255,5.9499,5.9099,5.9099,5.9099,5.9099,5.9099,5.9099,5.9099,5.9099,5.9099,5.9099,5.9099,5.9099,5.9099,5.9099,5.9099,5.9099,5.9099,7.5212,0.0,7.5506,0.0,7.646,7.6644,7.7231,7.7304,7.7304,7.7304,7.7304,7.7304,7.7304,7.7304,7.7304,7.7304,7.7304,7.7304,7.7304,7.7304,7.7304,7.7304,7.6533,0.0,7.6093,7.5322,7.4141,7.2708,7.1247,0.0,0.0,0.0,0.0,0.0,7.08,7.1223,7.1573,7.2226,7.3083,7.4001,7.3523,7.3593,7.3869,7.332,7.2086,7.0671,7.06,7.0443,7.0195,7.0195,7.0195,7.0229,7.0466,7.0364,7.0128,6.9857,7.05,7.121,7.0669,7.0906,7.1312,7.1312,7.1312,7.1312,7.1312,7.1312,7.1244,7.1041,7.0567,7.0128,6.9925,6.962,6.918,6.8368,0.0,0.0,0.0,0.0,0.0,0.0,6.5053,6.4309,6.3599,6.2821,0.0,0.0,0.0,0.0,0.0,0.0,0.0,0.0,0.0,0.0,0.0,6.1696,6.0989,6.0989,5.9683,5.9099,5.9099,5.9099,5.9099,5.9099,5.9099,5.9099,5.9099,5.9099,5.9099,5.9099,5.9099,5.9099,5.9099,5.9099,5.9099,5.9099,7.5946,7.6093,7.635,7.7157,7.7304,7.7304,7.7304,7.7304,7.7304,7.7304,7.7304,7.7304,7.7304,7.7304,7.7304,7.7304,7.7304,7.7304,7.7304,7.7304,7.7304,0.0,0.0,7.6093,7.6093,7.5322,7.4515,7.367,0.0,0.0,7.1059,0.0,7.016,7.1095,7.1059,7.1635,7.2496,7.2496,7.3413,7.4771,7.3156,7.3487,7.4689,7.2971,7.1717,7.0802,7.0628,7.0443,7.0195,7.0195,7.0195,7.0331,7.1075,7.0804,7.0331,7.1075,7.1312,7.1312,7.1312,7.1312,7.1312,7.1312,7.1312,7.1312,7.1312,7.1312,7.1109,7.0364,7.0195,6.9958,6.9248,6.9688,6.9925,6.9214,0.0,0.0,0.0,0.0,0.0,6.5764,6.5053,6.4309,6.3599,6.2821,0.0,0.0,0.0,0.0,0.0,0.0,0.0,6.0953,6.2795,0.0,6.3004,6.1696,6.0989,6.0989,5.9683,5.9099,5.9099,5.9099,5.9099,5.9099,5.9099,5.9099,5.9099,5.9099,5.9099,5.9099,5.9099,5.9099,5.9099,5.9099,5.9099,5.9099,7.69,7.6937,7.7011,7.7268,7.7304,7.7304,7.7304,7.7304,7.7304,7.7304,7.7304,7.7304,7.7304,7.7304,7.7304,0.0,7.7304,7.7304,0.0,7.7304,7.7304,7.7304,7.6533,7.5836,7.5285,7.4478,7.3707,7.2899,0.0,0.0,0.0,7.08,7.1159,7.2071,7.2071,7.2226,7.2496,7.2496,7.312,7.4037,7.3523,7.3964,7.4895,7.4872,7.424,7.34,7.3169,7.2614,7.185,7.1172,7.0973,7.1007,7.1244,7.0804,7.0229,7.0466,7.0906,7.1312,7.1312,7.1312,7.1312,7.1312,7.1312,7.1312,7.1312,7.1312,7.1244,7.1007,7.0534,7.0263,7.0567,7.0364,7.0094,6.9891,6.9214,0.0,0.0,0.0,0.0,6.5764,6.5493,6.5053,0.0,6.3599,0.0,0.0,0.0,0.0,0.0,0.0,0.0,0.0,6.4972,0.0,6.5559,6.4289,6.3227,6.239,6.102,5.997,5.9099,5.9099,5.9099,5.9099,5.9099,5.9099,5.9099,5.9099,5.9099,5.9099,5.9099,5.9099,5.9099,5.9099,5.9099,5.9099,7.7304,7.7304,7.7304,7.7304,7.7304,7.7304,7.7304,7.7304,7.7304,7.7304,7.7304,7.7304,7.7304,7.7304,0.0,7.7304,7.7304,7.7304,7.7304,7.7304,7.7304,7.7304,7.6533,7.5726,7.4918,7.4111,0.0,7.2496,7.1915,7.1635,7.1635,7.1635,7.1951,7.2496,7.2496,7.2496,7.2496,7.2496,7.2973,7.367,7.3377,7.3744,7.4515,7.4992,7.4506,7.3653,7.419,7.3483,7.2193,7.2004,7.16,7.1312,7.1312,7.0973,7.0601,7.0601,7.0939,7.1312,7.1312,7.1312,7.1312,7.1312,7.1312,7.1312,7.1312,7.1312,7.1312,7.1312,7.0939,7.0737,7.1244,7.0939,7.0601,7.0601,6.9755,6.891,6.8402,0.0,6.6643,0.0,0.0,0.0,0.0,6.4106,6.3531,0.0,0.0,0.0,0.0,0.0,0.0,6.4613,6.6034,0.0,6.6812,6.5559,6.4505,6.3638,6.1896,6.0328,5.9099,5.9099,5.9099,5.9099,5.9099,5.9099,5.9099,5.9099,5.9099,5.9099,5.9099,5.9099,5.9099,5.9099,5.9099,5.9099,7.7304,7.7304,7.7304,0.0,7.7304,0.0,7.7304,7.7304,7.7304,7.7304,7.7304,7.7304,7.7304,7.7304,7.7304,7.7304,0.0,0.0,0.0,7.7304,7.7304,7.7304,7.6607,7.5799,7.4918,7.4221,7.345,7.2679,7.2569,7.2532,7.2569,7.2532,7.2496,7.2496,7.2496,7.2496,7.2496,7.2496,7.2936,7.356,7.2789,7.2936,7.3597,7.367,7.3016,7.2227,7.3895,7.3223,7.1532,7.2429,7.2108,7.1312,7.1312,7.1312,7.1312,7.1312,7.1312,7.1312,7.1312,7.1312,7.1312,7.1312,7.1312,7.1312,7.1312,7.1312,7.1312,7.1312,7.1312,7.1312,7.1312,7.1312,7.1312,7.1312,7.006,6.9113,6.9113,6.7793,6.6812,0.0,0.0,0.0,0.0,6.4478,6.3666,0.0,0.0,0.0,0.0,0.0,6.4613,6.4681,6.6068,6.6812,6.6812,6.5646,6.4992,6.4869,6.226,6.0328,5.9207,5.9099,5.9099,5.9099,5.9099,5.9099,5.9099,5.9099,5.9099,5.9099,5.9099,5.9099,5.9099,5.9099,5.9099,5.9099,0.0,0.0,7.7304,7.7304,7.7304,7.7304,7.7304,7.7304,7.7304,7.7304,7.7304,7.7304,7.7304,7.7304,7.7304,7.7304,7.7304,7.7304,7.7304,7.7304,7.7304,7.7304,7.7121,7.635,7.4955,7.5322,7.5139,7.4331,7.312,7.2826,7.3377,7.2789,7.2496,7.2496,7.2496,7.2496,7.2496,7.2496,7.2606,7.2789,7.2569,7.2606,7.2863,7.345,7.3507,7.3297,7.3573,7.3262,7.2617,7.2094,7.1576,7.1312,7.1312,7.1312,7.1312,7.1312,7.1312,7.1312,7.1312,7.1312,7.1312,7.1312,7.1312,7.1312,7.1312,7.1312,7.1312,7.1312,7.1312,7.1312,7.1312,7.1312,7.1312,7.1312,7.006,6.9113,6.9113,6.7793,6.6812,0.0,6.6643,6.6542,6.6542,6.5696,6.5189,0.0,0.0,0.0,0.0,6.4512,6.485,6.5425,6.6339,6.6812,6.6812,6.6525,6.5855,6.4869,6.226,6.0815,6.0536,5.9576,5.9099,5.9099,5.9099,5.9099,5.9099,5.9099,5.9099,5.9099,5.9099,5.9099,5.9099,5.9099,5.9099,5.9099,7.7818,7.7598,7.7304,7.7304,7.7304,7.7304,7.7304,7.7304,7.7304,7.7304,7.7304,7.7304,7.7304,7.7304,7.7304,7.7304,7.7304,7.7304,7.7304,7.7304,7.7304,7.7304,7.7304,7.6717,7.5469,7.5542,7.4992,7.3817,7.3303,7.3083,7.3156,7.3083,7.2863,7.2496,7.2496,7.2496,7.2496,7.2496,7.2496,7.2496,7.2496,7.2496,7.2569,7.2973,7.3104,7.3104,7.3806,7.364,7.3063,7.2879,7.2485,7.1917,7.1457,7.1312,7.1312,7.1312,7.1312,7.1312,7.1312,7.1312,7.1312,7.1312,7.1312,7.1312,7.1312,7.1312,7.1312,7.1312,7.1312,7.1312,7.1312,7.1312,7.121,7.0838,6.9857,6.8977,6.8605,6.7557,0.0,6.6812,6.6812,6.6812,6.6812,6.6136,6.5696,6.5696,6.4647,0.0,6.5053,6.5087,6.529,6.5662,6.644,6.6812,6.6812,6.6812,6.6148,6.4869,6.3417,6.2456,6.1896,6.0536,5.997,5.997,5.9392,5.9099,5.9099,5.9099,5.9099,5.9099,5.9099,5.9099,5.9099,5.9099,5.9099,5.9099,7.8295,7.7928,7.7451,7.7341,7.7304,7.7304,7.7304,7.7304,7.7304,7.7304,7.7304,7.7304,7.7304,7.7304,7.7304,7.7304,7.7304,7.7304,7.7304,7.7304,7.7304,7.7304,7.7304,7.6937,7.613,7.5322,7.4294,7.3046,7.3487,7.334,7.2679,7.3266,7.3156,7.2496,7.2496,7.2496,7.2496,7.2496,7.2496,7.2496,7.2496,7.2496,7.2496,7.2496,7.2425,7.2653,7.4202,7.4138,7.3396,7.3921,7.3545,7.2666,7.16,7.1312,7.1312,7.1312,7.1312,7.1312,7.1312,7.1312,7.1312,7.1312,7.1312,7.1312,7.1312,7.1312,7.1312,7.1312,7.1312,7.1312,7.1312,7.1312,7.1075,7.0297,6.9586,6.8808,6.7996,0.0,6.6812,6.6812,6.6812,6.6812,6.6812,6.6237,6.5865,6.5865,6.5189,6.5087,6.5831,6.5764,6.573,6.5865,6.6474,6.6812,6.6812,6.6812,6.6235,6.5171,6.4959,6.4322,6.3259,6.1896,6.1294,6.1193,5.997,5.9392,5.9392,5.9207,5.9099,5.9099,5.9009,5.9009,5.9099,5.9009,5.9009,5.9099,7.7635,7.8002,7.8185,7.7451,7.7304,7.7304,7.7304,7.7304,7.7304,7.7304,7.7304,7.7304,7.7304,7.7304,7.7304,7.7304,7.7304,7.7304,7.7304,7.7304,7.7304,7.7304,7.7304,7.6937,7.613,7.5322,7.5139,7.5542,7.4294,7.3634,7.3487,7.2936,7.2606,7.2496,7.2496,7.2496,7.2496,7.2496,7.2496,7.2496,7.2496,7.2496,7.2496,7.2496,7.2915,7.3493,7.3758,7.4124,7.429,7.3505,7.3089,7.2666,7.16,7.1312,7.1312,7.1312,7.1312,7.1312,7.1312,7.1312,7.1312,7.1312,7.1312,7.1312,7.1312,7.1312,7.1312,7.1312,7.1312,7.1312,7.1312,7.1312,7.1075,7.0297,6.9586,6.8808,6.7996,0.0,6.6812,6.6812,6.6812,6.6812,6.6812,6.6711,6.6643,6.6643,6.5933,6.5831,6.6609,6.6034,6.5967,6.6609,6.6745,6.6812,6.6812,6.6812,6.6728,6.6525,6.5437,6.4778,6.4597,6.3259,6.2682,6.2585,6.1294,6.0712,6.0609,5.9576,5.9099,5.9039,5.8501,5.862,5.9039,5.8471,5.862,5.9039,7.8075,7.7965,7.7781,7.7378,7.7304,7.7304,7.7304,7.7304,7.7304,7.7304,7.7304,7.7304,7.7304,7.7304,7.7304,7.7304,7.7304,7.7304,7.7304,7.7304,7.7304,7.7304,7.7304,7.6937,7.613,7.5726,7.5542,7.5469,7.5139,7.4551,7.3707,7.378,7.334,7.2496,7.2496,7.2496,7.2496,7.2496,7.2496,7.2496,7.2496,7.2496,7.2496,7.2496,7.2716,7.3156,7.4037,7.4531,7.466,7.3938,7.3723,7.3332,7.1776,7.1312,7.1312,7.1312,7.1312,7.1312,7.1312,7.1312,7.1312,7.1312,7.1312,7.1312,7.1312,7.1312,7.1312,7.1312,7.1312,7.1312,7.1312,7.1312,7.0939,6.9789,6.9316,0.0,0.0,6.7015,6.6812,6.6812,6.6812,6.6812,6.6812,6.6812,6.6812,6.6812,6.6474,6.644,6.6779,6.6474,6.644,6.6812,6.6812,6.6812,6.6812,6.6812,6.6812,6.6812,6.6235,6.5942,6.5855,6.4597,6.3638,6.3004,6.239,6.1325,5.994,6.0045,5.9683,5.9069,5.877,5.883,5.9069,5.877,5.862,5.853,7.8919,7.8332,7.7818,7.7635,7.7451,7.7304,7.7304,7.7304,7.7304,7.7304,7.7304,7.7304,7.7304,7.7304,7.7304,7.7304,7.7304,7.7304,7.7304,7.7304,7.7304,7.7304,7.7304,7.7011,7.6387,7.6387,7.5983,7.5175,7.5799,7.5359,7.4001,7.4441,7.3964,7.2789,7.2569,7.2496,7.2496,7.2496,7.2496,7.2496,7.2496,7.2496,7.2532,7.2716,7.2899,7.323,7.4661,7.5322,7.5373,7.4583,7.431,7.3963,7.1917,7.1312,7.1312,7.1312,7.1312,7.1312,7.1312,7.1312,7.1312,7.1312,7.1312,7.1312,7.1312,7.1312,7.1312,7.1312,7.1312,7.1312,7.1312,7.1312,7.0872,6.9586,0.0,0.0,0.0,6.7083,6.7015,6.6846,6.6948,6.7015,6.6846,6.6812,6.6812,6.6812,6.6812,6.6812,6.6812,6.6812,6.6812,6.6812,6.6812,6.6812,6.6812,6.6812,6.6812,6.6812,6.6812,6.6812,6.6728,6.5767,6.4811,6.3858,6.3576,6.2291,6.0463,6.0815,6.0432,5.9469,5.9027,5.8979,5.9069,5.8919,5.856,5.8112,7.9837,7.9653,7.936,7.8626,7.7855,7.7304,7.7304,7.7304,7.7304,7.7304,7.7304,7.7304,7.7304,7.7304,7.7304,7.7304,7.7304,7.7304,7.7304,7.7304,7.7304,7.7304,7.7304,7.7304,7.7231,7.7231,7.6827,7.6019,7.6056,7.5652,7.4808,7.4111,7.3707,7.356,7.2826,7.2496,7.2496,7.2496,7.2496,7.2496,7.2496,7.2496,7.2569,7.334,7.4074,7.4845,7.5689,7.6497,7.6873,7.4976,7.431,7.3963,7.1917,7.1312,7.1312,7.1312,7.1312,7.1312,7.1312,7.1312,7.1312,7.1312,7.1312,7.1312,7.1312,7.1312,7.1312,7.1312,7.1312,7.1312,7.1312,7.1312,7.1041,7.0229,0.0,0.0,6.7929,6.7827,6.7557,6.688,6.7421,6.7557,6.688,6.6812,6.6812,6.6812,6.6812,6.6812,6.6812,6.6812,6.6812,6.6812,6.6812,6.6812,6.6812,6.6812,6.6812,6.6812,6.6812,6.6812,6.6812,6.6728,6.661,6.644,6.526,6.4688,6.4289,6.1964,6.0887,6.065,5.8912,5.856,5.9039,5.8411,5.8171,5.8022,7.9286,7.9066,7.8772,7.7965,7.7524,7.7304,7.7304,7.7304,7.7304,7.7304,7.7304,7.7304,7.7304,7.7304,7.7304,7.7304,7.7304,7.7304,7.7304,7.7304,7.7304,7.7304,7.7304,7.7304,7.7304,7.7304,7.7157,7.6864,7.6864,7.6423,7.5652,7.5322,7.4661,7.367,7.3377,7.2973,7.2496,7.2496,7.2496,7.2496,7.2496,7.2496,7.2606,7.3377,7.3891,7.4331,7.5616,7.6313,7.6423,7.5505,7.5192,7.4903,7.288,7.2193,7.2142,7.1457,7.1312,7.1312,7.1312,7.1312,7.1312,7.1312,7.1312,7.1312,7.1312,7.1312,7.1312,7.1312,7.1312,7.1312,7.1312,7.1312,7.1075,7.0297,0.0,6.8808,6.7996,6.7895,6.7624,6.6914,6.7455,6.7624,6.688,6.6812,6.6812,6.6812,6.6812,6.6812,6.6812,6.6812,6.6812,6.6812,6.6812,6.6812,6.6812,6.6812,6.6812,6.6812,6.6812,6.6812,6.6779,6.6339,6.5648,6.4947,6.4771,6.3814,6.2312,6.2128,6.1853,6.1365,5.9849,5.9643,6.0119,5.9121,5.8201,5.7453,7.925,7.8772,7.8405,7.7818,7.7488,7.7304,7.7304,7.7304,7.7304,7.7304,7.7304,7.7304,7.7304,7.7304,7.7304,7.7304,7.7304,7.7304,7.7304,7.7304,7.7304,7.7304,7.7304,7.7304,7.7304,7.7304,7.7304,7.7304,7.7304,7.69,7.6093,7.5836,7.5139,7.4037,7.356,7.3303,7.323,7.2716,7.2642,7.2863,7.2606,7.2642,7.2973,7.378,7.4221,7.4625,7.5983,7.6497,7.6411,7.5913,7.5787,7.544,7.3412,7.2582,7.2193,7.1546,7.1312,7.1312,7.1312,7.1312,7.1312,7.1312,7.1312,7.1312,7.1312,7.1312,7.1312,7.1312,7.1312,7.1312,7.1312,7.1312,7.1142,7.0635,6.9925,6.9248,6.8707,6.8605,6.8335,6.7624,6.7963,6.7996,6.7218,6.6948,6.6812,6.6812,6.6812,6.6812,6.6812,6.6812,6.6812,6.6812,6.6812,6.6812,6.6812,6.6812,6.6677,6.644,6.644,6.6339,6.6102,6.5595,6.4875,6.4128,6.4454,6.3566,6.1988,6.2727,6.2852,6.2357,6.0814,6.0586,6.0815,5.9576,5.8261,5.7094,7.9947,7.914,7.8589,7.8589,7.7892,7.7304,7.7304,7.7304,7.7304,7.7304,7.7304,7.7304,7.7304,7.7304,7.7304,7.7304,7.7304,7.7304,7.7304,7.7304,7.7304,7.7304,7.7304,7.7304,7.7304,7.7304,7.7304,7.7304,7.7304,7.69,7.6093,7.5285,7.4918,7.4845,7.323,7.3413,7.4808,7.3193,7.2973,7.3597,7.2826,7.2973,7.378,7.4588,7.5432,7.6203,7.7011,7.7304,7.7181,7.6197,7.5787,7.544,7.3492,7.2142,7.1312,7.1312,7.1312,7.1312,7.1312,7.1312,7.1312,7.1312,7.1312,7.1312,7.1312,7.1312,7.1312,7.1312,7.1312,7.1312,7.1312,7.1312,7.1312,7.1312,7.0669,7.0195,7.0195,7.0195,6.9925,6.918,6.9113,6.8808,6.7996,6.7252,6.6812,6.6812,6.6812,6.6812,6.6812,6.6812,6.6812,6.6812,6.6812,6.6812,6.6812,6.6812,6.644,6.5696,6.5662,6.529,6.4613,6.458,6.458,6.458,6.458,6.458,6.4532,6.3989,6.3814,6.3612,6.1779,6.0989,6.0918,5.9576,5.8261,5.7094,7.9947,7.914,7.8405,7.7818,7.7488,7.7304,7.7304,7.7304,7.7304,7.7304,7.7304,7.7304,7.7304,7.7304,7.7304,7.7304,7.7304,7.7304,7.7304,7.7304,7.7304,7.7304,7.7304,7.7304,7.7304,7.7304,7.7304,7.7304,7.7304,7.69,7.6093,7.646,7.5689,7.4074,7.4147,7.3817,7.3193,7.2716,7.2642,7.2899,7.3193,7.3487,7.3854,7.5212,7.5909,7.6203,7.7011,7.7304,7.7243,7.6956,7.6856,7.6498,7.446,7.3171,7.2193,7.1546,7.1312,7.1312,7.1312,7.1312,7.1312,7.1312,7.1312,7.1312,7.1312,7.1312,7.1312,7.1312,7.1312,7.1312,7.1312,7.1312,7.1312,7.1312,7.0669,7.0195,7.0195,7.0195,6.9925,6.918,6.9553,6.935,6.803,6.7692,6.7354,6.6846,6.6812,6.6812,6.6812,6.6812,6.6812,6.6812,6.6812,6.6812,6.6812,6.6305,6.5899,6.5662,6.5155,6.4816,6.458,6.4072,6.3835,6.3802,6.3294,6.3057,6.3091,6.3396,6.3918,6.4254,6.3367,6.2715,6.2193,6.0918,5.8984,5.7094,7.947,7.8662,7.7928,7.7414,7.7304,7.7304,7.7304,7.7304,7.7304,7.7304,7.7304,7.7304,7.7304,7.7304,7.7304,7.7304,7.7304,7.7304,7.7304,7.7304,7.7304,7.7304,7.7304,7.7304,7.7304,7.7304,7.7304,7.7304,7.7304,7.6754,7.5652,7.613,7.5395,7.3707,7.3891,7.3964,7.3891,7.323,7.334,7.3927,7.4111,7.4368,7.4771,7.5726,7.6313,7.6644,7.7157,7.7304,7.7304,7.7304,7.7019,7.6396,7.483,7.365,7.2582,7.1634,7.1312,7.1312,7.1312,7.1312,7.1312,7.1312,7.1312,7.1312,7.1312,7.1312,7.1312,7.1312,7.1312,7.1312,7.1312,7.1312,7.1312,7.1312,7.0939,7.0635,7.0635,7.0635,7.0466,7.0026,7.0094,6.9823,6.891,6.8267,6.759,6.688,6.6812,6.6812,6.6812,6.6812,6.6812,6.6812,6.6812,6.6812,6.6812,6.5797,6.5256,6.5256,6.4512,6.4005,6.37,6.326,6.3057,6.3057,6.2584,6.2381,6.2448,6.3193,6.3768,6.4045,6.3035,6.2442,6.195,6.0113,5.8274,5.6735,7.8772,7.7965,7.7414,7.7341,7.7304,7.7304,7.7304,7.7304,7.7304,7.7304,7.7304,7.7304,7.7304,7.7304,7.7304,7.7304,7.7304,7.7304,7.7304,7.7304,7.7304,7.7304,7.7304,7.7304,7.7304,7.7304,7.7304,7.7304,7.7304,7.6497,7.4918,7.5065,7.4625,7.367,7.301,7.3927,7.5909,7.4331,7.4588,7.5946,7.5285,7.5469,7.6093,7.6166,7.668,7.7304,7.7304,7.7304,7.7304,7.7304,7.6728,7.5718,7.4757,7.3694,7.2749,7.1776,7.1401,7.1312,7.1312,7.1312,7.1312,7.1312,7.1312,7.1312,7.1312,7.1312,7.1312,7.1312,7.1312,7.1312,7.1312,7.1312,7.1312,7.1312,7.1312,7.1312,7.1312,7.1312,7.1312,7.1312,7.0703,7.0263,7.0195,6.8808,6.759,6.688,6.6812,6.6812,6.6812,6.6812,6.6812,6.6812,6.6812,6.6812,6.6812,6.5392,6.4681,6.458,6.3802,6.3057,6.2381,6.2381,6.2381,6.2381,6.2381,6.2381,6.2448,6.3193,6.3531,6.3323,6.1816,6.1078,6.058,5.8338,5.6882,5.6166,7.8772,7.8442,7.8112,7.7451,7.7304,7.7304,7.7304,7.7304,7.7304,7.7304,7.7304,7.7304,7.7304,7.7304,7.7304,7.7304,7.7304,7.7304,7.7304,7.7304,7.7304,7.7304,7.7304,7.7304,7.7304,7.7304,7.7304,7.7304,7.7304,7.6497,7.4955,7.6203,7.5689,7.3707,7.4184,7.4698,7.5102,7.4111,7.4258,7.5212,7.5652,7.5946,7.6166,7.6827,7.7157,7.7304,7.7304,7.7304,7.7304,7.7304,7.7181,7.6793,7.5787,7.4757,7.3807,7.2797,7.1917,7.1312,7.1312,7.1312,7.1312,7.1312,7.1312,7.1312,7.1312,7.1312,7.1312,7.1312,7.1312,7.1312,7.1312,7.1312,7.1312,7.1312,7.1312,7.1312,7.1312,7.1312,7.1312,7.1312,7.1176,7.0838,7.0263,6.8808,6.759,6.688,6.6812,6.6812,6.6812,6.6812,6.6812,6.6812,6.6812,6.6812,6.6812,6.5899,6.5155,6.458,6.326,6.255,6.2381,6.2381,6.2381,6.2381,6.2381,6.2381,6.2448,6.3193,6.3531,6.3518,6.375,6.264,6.086,6.0297,5.8406,5.6107,7.9323,7.9176,7.8919,7.8075,7.7928,7.7781,7.7378,7.7304,7.7304,7.7304,7.7304,7.7304,7.7304,7.7304,7.7304,7.7304,7.7304,7.7304,7.7304,7.7304,7.7304,7.7304,7.7304,7.7304,7.7304,7.7304,7.7304,7.7304,7.7304,7.668,7.5506,7.635,7.5873,7.4258,7.4294,7.4771,7.5432,7.4625,7.4955,7.6093,7.6497,7.668,7.6717,7.7157,7.7304,7.7304,7.7304,7.7304,7.7304,7.7304,7.7304,7.7082,7.6094,7.512,7.4082,7.3125,7.2056,7.1312,7.1312,7.1312,7.1312,7.1312,7.1312,7.1312,7.1312,7.1312,7.1312,7.1312,7.1312,7.1312,7.1312,7.1312,7.1312,7.1312,7.1312,7.1312,7.1312,7.1312,7.1312,7.1312,7.1007,7.0331,6.9214,6.8368,6.759,6.688,6.6812,6.6812,6.6812,6.6812,6.6812,6.6812,6.6812,6.6812,6.6812,6.6068,6.5493,6.5121,6.3632,6.2753,6.2381,6.2381,6.2381,6.2381,6.2381,6.2381,6.2415,6.2821,6.299,6.2944,6.2762,6.191,6.0712,6.0083,5.8467,5.6473,7.9727,7.958,7.9323,7.8516,7.8369,7.8148,7.7414,7.7304,7.7304,7.7304,7.7304,7.7304,7.7304,7.7304,7.7304,7.7304,7.7304,7.7304,7.7304,7.7304,7.7304,7.7304,7.7304,7.7304,7.7304,7.7304,7.7304,7.7304,7.7304,7.69,7.6093,7.624,7.5873,7.5102,7.4404,7.4918,7.624,7.5469,7.5983,7.7304,7.7304,7.7304,7.7304,7.7304,7.7304,7.7304,7.7304,7.7304,7.7304,7.7304,7.7304,7.7181,7.633,7.5369,7.4385,7.3332,7.2364,7.1546,7.1312,7.1312,7.1312,7.1312,7.1312,7.1312,7.1312,7.1312,7.1312,7.1312,7.1312,7.1312,7.1312,7.1312,7.1312,7.1312,7.1312,7.1312,7.1312,7.1312,7.1312,7.1312,7.0635,6.9586,6.803,6.7895,6.759,6.688,6.6812,6.6812,6.6812,6.6812,6.6812,6.6812,6.6812,6.6812,6.6812,6.6203,6.5797,6.5662,6.4478,6.3429,6.2584,6.2448,6.2381,6.2381,6.2381,6.2381,6.2381,6.2381,6.2381,6.2302,6.1317,6.0787,6.0417,5.9258,5.8085,5.6896,7.8919,7.8772,7.8479,7.7635,7.7488,7.7451,7.7341,7.7304,7.7304,7.7304,7.7304,7.7304,7.7304,7.7304,7.7304,7.7304,7.7304,7.7304,7.7304,7.7304,7.7304,7.7304,7.7304,7.7304,7.7304,7.7304,7.7304,7.7304,7.7304,7.69,7.613,7.6827,7.6717,7.5946,7.5836,7.6276,7.7084,7.6276,7.646,7.7304,7.7304,7.7304,7.7304,7.7304,7.7304,7.7304,7.7304,7.7304,7.7304,7.7304,7.7304,7.7243,7.7181,7.6396,7.544,7.4385,7.3412,7.2448,7.1546,7.1312,7.1312,7.1312,7.1312,7.1312,7.1312,7.1312,7.1312,7.1312,7.1312,7.1312,7.1312,7.1312,7.1312,7.1312,7.1312,7.1312,7.1312,7.1312,7.1312,7.1312,7.0635,6.9586,6.803,6.7895,6.759,6.688,6.6812,6.6812,6.6812,6.6812,6.6812,6.6812,6.6812,6.6812,6.6812,6.6711,6.6339,6.5696,6.5493,6.4681,6.3328,6.2685,6.2381,6.2381,6.2381,6.2381,6.2381,6.2381,6.2381,6.2381,6.2223,6.148,6.0417,5.9258,5.8085,5.6991,7.9433,7.925,7.8993,7.8185,7.8038,7.7855,7.7378,7.7304,7.7304,7.7304,7.7304,7.7304,7.7304,7.7304,7.7304,7.7304,7.7304,7.7304,7.7304,7.7304,7.7304,7.7304,7.7304,7.7304,7.7304,7.7304,7.7304,7.7304,7.7304,7.7121,7.679,7.7157,7.7121,7.6754,7.6313,7.657,7.7268,7.646,7.657,7.7304,7.7304,7.7304,7.7304,7.7304,7.7304,7.7304,7.7304,7.7304,7.7304,7.7304,7.7304,7.7304,7.7304,7.6628,7.558,7.461,7.3571,7.2582,7.1512,7.1312,7.1312,7.1312,7.1312,7.1312,7.1312,7.1312,7.1312,7.1312,7.1312,7.1312,7.1312,7.1312,7.1312,7.1312,7.1312,7.1312,7.1312,7.1312,7.1142,7.0737,7.0026,6.9147,6.7996,6.7523,6.7151,6.6846,6.6812,6.6812,6.6812,6.6812,6.6812,6.6812,6.6812,6.6812,6.6812,6.6812,6.6643,6.6305,6.5899,6.5121,6.4106,6.3362,6.3024,6.299,6.2584,6.2381,6.2381,6.2381,6.2381,6.2381,6.2381,6.211,6.148,6.0247,5.9081,5.79]},{"header":{"parameterUnit":"m.s-1","parameterCategory":1,"la1":30.6,"la2":28.766,"lo1":-90.7593,"lo2":-88.6598,"dy":0.0162,"dx":0.0183,"nx":116,"ny":114,"refTime":"2023-04-13T12:00:00:Z","depth":0,"parameterNumber":3,"parameterNumberName":"V-component_of_WINDS"},"data":[0.0,0.0,0.0,0.0,0.0,0.0,0.0,0.0,0.0,0.0,0.0,0.0,0.0,0.0,0.0,0.0,0.0,0.0,0.0,0.0,0.0,0.0,0.0,0.0,0.0,0.0,0.0,0.0,0.0,0.0,0.0,0.0,0.0,0.0,0.0,0.0,0.0,0.0,0.0,0.0,0.0,0.0,0.0,0.0,0.0,0.0,0.0,0.0,0.0,0.0,0.0,0.0,0.0,0.0,0.0,0.0,0.0,0.0,0.0,0.0,0.0,0.0,0.0,0.0,0.0,0.0,0.0,0.0,0.0,0.0,0.0,0.0,0.0,0.0,0.0,0.0,0.0,0.0,0.0,0.0,0.0,0.0,0.0,0.0,0.0,0.0,0.0,0.0,0.0,0.0,0.0,0.0,0.0,0.0,0.0,0.0,0.0,0.0,0.0,0.0,0.0,0.0,0.0,0.0,0.0,0.0,0.0,0.0,0.0,0.0,0.0,0.0,0.0,0.0,0.0,0.0,0.0,0.0,0.0,0.0,0.0,0.0,0.0,0.0,0.0,0.0,0.0,0.0,0.0,0.0,0.0,0.0,0.0,0.0,0.0,0.0,0.0,0.0,0.0,0.0,0.0,0.0,0.0,0.0,0.0,0.0,0.0,0.0,0.0,0.0,0.0,0.0,0.0,0.0,0.0,0.0,0.0,0.0,0.0,0.0,0.0,0.0,0.0,0.0,0.0,0.0,0.0,0.0,0.0,0.0,0.0,0.0,0.0,0.0,0.0,0.0,0.0,0.0,0.0,0.0,0.0,0.0,0.0,0.0,0.0,0.0,0.0,0.0,0.0,0.0,0.0,0.0,0.0,0.0,0.0,0.0,0.0,0.0,0.0,0.0,0.0,0.0,0.0,0.0,0.0,0.0,0.0,0.0,0.0,0.0,0.0,0.0,0.0,0.0,0.0,0.0,0.0,0.0,0.0,0.0,0.0,0.0,0.0,0.0,0.0,0.0,0.0,0.0,0.0,0.0,0.0,0.0,0.0,0.0,0.0,0.0,0.0,0.0,0.0,0.0,0.0,0.0,0.0,0.0,0.0,0.0,0.0,0.0,0.0,0.0,0.0,0.0,0.0,0.0,0.0,0.0,0.0,0.0,0.0,0.0,0.0,0.0,0.0,0.0,0.0,0.0,0.0,0.0,0.0,0.0,0.0,0.0,0.0,0.0,0.0,0.0,0.0,0.0,0.0,0.0,0.0,0.0,0.0,0.0,0.0,0.0,0.0,0.0,0.0,0.0,0.0,0.0,0.0,0.0,0.0,0.0,0.0,0.0,0.0,0.0,0.0,0.0,0.0,0.0,0.0,0.0,0.0,0.0,0.0,0.0,0.0,0.0,0.0,0.0,0.0,0.0,0.0,0.0,0.0,0.0,0.0,0.0,0.0,0.0,0.0,0.0,0.0,0.0,0.0,0.0,0.0,0.0,0.0,0.0,0.0,0.0,0.0,0.0,0.0,0.0,0.0,0.0,0.0,0.0,0.0,0.0,0.0,0.0,0.0,0.0,0.0,0.0,0.0,0.0,0.0,0.0,0.0,0.0,0.0,0.0,0.0,0.0,0.0,0.0,0.0,0.0,0.0,0.0,0.0,0.0,0.0,0.0,0.0,0.0,0.0,0.0,0.0,0.0,0.0,0.0,0.0,0.0,0.0,0.0,0.0,0.0,0.0,0.0,0.0,0.0,0.0,0.0,0.0,0.0,0.0,0.0,0.0,0.0,0.0,0.0,0.0,0.0,0.0,0.0,0.0,0.0,0.0,0.0,0.0,0.0,0.0,0.0,0.0,0.0,0.0,0.0,0.0,0.0,0.0,0.0,0.0,0.0,0.0,0.0,0.0,0.0,0.0,0.0,0.0,0.0,0.0,0.0,0.0,0.0,0.0,0.0,0.0,0.0,0.0,0.0,0.0,0.0,0.0,0.0,0.0,0.0,0.0,0.0,0.0,0.0,0.0,0.0,0.0,0.0,0.0,0.0,0.0,0.0,0.0,0.0,0.0,0.0,0.0,0.0,0.0,0.0,0.0,0.0,0.0,0.0,0.0,0.0,0.0,0.0,0.0,0.0,0.0,0.0,0.0,0.0,0.0,0.0,0.0,0.0,0.0,0.0,0.0,0.0,0.0,0.0,0.0,0.0,0.0,0.0,0.0,0.0,0.0,0.0,0.0,0.0,0.0,0.0,0.0,0.0,0.0,0.0,0.0,0.0,0.0,0.0,0.0,0.0,0.0,0.0,0.0,0.0,0.0,0.0,0.0,0.0,0.0,0.0,0.0,0.0,0.0,0.0,0.0,0.0,0.0,0.0,0.0,0.0,0.0,0.0,0.0,0.0,0.0,0.0,0.0,0.0,0.0,0.0,0.0,0.0,0.0,0.0,0.0,0.0,0.0,0.0,0.0,0.0,0.0,0.0,0.0,0.0,0.0,0.0,0.0,0.0,0.0,0.0,0.0,0.0,0.0,0.0,0.0,0.0,0.0,0.0,0.0,0.0,0.0,0.0,0.0,0.0,0.0,0.0,0.0,0.0,0.0,0.0,0.0,0.0,0.0,0.0,0.0,0.0,0.0,0.0,0.0,0.0,0.0,0.0,0.0,0.0,0.0,0.0,0.0,0.0,0.0,0.0,0.0,0.0,0.0,0.0,0.0,0.0,0.0,0.0,0.0,0.0,0.0,0.0,0.0,0.0,0.0,0.0,0.0,0.0,0.0,0.0,0.0,0.0,0.0,0.0,0.0,0.0,0.0,0.0,0.0,0.0,0.0,0.0,0.0,0.0,0.0,0.0,0.0,0.0,0.0,0.0,0.0,0.0,0.0,0.0,0.0,0.0,0.0,0.0,0.0,0.0,0.0,0.0,0.0,0.0,0.0,0.0,0.0,0.0,0.0,0.0,0.0,0.0,0.0,0.0,0.0,0.0,0.0,0.0,0.0,0.0,0.0,0.0,0.0,0.0,0.0,0.0,0.0,0.0,0.0,0.0,0.0,0.0,0.0,0.0,0.0,0.0,0.0,0.0,0.0,0.0,0.0,0.0,0.0,0.0,0.0,0.0,0.0,0.0,0.0,0.0,0.0,0.0,0.0,0.0,0.0,0.0,0.0,0.0,0.0,0.0,0.0,0.0,0.0,0.0,0.0,0.0,0.0,0.0,0.0,0.0,0.0,0.0,0.0,0.0,0.0,0.0,0.0,0.0,0.0,0.0,0.0,0.0,0.0,0.0,0.0,0.0,0.0,0.0,0.0,0.0,0.0,0.0,0.0,0.0,0.0,0.0,0.0,0.0,0.0,0.0,0.0,0.0,0.0,0.0,0.0,0.0,0.0,0.0,0.0,0.0,0.0,0.0,0.0,0.0,0.0,0.0,0.0,0.0,0.0,0.0,0.0,0.0,0.0,0.0,0.0,0.0,0.0,0.0,0.0,0.0,0.0,0.0,0.0,0.0,0.0,0.0,0.0,0.0,0.0,0.0,0.0,0.0,0.0,0.0,0.0,0.0,0.0,0.0,0.0,0.0,0.0,0.0,0.0,0.0,0.0,0.0,0.0,0.0,0.0,0.0,0.0,0.0,0.0,0.0,0.0,0.0,0.0,0.0,0.0,0.0,0.0,0.0,0.0,0.0,0.0,0.0,0.0,0.0,0.0,0.0,0.0,0.0,0.0,0.0,0.0,0.0,0.0,0.0,0.0,0.0,0.0,0.0,0.0,0.0,0.0,0.0,0.0,0.0,0.0,0.0,0.0,0.0,0.0,0.0,0.0,0.0,0.0,0.0,0.0,0.0,0.0,0.0,0.0,0.0,0.0,0.0,0.0,0.0,0.0,0.0,0.0,0.0,0.0,0.0,0.0,0.0,0.0,0.0,0.0,0.0,0.0,0.0,0.0,0.0,0.0,0.0,0.0,0.0,0.0,0.0,0.0,0.0,0.0,0.0,0.0,0.0,0.0,0.0,0.0,0.0,0.0,0.0,0.0,0.0,0.0,0.0,0.0,0.0,0.0,0.0,0.0,0.0,0.0,0.0,0.0,0.0,0.0,0.0,0.0,0.0,0.0,0.0,0.0,0.0,0.0,0.0,0.0,0.0,0.0,0.0,0.0,0.0,0.0,0.0,0.0,0.0,0.0,0.0,0.0,0.0,0.0,0.0,0.0,0.0,0.0,0.0,0.0,0.0,0.0,0.0,0.0,0.0,0.0,0.0,0.0,0.0,0.0,0.0,0.0,0.0,0.0,0.0,0.0,0.0,0.0,0.0,0.0,0.0,0.0,0.0,0.0,0.0,0.0,0.0,0.0,0.0,0.0,0.0,0.0,0.0,0.0,0.0,0.0,0.0,0.0,0.0,0.0,0.0,0.0,0.0,0.0,0.0,0.0,0.0,0.0,0.0,0.0,0.0,0.0,0.0,0.0,0.0,0.0,0.0,0.0,0.0,0.0,0.0,0.0,0.0,0.0,0.0,0.0,0.0,0.0,0.0,0.0,0.0,0.0,0.0,0.0,0.0,0.0,0.0,0.0,0.0,0.0,0.0,0.0,0.0,0.0,0.0,0.0,0.0,0.0,0.0,0.0,0.0,0.0,0.0,0.0,0.0,0.0,0.0,0.0,0.0,0.0,0.0,0.0,0.0,0.0,0.0,0.0,0.0,0.0,0.0,0.0,0.0,0.0,0.0,0.0,0.0,0.0,0.0,0.0,0.0,0.0,0.0,0.0,0.0,0.0,0.0,0.0,0.0,0.0,0.0,0.0,0.0,0.0,0.0,0.0,0.0,0.0,0.0,0.0,0.0,0.0,0.0,0.0,0.0,0.0,0.0,0.0,0.0,0.0,0.0,0.0,0.0,0.0,0.0,0.0,0.0,0.0,0.0,0.0,0.0,0.0,0.0,0.0,0.0,0.0,0.0,0.0,0.0,0.0,0.0,0.0,0.0,0.0,0.0,0.0,0.0,0.0,0.0,0.0,0.0,0.0,0.0,0.0,0.0,0.0,0.0,0.0,0.0,0.0,0.0,0.0,0.0,0.0,0.0,0.0,0.0,0.0,0.0,0.0,0.0,0.0,0.0,0.0,0.0,0.0,0.0,0.0,0.0,0.0,0.0,0.0,0.0,0.0,0.0,0.0,0.0,0.0,0.0,0.0,0.0,0.0,0.0,0.0,0.0,0.0,0.0,0.0,0.0,0.0,0.0,0.0,0.0,0.0,0.0,0.0,0.0,0.0,0.0,0.0,0.0,0.0,0.0,0.0,0.0,0.0,0.0,0.0,0.0,0.0,0.0,0.0,0.0,0.0,0.0,0.0,0.0,0.0,0.0,0.0,0.0,0.0,0.0,0.0,0.0,0.0,0.0,0.0,0.0,0.0,0.0,0.0,0.0,0.0,0.0,0.0,0.0,0.0,0.0,0.0,0.0,0.0,0.0,0.0,0.0,0.0,0.0,0.0,0.0,0.0,0.0,0.0,0.0,0.0,0.0,0.0,0.0,0.0,0.0,0.0,0.0,0.0,0.0,0.0,0.0,0.0,0.0,0.0,0.0,0.0,0.0,0.0,0.0,0.0,0.0,0.0,0.0,0.0,0.0,0.0,0.0,0.0,0.0,0.0,0.0,0.0,0.0,0.0,0.0,0.0,0.0,0.0,0.0,0.0,0.0,0.0,0.0,0.0,0.0,0.0,0.0,0.0,0.0,0.0,0.0,0.0,0.0,0.0,0.0,0.0,0.0,0.0,0.0,0.0,0.0,0.0,0.0,0.0,0.0,0.0,0.0,0.0,0.0,0.0,0.0,0.0,0.0,0.0,0.0,0.0,0.0,0.0,0.0,0.0,0.0,0.0,0.0,0.0,0.0,0.0,0.0,0.0,0.0,0.0,0.0,0.0,0.0,0.0,0.0,0.0,0.0,0.0,0.0,0.0,0.0,0.0,0.0,0.0,0.0,0.0,0.0,0.0,0.0,0.0,0.0,0.0,0.0,0.0,0.0,0.0,0.0,0.0,0.0,0.0,0.0,0.0,0.0,0.0,0.0,0.0,0.0,0.0,0.0,0.0,0.0,0.0,0.0,0.0,0.0,0.0,0.0,0.0,0.0,-5.2426,0.0,0.0,0.0,0.0,0.0,0.0,0.0,0.0,0.0,0.0,0.0,0.0,0.0,0.0,0.0,0.0,0.0,0.0,0.0,0.0,0.0,0.0,0.0,0.0,0.0,0.0,0.0,0.0,0.0,0.0,0.0,0.0,0.0,0.0,0.0,0.0,0.0,0.0,0.0,0.0,0.0,0.0,0.0,-4.6954,-4.6702,0.0,0.0,0.0,0.0,0.0,0.0,0.0,0.0,0.0,0.0,0.0,0.0,0.0,0.0,0.0,0.0,0.0,0.0,0.0,0.0,0.0,0.0,0.0,0.0,0.0,0.0,0.0,0.0,0.0,0.0,0.0,0.0,0.0,0.0,0.0,0.0,0.0,0.0,0.0,0.0,0.0,0.0,0.0,0.0,0.0,0.0,0.0,0.0,0.0,0.0,0.0,0.0,0.0,0.0,0.0,0.0,0.0,0.0,0.0,0.0,0.0,0.0,0.0,0.0,0.0,0.0,0.0,0.0,0.0,0.0,0.0,-5.2486,0.0,0.0,0.0,0.0,0.0,0.0,0.0,0.0,0.0,0.0,0.0,0.0,0.0,0.0,0.0,0.0,0.0,0.0,0.0,0.0,0.0,0.0,0.0,0.0,-4.7205,-4.7405,-4.7255,0.0,0.0,0.0,0.0,0.0,0.0,0.0,0.0,0.0,0.0,0.0,0.0,0.0,0.0,0.0,-4.7933,-4.7405,-4.7305,0.0,0.0,0.0,0.0,0.0,0.0,0.0,0.0,0.0,0.0,0.0,0.0,0.0,0.0,0.0,0.0,0.0,0.0,0.0,0.0,0.0,0.0,0.0,0.0,0.0,0.0,0.0,0.0,0.0,0.0,0.0,0.0,0.0,0.0,0.0,0.0,0.0,0.0,0.0,0.0,0.0,0.0,0.0,0.0,0.0,0.0,0.0,0.0,0.0,0.0,0.0,0.0,0.0,0.0,0.0,0.0,0.0,0.0,0.0,0.0,0.0,0.0,0.0,-5.3354,-5.3414,-5.3533,-5.3533,-5.3533,-5.3533,-5.3533,-5.3384,-5.3144,0.0,0.0,0.0,0.0,0.0,0.0,0.0,0.0,0.0,0.0,0.0,0.0,0.0,0.0,0.0,0.0,0.0,0.0,0.0,0.0,0.0,0.0,-4.7405,-4.7531,-4.846,-4.7682,-4.7104,0.0,0.0,0.0,0.0,0.0,0.0,0.0,0.0,0.0,0.0,0.0,-4.8837,-4.9364,-4.9364,-4.9088,-4.8535,-4.8033,-4.7757,-4.7682,0.0,0.0,0.0,0.0,0.0,0.0,0.0,0.0,0.0,0.0,0.0,0.0,0.0,0.0,0.0,0.0,0.0,0.0,0.0,0.0,0.0,0.0,0.0,0.0,0.0,0.0,0.0,0.0,0.0,0.0,0.0,0.0,0.0,0.0,0.0,0.0,0.0,0.0,0.0,0.0,0.0,-4.5043,-4.6435,0.0,0.0,0.0,0.0,0.0,0.0,0.0,0.0,0.0,0.0,0.0,0.0,0.0,-5.3084,-5.3174,-5.3174,-5.3473,-5.4072,-5.4072,-5.4371,-5.494,-5.494,-5.494,-5.494,-5.494,0.0,-5.3234,-5.3743,0.0,0.0,0.0,0.0,0.0,0.0,0.0,0.0,0.0,0.0,0.0,0.0,0.0,0.0,0.0,0.0,0.0,0.0,0.0,0.0,0.0,-4.7707,-4.7883,-4.8711,-4.8335,-4.7782,-4.7179,0.0,0.0,0.0,0.0,0.0,0.0,0.0,0.0,0.0,-4.8385,-4.9063,-4.959,-4.959,-4.9464,-4.9213,-4.8962,-4.851,-4.7883,-4.7355,0.0,0.0,0.0,0.0,0.0,0.0,0.0,0.0,0.0,0.0,0.0,0.0,0.0,0.0,0.0,0.0,0.0,0.0,0.0,0.0,0.0,0.0,0.0,0.0,0.0,0.0,0.0,0.0,0.0,0.0,0.0,0.0,0.0,0.0,0.0,0.0,0.0,0.0,0.0,-4.4192,-4.4916,-4.6987,-4.8246,-4.9336,0.0,0.0,0.0,0.0,0.0,0.0,0.0,0.0,0.0,-5.3743,-5.3773,-5.3922,-5.4311,-5.4311,-5.4461,-5.476,-5.476,-5.491,-5.5179,-5.5179,-5.5179,-5.5179,-5.5179,-5.485,-5.4311,-5.4251,-5.3862,-5.3294,0.0,0.0,0.0,0.0,-5.2306,-5.2276,0.0,0.0,0.0,0.0,0.0,0.0,0.0,0.0,0.0,0.0,0.0,0.0,-4.7807,-4.8033,-4.836,-4.8937,-4.8862,-4.836,-4.738,-4.7205,0.0,0.0,0.0,0.0,0.0,0.0,0.0,-4.8134,-4.8711,-4.9188,-4.959,-4.959,-4.959,-4.959,-4.959,-4.9138,-4.8309,-4.7782,-4.7556,-4.7456,0.0,0.0,0.0,0.0,0.0,0.0,0.0,0.0,0.0,0.0,0.0,0.0,0.0,0.0,0.0,0.0,0.0,0.0,0.0,0.0,0.0,0.0,0.0,0.0,0.0,0.0,0.0,0.0,0.0,0.0,0.0,0.0,0.0,0.0,0.0,0.0,0.0,-4.4749,-4.5387,-4.8106,-4.9145,-5.0034,0.0,0.0,0.0,0.0,0.0,0.0,-5.3443,-5.3593,-5.3922,-5.4431,-5.4461,-5.47,-5.5179,-5.5179,-5.5179,-5.5179,-5.5179,-5.5179,-5.5179,-5.5179,-5.5179,-5.5179,-5.5179,-5.5179,-5.5149,-5.467,-5.4371,-5.4162,-5.3653,-5.3324,-5.3174,-5.3174,-5.3174,-5.3084,0.0,0.0,0.0,0.0,0.0,0.0,0.0,0.0,0.0,0.0,0.0,-4.7305,-4.7857,-4.841,-4.8962,-4.9515,-4.9063,-4.851,-4.7908,-4.7405,-4.6878,-4.6326,0.0,0.0,0.0,0.0,0.0,-4.8736,-4.9289,-4.9565,-4.959,-4.959,-4.959,-4.959,-4.959,-4.9565,-4.9464,-4.8912,-4.8686,-4.8586,-4.7481,0.0,0.0,0.0,0.0,0.0,0.0,0.0,0.0,0.0,0.0,0.0,0.0,0.0,0.0,0.0,0.0,0.0,0.0,0.0,0.0,0.0,0.0,0.0,0.0,0.0,0.0,0.0,0.0,0.0,0.0,0.0,0.0,0.0,0.0,0.0,0.0,0.0,0.0,-5.0213,-5.1043,0.0,0.0,0.0,0.0,-5.3234,-5.3773,-5.4162,-5.4162,-5.476,-5.5089,-5.5149,-5.5149,-5.5149,-5.5179,-5.5179,-5.5179,-5.5179,-5.5179,-5.5179,-5.5179,-5.5179,-5.5179,-5.5179,-5.5179,-5.5179,-5.5179,-5.5149,-5.476,-5.4221,-5.4162,-5.3743,-5.3174,-5.3174,-5.3174,-5.3084,0.0,0.0,0.0,0.0,0.0,0.0,0.0,0.0,0.0,-4.6753,-4.7004,-4.7481,-4.836,-4.8661,-4.8987,-4.954,-4.9414,-4.8912,-4.7958,-4.7732,-4.723,-4.6351,0.0,0.0,0.0,0.0,-4.8184,-4.8761,-4.9314,-4.959,-4.959,-4.959,-4.959,-4.959,-4.959,-4.959,-4.9565,-4.9012,-4.8761,-4.8711,-4.7933,-4.7431,0.0,0.0,0.0,0.0,0.0,0.0,0.0,0.0,0.0,0.0,0.0,0.0,0.0,0.0,0.0,0.0,0.0,0.0,0.0,0.0,0.0,0.0,0.0,0.0,0.0,0.0,0.0,0.0,0.0,0.0,0.0,0.0,0.0,0.0,0.0,0.0,0.0,-4.9676,-5.2071,0.0,-5.3202,-5.4569,-5.5209,-5.4521,-5.47,-5.485,-5.485,-5.5059,-5.5179,-5.5179,-5.5179,-5.5179,-5.5179,-5.5179,-5.5179,-5.5179,-5.5179,-5.5179,-5.5179,-5.5179,-5.5179,-5.5179,-5.5179,-5.5179,-5.5179,-5.5179,-5.5059,-5.485,-5.485,-5.47,-5.4461,-5.4461,-5.4192,-5.3743,0.0,0.0,0.0,0.0,0.0,0.0,0.0,0.0,-4.61,-4.7004,-4.728,-4.7757,-4.8661,-4.8937,-4.9188,-4.9565,-4.959,-4.9113,-4.7983,-4.7908,-4.7431,-4.6351,-4.6301,0.0,0.0,-4.7732,-4.8284,-4.9063,-4.9414,-4.959,-4.959,-4.959,-4.959,-4.959,-4.959,-4.959,-4.9565,-4.9213,-4.9063,-4.9012,-4.8435,-4.7983,-4.7556,0.0,0.0,0.0,0.0,0.0,0.0,0.0,0.0,0.0,0.0,0.0,0.0,0.0,0.0,0.0,0.0,0.0,0.0,0.0,0.0,0.0,0.0,0.0,0.0,0.0,0.0,0.0,0.0,0.0,0.0,0.0,0.0,0.0,0.0,0.0,-4.9206,-5.1258,-5.3552,-5.5106,-5.5205,-5.6242,-5.6555,-5.5867,-5.5837,-5.5837,-5.5837,-5.5628,-5.5538,-5.5538,-5.5538,-5.5418,-5.5179,-5.5418,-5.5418,-5.5179,-5.5179,-5.5179,-5.5179,-5.5179,-5.5179,-5.5179,-5.497,-5.485,-5.485,-5.461,-5.4521,-5.4551,-5.4999,-5.5179,-5.5179,-5.5179,-5.479,-5.4102,0.0,0.0,0.0,0.0,0.0,0.0,0.0,-4.6301,-4.6527,-4.7079,-4.7606,-4.8134,-4.8736,-4.9264,-4.959,-4.959,-4.959,-4.9113,-4.7983,-4.7908,-4.7431,0.0,0.0,0.0,-4.7883,-4.7933,-4.8485,-4.959,-4.959,-4.959,-4.959,-4.959,-4.959,-4.959,-4.959,-4.959,-4.959,-4.959,-4.959,-4.954,-4.9012,-4.8786,-4.8661,0.0,0.0,0.0,0.0,0.0,0.0,0.0,0.0,0.0,0.0,0.0,0.0,0.0,0.0,0.0,0.0,0.0,0.0,0.0,0.0,0.0,0.0,0.0,0.0,0.0,0.0,0.0,0.0,0.0,0.0,0.0,0.0,0.0,-4.8262,-4.83,-5.0028,-5.5111,-5.5524,-5.6128,-5.794,-5.8171,-5.7902,-5.7184,-5.7124,-5.7124,-5.7094,-5.6526,-5.6196,-5.6196,-5.6196,-5.5897,-5.5269,-5.5897,-5.5867,-5.5209,-5.5209,-5.5209,-5.5179,-5.5179,-5.5179,-5.5149,-5.4491,-5.4221,-5.4162,-5.3473,-5.3174,-5.3324,-5.461,-5.5119,-5.5119,-5.5119,-5.47,-5.4042,0.0,0.0,0.0,0.0,0.0,0.0,0.0,-4.6301,-4.6652,-4.7581,-4.7832,-4.8284,-4.9264,-4.9515,-4.959,-4.959,-4.959,-4.9113,-4.7983,-4.7908,-4.7431,0.0,0.0,0.0,-4.7883,-4.8309,-4.8887,-4.959,-4.959,-4.959,-4.959,-4.959,-4.959,-4.959,-4.959,-4.959,-4.959,-4.959,-4.959,-4.959,-4.9439,-4.9138,-4.8736,0.0,0.0,0.0,0.0,0.0,0.0,0.0,0.0,0.0,0.0,0.0,0.0,0.0,0.0,0.0,0.0,0.0,0.0,0.0,0.0,0.0,0.0,0.0,0.0,0.0,0.0,0.0,0.0,0.0,0.0,0.0,0.0,-4.7151,-4.7993,-5.0748,-5.2917,-5.366,-5.716,-5.9039,-5.7936,-5.883,-5.9069,-5.7932,-5.7842,-5.7633,-5.7124,-5.6944,-5.6825,-5.6825,-5.6825,-5.6765,-5.6585,-5.6765,-5.6526,-5.5897,-5.5897,-5.5658,-5.5179,-5.5179,-5.5179,-5.5149,-5.4491,-5.4221,-5.4162,-5.3473,-5.3174,-5.3204,-5.3593,-5.3743,-5.3743,-5.3743,-5.3324,-5.2732,0.0,0.0,0.0,0.0,0.0,0.0,0.0,-4.6301,-4.6702,-4.7757,-4.7908,-4.8335,-4.9464,-4.959,-4.959,-4.959,-4.9389,-4.8862,-4.7958,-4.7481,-4.6954,0.0,0.0,-4.738,-4.7908,-4.8485,-4.9038,-4.959,-4.959,-4.959,-4.959,-4.959,-4.959,-4.959,-4.959,-4.959,-4.959,-4.959,-4.959,-4.959,-4.959,-4.9414,-4.9088,-4.8862,-4.856,-4.8209,-4.7657,-4.7255,-4.6928,-4.6602,0.0,0.0,0.0,0.0,0.0,0.0,0.0,0.0,0.0,0.0,0.0,0.0,0.0,0.0,0.0,0.0,0.0,0.0,0.0,0.0,0.0,0.0,0.0,0.0,-4.7305,-4.8184,-4.9188,-5.197,-5.3862,-5.3747,-5.791,-6.0266,-5.8638,-5.9934,-6.0505,-5.9458,-5.9099,-5.889,-5.877,-5.8231,-5.7932,-5.7932,-5.7932,-5.7663,-5.7094,-5.7393,-5.7064,-5.6166,-5.6166,-5.5837,-5.5179,-5.5179,-5.5029,0.0,-5.4072,-5.3623,-5.3324,-5.2636,-5.2366,0.0,0.0,0.0,0.0,0.0,-5.2868,-5.2884,0.0,0.0,0.0,0.0,0.0,0.0,0.0,-4.6301,-4.6702,-4.7757,-4.7908,-4.8335,-4.9464,-4.959,-4.9565,-4.9515,-4.9063,-4.851,-4.7857,-4.6928,0.0,-4.6401,-4.6928,-4.7456,-4.7983,-4.851,-4.9038,-4.959,-4.959,-4.959,-4.959,-4.959,-4.959,-4.959,-4.959,-4.959,-4.959,-4.959,-4.959,-4.959,-4.959,-4.959,-4.954,-4.9063,-4.8862,-4.8786,-4.8209,-4.8008,-4.7983,-4.7933,0.0,0.0,0.0,0.0,0.0,0.0,0.0,0.0,0.0,0.0,0.0,0.0,0.0,0.0,0.0,0.0,0.0,0.0,0.0,0.0,0.0,0.0,0.0,0.0,-4.8759,-5.0002,-5.1519,-5.2903,-5.4073,-5.491,-5.8395,-6.0518,-5.994,-6.1318,-6.1942,-6.1283,-6.0655,-6.0505,-6.0984,0.0,0.0,0.0,0.0,-5.862,-5.7334,-5.7932,-5.7603,-5.6376,-5.6316,-5.5927,-5.5299,-5.5209,-5.488,-5.4281,-5.3503,-5.2845,-5.2247,-5.1528,-5.1229,-5.1319,-5.2516,-5.2965,-5.2875,-5.2306,-5.2698,-5.3557,0.0,0.0,0.0,0.0,0.0,0.0,0.0,-4.6301,-4.6702,-4.7757,-4.7908,-4.8335,-4.9464,-4.959,-4.9414,-4.8962,-4.8837,-4.836,-4.7355,0.0,-4.6979,-4.6979,-4.7481,-4.8033,-4.8586,-4.8711,-4.9038,-4.959,-4.959,-4.959,-4.959,-4.959,-4.959,-4.959,-4.959,-4.959,-4.959,-4.959,-4.959,-4.959,-4.959,-4.959,-4.959,-4.9464,-4.9439,-4.9364,-4.8812,-4.8611,-4.8535,-4.8058,-4.7908,-4.7908,-4.7908,-4.7832,0.0,0.0,0.0,0.0,0.0,0.0,0.0,0.0,0.0,0.0,0.0,0.0,0.0,0.0,0.0,0.0,0.0,0.0,0.0,-5.1058,-5.2876,-5.4159,-5.3973,-5.6569,-5.8147,-5.7476,-6.0451,-6.2496,-6.2377,-6.2754,-6.26,-6.1972,-6.1792,-6.1283,-6.0326,-6.0565,-6.0236,-5.9129,-5.9608,-5.9518,-5.871,-5.886,-5.853,-5.7752,0.0,0.0,-5.5957,-5.5448,-5.5119,-5.494,-5.3713,-5.3114,-5.2905,-5.1708,-5.1229,-5.1259,-5.1498,-5.1588,-5.1588,-5.1439,-5.1473,-5.197,0.0,0.0,0.0,0.0,0.0,0.0,0.0,-4.6301,-4.6702,-4.7757,-4.7908,-4.8335,-4.9464,-4.9339,-4.9063,-4.8786,-4.851,-4.7983,0.0,-4.738,-4.7531,-4.7531,-4.8058,-4.8485,-4.8761,-4.9038,-4.9314,-4.959,-4.9866,-5.0017,-5.0017,-5.0293,-5.0444,-5.0419,-5.0142,-5.0017,-4.9992,-4.9715,-4.959,-4.959,-4.959,-4.959,-4.959,-4.959,-4.959,-4.9565,-4.9289,-4.9188,-4.9138,-4.8837,-4.8761,-4.8761,-4.8761,-4.856,-4.8284,0.0,0.0,0.0,0.0,0.0,0.0,0.0,0.0,0.0,0.0,0.0,0.0,0.0,0.0,-5.0505,0.0,0.0,-5.3834,-5.408,-5.5154,-5.6004,-5.6232,-5.8531,-5.9257,-5.6929,-6.0508,-6.2817,-6.191,-6.2555,-6.2929,-6.26,-6.2271,-6.1942,-6.1613,-6.1583,-6.1283,-6.0625,-6.0595,-6.0266,-5.9608,-5.9279,-5.877,-5.8112,-5.7423,-5.6765,-5.6137,-5.5478,-5.4999,-5.467,-5.3982,-5.3503,-5.3114,-5.2127,-5.1498,-5.1229,-5.1229,-5.1229,-5.1229,-5.1229,-5.188,-5.3077,0.0,0.0,0.0,0.0,0.0,0.0,0.0,0.0,-4.6652,-4.7631,-4.7857,-4.8259,-4.9163,-4.8962,-4.8686,-4.846,-4.8033,-4.7581,0.0,-4.7732,-4.8083,-4.8083,-4.851,-4.8812,-4.8937,-4.9264,-4.954,-4.9766,-5.0193,-5.0469,-5.0594,-5.1071,-5.1272,-5.1272,-5.0795,-5.0569,-5.0569,-5.0117,-4.9916,-4.9916,-4.9791,-4.9766,-4.9741,-4.964,-4.959,-4.959,-4.959,-4.959,-4.959,-4.959,-4.959,-4.959,-4.959,-4.9364,-4.9165,-4.9191,-5.0175,0.0,0.0,0.0,0.0,0.0,0.0,0.0,0.0,0.0,-5.1099,-5.121,-5.305,-5.44,-5.3379,-5.5509,-5.7225,-5.7005,-5.7285,-5.7856,-5.8342,-5.9994,-5.9872,-5.6801,-6.0387,-6.2555,-6.1139,-6.2292,-6.3079,-6.3079,-6.26,-6.245,-6.2869,-6.251,-6.2181,-6.1912,-6.1403,-6.0775,-6.0086,-5.9428,-5.883,-5.8291,-5.7483,-5.6825,-5.6316,-5.5538,-5.491,-5.4401,-5.4281,-5.3832,-5.3144,-5.2606,-5.2067,-5.1588,-5.1588,-5.1528,-5.1379,-5.1259,-5.2485,-5.4337,0.0,0.0,0.0,0.0,0.0,0.0,0.0,0.0,0.0,-4.7129,-4.7631,-4.7958,-4.8083,-4.851,-4.8385,-4.7405,-4.7255,0.0,-4.7129,-4.8109,-4.8686,-4.8686,-4.8736,-4.9012,-4.949,-4.9088,-4.9339,-5.0318,-5.0393,-5.067,-5.1197,-5.1247,-5.1272,-5.1272,-5.1222,-5.1197,-5.1172,-5.1122,-5.1096,-5.1046,-5.0544,-5.0318,-5.0268,-4.9791,-4.959,-4.959,-4.959,-4.959,-4.959,-4.959,-4.959,-4.959,-4.959,-4.9891,-5.0276,-5.0819,0.0,-5.3426,-5.1866,-5.1126,0.0,-5.1431,-5.1541,-5.1792,0.0,0.0,-5.2623,-5.3264,-5.3601,-5.4134,-5.4984,-5.7099,-5.8782,-5.9238,-6.097,-6.188,-6.048,-6.1644,-6.2028,-6.0116,-6.1792,-6.3079,-6.2817,-6.2963,-6.3079,-6.3079,-6.3019,-6.275,-6.2241,-6.269,-6.2421,-6.1253,-6.1164,-6.0775,-6.0086,-5.9428,-5.9069,-5.8979,-5.7693,-5.7064,-5.6944,-5.5748,-5.5149,-5.5029,-5.4461,-5.3832,-5.3174,-5.3114,-5.3025,-5.2965,-5.2965,-5.2606,-5.2007,-5.1439,-5.1972,-5.3253,0.0,0.0,0.0,0.0,0.0,0.0,0.0,0.0,0.0,0.0,-4.733,-4.7581,-4.7883,-4.7857,-4.7506,-4.6728,0.0,0.0,-4.7556,-4.8335,-4.8912,-4.9238,-4.9264,-4.9364,-4.959,-4.969,-4.9791,-4.9941,-5.0921,-5.1373,-5.1297,-5.195,-5.2226,-5.2226,-5.19,-5.1749,-5.1749,-5.1423,-5.1272,-5.1272,-5.1021,-5.0921,-5.087,-5.0293,-5.0067,-5.0017,-4.9715,-4.9389,0.0,-4.949,-4.9389,-4.9163,-4.949,-5.0359,-5.1402,-5.1628,-5.3571,0.0,-5.5435,0.0,0.0,0.0,-5.5184,-5.5533,-5.5794,-5.6142,-5.649,-5.6752,-5.7419,-5.8201,-5.8639,-6.0178,-6.1466,0.0,-6.2523,-6.2817,-6.2175,-6.2672,-6.2817,-6.2145,-6.2672,-6.3079,-6.3079,-6.3079,-6.3079,-6.3079,-6.3079,-6.2959,-6.269,-6.2929,-6.281,-6.2271,-6.1523,-6.0984,-6.0685,-5.9638,-5.9099,-5.9099,-5.8141,-5.7693,-5.7663,-5.6346,-5.5568,-5.5179,-5.491,-5.4401,-5.3773,-5.3773,-5.3533,-5.3144,-5.2755,-5.2456,-5.2157,-5.1887,-5.2214,-5.2989,0.0,0.0,0.0,0.0,0.0,0.0,0.0,0.0,0.0,0.0,-4.7054,-4.728,-4.7657,-4.723,-4.6753,-4.6351,0.0,0.0,0.0,-4.846,-4.9012,-4.9565,-4.959,-4.9665,-4.9816,-5.0218,-5.0368,-5.0293,-5.1523,-5.1975,-5.1749,-5.2553,-5.2929,-5.2904,-5.2503,-5.2327,-5.2302,-5.19,-5.1724,-5.1724,-5.1574,-5.1423,-5.1222,-5.0645,-5.0218,-4.9916,-4.9515,-4.9113,-4.8812,-4.9063,-4.8862,-4.8762,-4.9799,-5.0887,-5.2209,-5.3039,-5.507,-5.7202,-5.791,0.0,0.0,-5.7483,-5.8171,-5.871,-5.8919,-5.9308,-5.9697,-5.9907,-6.0715,-6.1433,-6.1613,-6.245,-6.3079,-6.3079,-6.3079,-6.3079,-6.3079,-6.3079,-6.3079,-6.3079,-6.2929,-6.2869,-6.3049,-6.3079,-6.3079,-6.3079,-6.3079,-6.3079,-6.3079,-6.3079,-6.3079,-6.3079,-6.1972,-6.1313,-6.1104,-5.9967,-5.9279,-5.9099,-5.8441,-5.8112,-5.8082,-5.6765,-5.5927,-5.5448,-5.5269,-5.491,-5.4491,-5.4491,-5.4192,-5.3683,-5.3204,-5.2905,-5.2755,-5.2755,-5.3039,-5.3396,0.0,0.0,0.0,0.0,0.0,0.0,0.0,0.0,0.0,0.0,0.0,0.0,0.0,0.0,-4.6326,0.0,0.0,0.0,0.0,-4.846,-4.9012,-4.9565,-4.959,-4.9841,-5.0393,-5.0419,-5.0946,-5.2026,-5.2076,-5.2377,-5.2879,-5.2904,-5.2929,-5.2929,-5.2904,-5.2904,-5.2904,-5.2879,-5.2879,-5.2829,-5.2302,-5.1749,-5.1222,-5.0645,-4.9741,-4.8812,-4.8812,-4.8786,-4.8686,-4.8134,-4.7958,-4.8257,-5.0472,-5.154,0.0,-5.5647,-5.7225,-5.8035,0.0,0.0,-5.8231,-5.889,-5.9548,-6.0206,-6.0864,-6.1044,-6.1224,-6.1882,-6.2032,-6.2271,-6.2899,-6.3049,-6.3079,-6.3079,-6.3079,-6.3079,-6.3079,-6.3079,-6.3079,-6.3079,-6.251,-6.2391,0.0,-6.3079,-6.3079,-6.3079,-6.3079,-6.3079,-6.3079,-6.3079,-6.3079,-6.3079,-6.2421,-6.1762,-6.1134,-6.0416,-5.9727,-5.9099,-5.8441,-5.8112,-5.8082,-5.6765,-5.6166,-5.6107,-5.5478,-5.5179,-5.5149,-5.5149,-5.5149,-5.5119,-5.5119,-5.47,-5.4162,-5.4162,-5.4299,-5.4589,0.0,0.0,0.0,0.0,0.0,0.0,0.0,0.0,0.0,0.0,0.0,0.0,0.0,0.0,0.0,0.0,0.0,0.0,0.0,-4.7908,-4.846,-4.9012,-4.9389,-4.969,-4.9866,-5.0619,-5.0996,-5.0971,-5.1724,-5.2201,-5.2377,-5.2377,-5.2578,-5.2929,-5.2929,-5.2929,-5.2929,-5.2929,-5.2929,-5.2879,-5.2327,-5.2,-5.1724,-5.077,-4.9967,-4.9213,0.0,-4.7983,-4.7707,-4.7857,-4.7908,-4.8232,-5.0446,0.0,0.0,-5.7328,-5.8159,-5.8321,0.0,0.0,-5.9578,-6.0266,-6.0924,-6.1493,-6.1702,-6.2121,-6.248,-6.269,-6.2061,-6.1523,-6.1732,-6.1762,-6.1762,-6.1762,-6.251,-6.3079,-6.3079,-6.3079,-6.3079,-6.3079,-6.2869,0.0,0.0,0.0,0.0,-6.3049,-6.3079,-6.3079,-6.3079,-6.3079,-6.3079,-6.3079,-6.245,-6.1792,-6.1134,-6.0446,-5.9757,-5.9099,-5.889,-5.8291,-5.7423,-5.6974,-5.6316,-5.5508,-5.5299,-5.5179,-5.5179,-5.5179,-5.5179,-5.5149,-5.47,-5.4401,-5.4162,-5.3683,-5.4077,-5.4652,0.0,0.0,0.0,0.0,0.0,0.0,0.0,0.0,0.0,0.0,0.0,0.0,0.0,0.0,0.0,0.0,0.0,0.0,0.0,0.0,-4.7983,-4.8736,-4.9113,-4.949,-4.9891,-5.0594,-5.0896,-5.072,-5.1448,-5.18,-5.18,-5.18,-5.2,-5.2352,-5.2352,-5.2352,-5.2352,-5.2352,-5.2452,-5.2578,-5.2026,-5.18,-5.1699,-5.0544,-4.9791,0.0,-4.8033,-4.7531,-4.7405,-4.7355,-4.7481,-4.7954,0.0,0.0,0.0,0.0,-5.8486,-5.9009,-5.9847,-6.0446,-6.0924,-6.1343,-6.1972,-6.245,-6.245,-6.278,-6.3079,-6.3079,-6.2032,-6.1104,-6.1104,-6.0894,-6.0745,-6.0745,-6.1672,-6.254,-6.3019,-6.2869,-6.2899,-6.3348,-6.3019,-6.281,0.0,0.0,0.0,-6.3019,-6.3079,-6.3079,-6.3079,-6.3079,-6.3079,-6.3079,-6.266,-6.2121,-6.1463,-6.1014,-6.0356,-5.9458,-5.9219,-5.865,-5.7782,-5.7304,-5.6645,-5.5837,-5.5388,-5.5179,-5.5179,-5.5179,-5.5179,-5.5149,-5.473,-5.4551,-5.4521,-5.4072,-5.4352,-5.4874,0.0,0.0,0.0,0.0,0.0,0.0,0.0,0.0,0.0,0.0,0.0,0.0,0.0,0.0,0.0,0.0,0.0,0.0,0.0,0.0,0.0,-4.8686,-4.8761,-4.9264,-5.0318,-5.0368,-5.0619,-5.1147,-5.1147,-5.1172,-5.1197,-5.1197,-5.1222,-5.1247,-5.1272,-5.1272,-5.1272,-5.1272,-5.1574,-5.2026,-5.1448,-5.1247,-5.1122,-5.0017,-4.9264,-4.8636,-4.7581,-4.7506,-4.7757,0.0,0.0,0.0,0.0,0.0,0.0,0.0,0.0,-6.0146,-6.0176,-6.1164,-6.2181,-6.2181,-6.266,-6.3139,-6.3139,-6.3109,-6.3049,-6.2989,-6.1942,-6.0984,0.0,0.0,-6.0027,-6.0027,-6.0685,-6.1642,-6.2899,-6.254,-6.26,0.0,0.0,0.0,0.0,0.0,0.0,-6.3019,0.0,-6.3079,-6.3079,-6.3079,-6.3079,-6.3079,-6.3079,-6.275,-6.2121,-6.2061,-6.1373,-6.0027,-5.9428,-5.9129,-5.9009,-5.7723,-5.7124,-5.7034,-5.5777,-5.5239,-5.5239,-5.5209,-5.5179,-5.5179,-5.5179,-5.5179,-5.5179,-5.5179,-5.5179,-5.52,0.0,0.0,0.0,0.0,0.0,0.0,0.0,0.0,0.0,0.0,0.0,0.0,0.0,0.0,0.0,0.0,0.0,0.0,0.0,0.0,0.0,0.0,-4.8535,-4.8912,-4.9188,-4.959,-4.9665,-4.9414,-4.9414,-4.9615,-5.0017,-5.0017,-5.0243,-5.067,-5.1096,-5.1272,-5.1272,-5.1272,-5.1373,-5.1448,-5.087,-5.0645,-5.0569,-4.9866,-4.9264,-4.8736,-4.846,-4.8159,0.0,0.0,0.0,0.0,0.0,0.0,-5.6908,0.0,0.0,-6.0954,-6.1463,-6.254,-6.3528,-6.3528,-6.3647,-6.3767,-6.3767,-6.3408,-6.281,-6.1822,-6.0535,-5.9308,0.0,0.0,0.0,-5.9338,-6.1164,0.0,-6.3019,-6.2929,0.0,-6.3258,0.0,-6.2899,-6.3049,-6.2929,0.0,0.0,-6.3079,-6.3079,-6.3079,-6.3079,-6.3079,-6.3079,-6.3079,-6.275,-6.2121,-6.1613,-6.0685,-5.9368,-5.9668,-5.9308,-5.8351,-5.8022,-5.7573,-5.7064,-5.6256,-5.5927,-5.5897,-5.5388,-5.5179,-5.5179,-5.5179,-5.5179,-5.5179,-5.5179,-5.5179,-5.525,0.0,0.0,0.0,0.0,0.0,0.0,0.0,0.0,0.0,0.0,0.0,0.0,0.0,0.0,0.0,0.0,0.0,0.0,0.0,0.0,0.0,0.0,-4.8209,-4.851,-4.8761,-4.8837,-4.8937,-4.9138,-4.8636,-4.8937,-4.9941,-4.9464,-4.954,-5.0067,-5.0393,-5.0544,-5.0544,-5.0544,-5.067,0.0,0.0,-5.0193,-5.0318,-4.954,-4.9188,-4.9063,-4.856,0.0,0.0,0.0,0.0,-5.0581,-5.1459,-5.3406,-5.5511,-5.6204,0.0,-5.9566,-6.1057,-6.2086,-6.3179,-6.4129,-6.4216,-6.3857,-6.3288,-6.266,-6.1852,-6.0505,-5.9159,0.0,-5.7244,0.0,0.0,0.0,0.0,0.0,-6.2989,-6.2839,-6.2839,0.0,-6.3228,0.0,-6.3079,-6.3079,-6.3079,0.0,-6.3079,-6.3079,-6.3079,-6.3079,-6.3079,-6.3079,-6.3079,-6.2899,-6.254,-6.1882,-6.1014,-5.9997,-6.0057,-5.9548,-5.853,-5.8261,-5.7902,-5.7513,0.0,-5.6585,-5.6555,-5.6166,-5.5867,-5.5628,-5.5628,-5.5448,-5.5179,-5.5179,-5.5179,-5.5179,0.0,0.0,0.0,0.0,0.0,0.0,0.0,0.0,0.0,0.0,0.0,0.0,0.0,0.0,0.0,0.0,0.0,0.0,0.0,0.0,0.0,0.0,-4.8033,-4.8259,-4.8761,-4.8284,-4.846,-4.9364,-4.8385,-4.8661,-5.0067,-4.9188,-4.9038,-4.949,-4.9565,-4.959,-4.959,-4.959,-4.9866,-5.0268,-4.9791,-4.9916,-5.0293,0.0,-4.9213,-4.9565,0.0,0.0,0.0,0.0,-5.0092,-4.9816,-5.0444,-5.2077,-5.3708,-5.3866,-5.5545,-5.7702,-5.9806,-6.0831,-6.1986,-6.4245,-6.4249,-6.3533,-6.251,-6.1642,-6.0685,-5.9159,0.0,-5.7034,-5.6885,-5.7453,-5.8052,-5.8231,0.0,-6.1583,-6.2899,-6.26,-6.263,-6.3737,-6.3408,-6.3079,-6.3079,-6.3079,-6.3079,-6.3079,-6.3079,-6.3079,-6.3079,-6.3079,-6.3079,-6.3079,-6.3079,-6.3049,-6.2959,-6.248,-6.1852,-6.1104,-6.0505,-5.9877,-5.9219,-5.856,-5.8261,-5.8231,-5.7513,0.0,-5.7214,-5.7124,-5.6765,-5.6286,-5.6286,-5.5957,-5.5448,-5.5448,-5.5448,-5.5448,0.0,0.0,0.0,0.0,0.0,0.0,0.0,0.0,0.0,0.0,-4.6301,-4.6301,0.0,0.0,0.0,0.0,0.0,0.0,0.0,0.0,0.0,0.0,-4.8611,-4.8661,-4.8761,-4.8686,-4.8485,-4.8209,-4.8008,-4.8058,-4.836,-4.8636,-4.8812,-4.8937,-4.9389,-4.959,-4.959,-4.959,-4.964,-4.9715,-4.964,-4.9916,-5.0343,-4.969,0.0,0.0,0.0,0.0,0.0,0.0,-5.0343,-5.0444,-5.1498,-5.2976,-5.4601,-5.5578,-5.7108,-5.8723,-5.9589,-6.0199,-6.1193,-6.3158,-6.3101,-6.2686,-6.282,-6.1972,0.0,0.0,-5.7244,-5.6765,-5.5718,-5.6496,-5.7633,-5.877,0.0,0.0,0.0,0.0,-6.2989,0.0,0.0,0.0,0.0,0.0,0.0,0.0,0.0,-6.3079,-6.3079,-6.3079,-6.3079,-6.3079,-6.3079,-6.281,-6.2271,-6.269,-6.2301,-6.1104,-6.0984,-6.0565,-5.9877,-5.9249,-5.8949,-5.889,-5.8231,0.0,-5.7902,-5.7334,-5.7034,-5.6944,-5.6944,-5.6855,-5.6765,-5.6765,-5.6765,-5.6765,0.0,0.0,0.0,0.0,0.0,0.0,0.0,-4.6552,-4.6753,-4.6753,-4.6753,-4.6627,-4.6351,-4.6577,-4.6627,0.0,0.0,0.0,0.0,0.0,0.0,0.0,0.0,0.0,0.0,0.0,0.0,0.0,0.0,-4.836,-4.9213,0.0,-4.8937,-4.9213,-4.949,-4.959,-4.959,-4.959,-4.959,-4.9615,-4.9916,-5.0167,-5.0419,0.0,0.0,0.0,0.0,0.0,0.0,0.0,-5.0619,-5.1021,-5.185,-5.2793,-5.3932,-5.4646,-5.5741,-5.6976,-5.8778,-5.948,-6.0185,-6.2368,-6.1892,-6.0989,-6.0734,0.0,0.0,0.0,-5.6107,-5.5927,-5.5299,-5.6226,0.0,0.0,0.0,0.0,0.0,0.0,0.0,0.0,0.0,0.0,0.0,0.0,0.0,0.0,0.0,-6.3079,-6.3079,-6.3079,-6.3079,-6.3079,-6.3079,-6.2929,-6.26,-6.2929,-6.26,-6.1613,-6.1283,-6.0745,-6.0057,-5.9398,-5.9099,-5.9099,-5.877,0.0,-5.862,-5.8261,-5.7932,-5.7633,-5.7633,-5.7423,-5.7094,-5.7094,-5.7094,-5.7094,0.0,0.0,0.0,0.0,0.0,0.0,0.0,-4.6534,-4.7129,-4.7129,-4.723,-4.7104,-4.6552,-4.6778,-4.6778,0.0,0.0,0.0,0.0,0.0,0.0,0.0,0.0,0.0,0.0,0.0,0.0,0.0,0.0,0.0,0.0,0.0,0.0,0.0,0.0,-4.9665,-4.9766,-4.964,-4.959,0.0,0.0,-5.0494,0.0,0.0,0.0,0.0,0.0,0.0,0.0,0.0,-5.072,-5.1197,-5.1749,-5.2377,-5.3005,-5.3406,-5.411,-5.5223,-5.7681,-5.8549,-5.9263,-6.1488,-6.0674,-5.9099,-5.8305,-5.7046,0.0,0.0,-5.4274,-5.4274,-5.4274,-5.5308,-5.6317,0.0,0.0,0.0,0.0,0.0,0.0,0.0,0.0,0.0,0.0,0.0,0.0,0.0,0.0,0.0,-6.3079,-6.3079,-6.3079,-6.3079,-6.3079,-6.3079,-6.3079,-6.3079,-6.281,-6.2301,-6.1493,-6.0835,-6.0266,-5.9458,-5.9099,-5.9099,-5.9099,0.0,0.0,-5.9099,-5.88,-5.8321,-5.8321,-5.7992,-5.7513,-5.7513,-5.7513,-5.7513,0.0,0.0,0.0,0.0,0.0,0.0,0.0,-4.5724,-4.7129,-4.7129,-4.7531,-4.7631,-4.7104,-4.6652,-4.6376,0.0,0.0,0.0,0.0,0.0,0.0,0.0,0.0,0.0,0.0,0.0,0.0,0.0,0.0,0.0,0.0,0.0,0.0,0.0,0.0,0.0,-5.0318,-4.9816,0.0,0.0,0.0,0.0,0.0,0.0,0.0,0.0,0.0,0.0,0.0,0.0,0.0,-5.0594,-5.1172,-5.2076,-5.2929,-5.298,0.0,0.0,-5.6188,-5.7242,-5.8447,-6.0303,-5.9413,-5.789,-5.7311,0.0,0.0,-5.1544,-5.1153,-5.1153,-5.1153,-5.238,-5.3724,0.0,0.0,-5.7635,0.0,0.0,0.0,0.0,0.0,0.0,0.0,0.0,0.0,0.0,0.0,0.0,-6.3079,-6.3079,-6.3079,-6.3079,-6.3079,-6.3079,-6.3079,-6.3079,-6.3049,-6.2959,-6.1702,-6.1074,-6.0984,-5.9697,-5.9099,-5.9099,-5.9099,0.0,0.0,-5.9099,-5.9069,-5.9009,-5.9009,-5.8979,-5.8919,-5.8919,-5.8919,-5.8919,0.0,0.0,0.0,0.0,0.0,0.0,-4.3781,-4.529,-4.6154,-4.6342,-4.656,-4.6078,-4.4501,-4.4894,-4.565,-4.6681,0.0,0.0,0.0,0.0,0.0,0.0,0.0,0.0,0.0,0.0,0.0,-4.959,0.0,0.0,0.0,0.0,0.0,0.0,0.0,0.0,0.0,0.0,0.0,0.0,0.0,0.0,0.0,0.0,0.0,0.0,0.0,0.0,0.0,0.0,0.0,0.0,-5.0293,-5.1046,0.0,0.0,-5.411,-5.5591,-5.647,-5.7524,-5.8454,-5.8825,-5.7482,-5.5745,-5.499,0.0,0.0,-5.0903,-5.0713,-5.0713,-5.0713,-5.1153,-5.1759,-5.2264,-5.3209,0.0,0.0,0.0,0.0,0.0,0.0,0.0,0.0,0.0,0.0,0.0,0.0,0.0,-6.3079,-6.3079,-6.3079,-6.3079,-6.3079,-6.3079,-6.3079,-6.3079,-6.3079,-6.3079,-6.2151,-6.1493,-6.1074,-6.0116,-5.9488,-5.9099,-5.9099,0.0,0.0,-5.9099,-5.9099,-5.9099,-5.9099,-5.9099,-5.9099,-5.9099,-5.9099,-5.9099,0.0,0.0,0.0,0.0,0.0,-3.9625,-4.2426,-4.3798,-4.4617,-4.4991,-4.5295,-4.4764,-4.304,-4.3602,-4.4583,-4.5906,-4.6811,0.0,0.0,0.0,0.0,0.0,0.0,0.0,0.0,0.0,-4.959,-4.959,-4.959,-4.959,0.0,0.0,0.0,0.0,0.0,0.0,0.0,0.0,0.0,0.0,0.0,0.0,0.0,0.0,0.0,0.0,0.0,0.0,0.0,0.0,0.0,0.0,0.0,0.0,0.0,0.0,-5.3457,-5.5139,-5.6244,-5.7499,-5.8428,-5.8202,-5.647,-5.4542,0.0,0.0,0.0,-4.9756,-4.9502,-4.9395,-4.9395,-4.9707,-5.0045,-5.0045,-5.0848,-5.1732,-5.267,0.0,0.0,0.0,0.0,0.0,0.0,0.0,0.0,0.0,0.0,0.0,0.0,-6.2292,-6.2555,-6.3079,-6.3079,-6.3079,-6.3079,-6.3079,-6.3079,-6.3079,-6.2421,-6.1762,-6.1104,-6.0416,-5.9817,-5.9368,-5.9189,0.0,0.0,-5.9189,-5.9099,-5.9099,-5.9099,-5.9099,-5.9099,-5.9099,-5.9099,-5.9099,0.0,0.0,0.0,0.0,0.0,0.0,-3.8618,-4.0956,-4.2637,-4.2637,-4.3489,-4.3914,-4.3286,-4.3354,-4.3354,-4.3354,-4.6102,0.0,0.0,0.0,0.0,0.0,0.0,0.0,0.0,0.0,-4.959,-4.959,-4.959,-4.959,-4.959,-4.959,-4.9891,0.0,0.0,0.0,0.0,0.0,0.0,0.0,0.0,0.0,-5.2879,0.0,0.0,0.0,0.0,0.0,0.0,0.0,0.0,0.0,0.0,0.0,0.0,0.0,-5.2,-5.3959,-5.5089,-5.662,-5.8027,-5.8579,-5.7022,-5.4938,0.0,0.0,-4.846,-4.7355,-4.6702,-4.6301,-4.6301,-4.7534,-4.8532,-4.8532,-4.9734,-5.0785,-5.1001,0.0,0.0,0.0,0.0,0.0,0.0,0.0,0.0,0.0,0.0,0.0,0.0,-6.048,-6.1377,-6.3079,-6.3079,-6.3079,-6.3079,-6.3079,-6.3079,-6.3079,-6.2421,-6.1762,-6.1104,-6.0416,-6.0086,0.0,0.0,0.0,0.0,-5.9368,-5.9099,-5.9099,-5.9099,-5.9099,-5.9099,-5.9099,-5.9099,-5.9099,0.0,0.0,0.0,0.0,0.0,0.0,0.0,-4.0124,-4.1022,-4.1208,-4.1786,-4.158,-3.9736,-4.0654,-4.1465,-4.1465,-4.3489,0.0,0.0,0.0,0.0,0.0,0.0,0.0,0.0,0.0,-4.8322,-4.959,-4.8322,-4.8322,-4.959,-4.959,-4.9891,-5.0419,-5.0419,0.0,0.0,0.0,0.0,0.0,0.0,-5.2779,-5.2829,0.0,0.0,0.0,0.0,0.0,0.0,0.0,0.0,0.0,0.0,0.0,0.0,-4.9791,-5.1172,0.0,-5.3507,-5.4637,-5.5566,-5.534,-5.421,-5.2804,-5.1498,0.0,-4.7983,-4.728,-4.6702,-4.6301,-4.6301,-4.6636,-4.6968,-4.6968,-4.7416,-4.7973,0.0,0.0,0.0,0.0,0.0,0.0,0.0,0.0,0.0,0.0,0.0,0.0,0.0,-5.8731,-5.9626,-6.1258,-6.2438,-6.3079,-6.3079,-6.3079,-6.3079,-6.3079,-6.2869,-6.2421,-6.1792,-6.1553,-6.1224,0.0,0.0,0.0,0.0,-5.9368,-5.9099,-5.9099,-5.9099,-5.9099,-5.9159,-5.9608,-5.9488,-5.9159,0.0,0.0,0.0,0.0,0.0,0.0,0.0,-3.8507,-3.8958,-3.9409,-3.9839,-3.9515,-3.8328,-3.9129,-3.982,-3.9962,-4.0927,0.0,0.0,0.0,0.0,0.0,0.0,0.0,-4.8477,-4.7353,-4.7353,-4.8477,-4.7353,-4.7353,-4.8477,-4.7797,-4.8123,-4.8993,-4.9347,-4.9544,0.0,0.0,0.0,0.0,-5.2703,-5.2729,-5.2854,0.0,0.0,0.0,0.0,0.0,0.0,0.0,0.0,0.0,0.0,0.0,0.0,0.0,-5.0343,-5.1373,0.0,-5.3256,-5.3909,-5.3733,-5.2904,0.0,0.0,0.0,0.0,-4.7481,-4.6828,-4.6301,-4.6301,-4.6301,-4.6301,-4.6301,-4.6301,0.0,0.0,0.0,0.0,0.0,0.0,0.0,0.0,0.0,0.0,0.0,0.0,0.0,0.0,-5.6956,-5.785,-5.9475,-6.1258,-6.2409,-6.3079,-6.3079,-6.3079,-6.3079,-6.3079,-6.272,-6.2091,-6.2091,-6.1732,0.0,0.0,0.0,0.0,-5.9638,-5.9338,-5.9129,-5.9368,-5.9308,-5.9189,-5.9847,-5.9668,-5.9189,0.0,0.0,0.0,0.0,0.0,0.0,0.0,-3.6387,-3.6816,-3.7207,-3.7637,-3.8086,-3.8476,-3.8555,-3.8574,-3.8574,0.0,0.0,0.0,0.0,0.0,0.0,0.0,0.0,-4.6532,-4.6485,-4.6485,-4.6665,-4.6532,-4.6532,-4.6532,-4.4914,-4.505,-4.6689,-4.7187,-4.7732,0.0,0.0,0.0,0.0,-5.2377,-5.2477,0.0,0.0,0.0,0.0,0.0,0.0,0.0,0.0,0.0,0.0,0.0,0.0,0.0,0.0,0.0,0.0,0.0,-5.2302,0.0,0.0,0.0,0.0,0.0,0.0,0.0,0.0,0.0,0.0,-4.6301,-4.6301,-4.6301,-4.6301,-4.6301,0.0,0.0,0.0,0.0,0.0,0.0,0.0,0.0,0.0,0.0,0.0,0.0,0.0,0.0,-5.5155,-5.6076,-5.7751,-5.9475,-6.1258,-6.3079,-6.3079,-6.3079,-6.3079,-6.3079,-6.275,-6.2181,-6.2181,-6.1822,0.0,0.0,0.0,0.0,-6.0116,-5.9727,-5.9249,-5.9847,-5.9668,-5.9189,-5.9847,-5.9668,-5.9189,0.0,0.0,0.0,0.0,0.0,0.0,0.0,0.0,0.0,0.0,-3.7461,-3.7969,-3.8066,-3.8379,-3.8574,0.0,0.0,0.0,0.0,0.0,0.0,0.0,0.0,0.0,-4.4778,-4.3051,-4.3029,-4.4778,-4.3266,-4.3404,-4.4778,-4.4231,-4.4368,-4.4801,-4.4914,-4.546,0.0,0.0,0.0,0.0,-5.2203,-5.2804,0.0,0.0,0.0,0.0,-5.0444,-5.0092,0.0,0.0,0.0,0.0,0.0,0.0,0.0,0.0,-4.959,-4.969,-5.0067,0.0,-5.0419,-5.0519,-5.0368,-5.0042,0.0,0.0,0.0,0.0,0.0,0.0,0.0,-4.6301,-4.6301,-4.6301,-4.6301,0.0,0.0,0.0,0.0,0.0,0.0,0.0,0.0,0.0,0.0,0.0,0.0,0.0,0.0,-5.3563,-5.4299,-5.5945,-5.7724,-6.0022,-6.3079,-6.3079,-6.3079,-6.3079,-6.3079,-6.2989,-6.2839,-6.2839,-6.248,0.0,0.0,0.0,-6.0835,-6.0296,-5.9997,-5.9877,-6.0027,-5.9668,-5.9189,-5.9847,-5.9668,-5.9189,0.0,0.0,0.0,0.0,0.0,0.0,0.0,0.0,0.0,0.0,0.0,-3.75,-3.7891,-3.8144,0.0,0.0,0.0,0.0,0.0,0.0,0.0,0.0,0.0,-4.154,-4.2849,-4.1444,-4.1422,-4.287,-4.1749,-4.189,-4.2849,-4.2031,-4.2031,-4.287,-4.3328,-4.4233,0.0,0.0,0.0,-4.9698,-5.0239,0.0,0.0,0.0,0.0,0.0,-5.0293,-4.9992,0.0,-4.969,-4.959,-4.959,0.0,0.0,0.0,0.0,-4.959,-4.954,-4.9289,-4.9213,-4.9289,-4.954,-4.9414,-4.9213,-4.9163,0.0,0.0,0.0,0.0,0.0,0.0,0.0,0.0,0.0,0.0,0.0,0.0,0.0,0.0,0.0,0.0,0.0,0.0,0.0,0.0,0.0,0.0,0.0,0.0,-5.2929,-5.3674,-5.5287,-5.6337,-5.8481,-6.191,-6.2672,-6.3079,-6.3079,-6.3079,-6.3079,-6.3079,-6.3079,-6.272,0.0,0.0,0.0,-6.0625,-6.0565,-6.0206,-5.9668,-5.9967,-5.9668,-5.9189,-5.9847,-5.9668,-5.9189,0.0,0.0,0.0,0.0,0.0,0.0,0.0,0.0,0.0,0.0,0.0,0.0,0.0,0.0,0.0,0.0,0.0,0.0,0.0,0.0,0.0,0.0,-3.8164,-3.8783,-4.0796,-4.0443,-4.0464,-4.0921,-4.0921,-4.0963,-4.0882,-3.936,-3.9505,-4.1046,-4.2125,-4.3478,0.0,0.0,0.0,-4.8544,-4.8083,0.0,0.0,0.0,0.0,0.0,0.0,0.0,0.0,-4.9615,-4.959,-4.959,-4.959,0.0,0.0,0.0,0.0,0.0,-4.8912,-4.8761,-4.8887,-4.9364,-4.9113,-4.8887,-4.9364,0.0,0.0,0.0,0.0,0.0,0.0,0.0,0.0,0.0,0.0,0.0,0.0,0.0,0.0,0.0,0.0,0.0,0.0,0.0,0.0,0.0,0.0,0.0,0.0,-5.2929,-5.3538,-5.4916,-5.5287,-5.6801,-5.9721,-6.1407,-6.2438,-6.2672,-6.2672,-6.2817,-6.3079,-6.3079,-6.272,-6.2091,0.0,0.0,-6.0296,-6.0864,-6.0386,-5.9308,-5.9877,-5.9668,-5.9189,-5.9727,-5.9578,-5.9189,0.0,0.0,0.0,0.0,0.0,0.0,0.0,0.0,0.0,0.0,0.0,0.0,0.0,0.0,0.0,0.0,0.0,0.0,0.0,0.0,0.0,-3.8555,-3.8164,-3.8092,-3.8438,-3.8379,-3.8556,-3.8991,-3.8991,-3.9169,-3.9524,-3.9249,-3.9249,-3.9524,-4.1524,-4.1586,-4.0459,-4.409,0.0,-4.6252,-4.7769,0.0,0.0,0.0,0.0,0.0,0.0,0.0,0.0,-4.9741,-4.959,-4.959,-4.959,0.0,0.0,0.0,0.0,0.0,-4.8912,-4.8761,-4.8786,-4.8887,-4.8837,-4.8786,-4.8887,0.0,0.0,0.0,0.0,0.0,0.0,0.0,0.0,0.0,0.0,0.0,0.0,0.0,0.0,0.0,0.0,0.0,0.0,0.0,0.0,0.0,0.0,0.0,0.0,-5.2929,-5.3067,-5.3316,-5.4675,-5.5683,-5.618,-5.785,-5.9503,-6.087,-6.087,-6.1644,-6.3079,-6.3079,-6.272,-6.2091,0.0,-6.1672,-6.0954,-6.1074,-6.0655,-5.9937,-6.0057,-5.9668,-5.9129,-5.9219,-5.9189,-5.9129,0.0,0.0,0.0,0.0,0.0,0.0,0.0,0.0,0.0,0.0,0.0,0.0,0.0,0.0,0.0,0.0,0.0,0.0,0.0,0.0,-3.8262,-3.8223,-3.8262,-3.8281,-3.8281,-3.8047,-3.8242,-3.8906,-3.8906,-3.9141,-3.957,-3.9316,-3.9199,-3.9199,-4.0211,-4.0065,-3.9347,-4.1378,-4.2767,-4.3751,0.0,0.0,0.0,0.0,0.0,0.0,0.0,0.0,0.0,0.0,-4.959,-4.959,-4.959,0.0,0.0,0.0,0.0,0.0,-4.8535,-4.8309,-4.8309,-4.8309,-4.8535,-4.8837,-4.9163,0.0,0.0,0.0,0.0,0.0,0.0,0.0,0.0,0.0,0.0,0.0,0.0,0.0,0.0,0.0,0.0,0.0,0.0,0.0,0.0,0.0,0.0,0.0,0.0,0.0,-5.2929,-5.2929,-5.3674,-5.4055,-5.4055,-5.4835,-5.6956,-6.048,-6.048,-6.1377,-6.3079,-6.3079,-6.2899,-6.26,0.0,-6.1732,-6.1074,-6.0715,-6.0146,-5.9548,-5.9548,-5.9578,-5.9638,-5.9638,-5.9398,-5.9099,0.0,0.0,0.0,0.0,0.0,0.0,0.0,0.0,0.0,0.0,0.0,0.0,0.0,0.0,0.0,0.0,0.0,0.0,0.0,-3.7969,-3.8223,-3.8086,-3.8398,-3.8535,-3.8418,-3.8301,-3.8535,-3.9199,-3.9316,-3.959,-4.0039,-3.957,-3.9355,-3.9355,-3.9141,-3.9062,-3.9062,-3.9062,-4.0177,-4.1973,0.0,0.0,0.0,0.0,0.0,0.0,0.0,0.0,0.0,0.0,0.0,0.0,0.0,0.0,0.0,-4.959,-4.9515,-4.9188,-4.8184,-4.7908,-4.7908,-4.7908,0.0,-4.8786,-4.959,0.0,0.0,0.0,0.0,0.0,0.0,0.0,0.0,0.0,0.0,0.0,0.0,0.0,0.0,0.0,0.0,0.0,0.0,0.0,0.0,0.0,0.0,0.0,0.0,0.0,-5.2929,-5.2929,-5.2929,-5.2929,-5.2929,-5.2929,-5.5075,-5.9352,-5.9721,-6.087,-6.2555,-6.2784,-6.2839,-6.281,-6.2151,-6.1493,-6.0835,-6.0296,-5.9697,-5.9099,-5.9099,-5.9398,-5.9847,-5.9847,-5.9548,-5.9099,0.0,0.0,0.0,0.0,0.0,0.0,0.0,0.0,0.0,0.0,0.0,0.0,0.0,0.0,0.0,0.0,0.0,0.0,0.0,-3.7578,-3.7734,-3.8496,-3.8555,-3.8379,-3.7969,-3.8711,-3.9141,-3.9199,-3.9629,-4.0059,-4.0469,-4.0039,-3.9844,-3.9805,-3.8984,-3.8613,-3.8613,-3.8613,-3.9734,-4.1389,-4.1488,0.0,0.0,0.0,0.0,0.0,0.0,0.0,0.0,0.0,0.0,0.0,0.0,0.0,-4.959,-4.959,-4.9238,-4.8711,-4.8083,-4.7908,-4.7908,-4.7908,-4.7933,0.0,-4.9992,-5.0368,0.0,0.0,0.0,0.0,0.0,0.0,0.0,0.0,0.0,0.0,0.0,0.0,0.0,0.0,0.0,0.0,0.0,0.0,0.0,0.0,0.0,0.0,0.0,0.0,0.0,-5.2929,-5.2929,-5.2929,-5.2929,-5.2929,-5.3784,-5.5787,-5.7341,-5.9104,-6.0721,-6.167,-6.2181,-6.2121,-6.1463,-6.0805,-6.0146,-6.0116,-5.9697,-5.9099,-5.9099,-5.9129,-5.9189,-5.9189,-5.9129,-5.9099,0.0,0.0,0.0,0.0,0.0,0.0,0.0,0.0,0.0,0.0,0.0,0.0,0.0,0.0,0.0,0.0,0.0,0.0,0.0,-3.7637,-3.7832,-3.8164,-3.8437,-3.8359,-3.793,-3.8769,-3.9336,-3.9629,-4.0351,-4.0644,-4.0508,-4.0098,-3.9746,-3.9434,-3.8848,-3.8574,-3.8574,-3.8574,-3.8991,-3.9674,-4.0779,-4.1749,0.0,0.0,0.0,0.0,0.0,0.0,0.0,0.0,-4.959,-4.959,-4.959,-4.959,-4.9515,-4.9188,-4.8937,-4.8586,-4.7682,-4.7431,-4.7506,-4.7832,0.0,0.0,0.0,0.0,0.0,0.0,0.0,0.0,0.0,0.0,0.0,0.0,0.0,0.0,0.0,0.0,0.0,0.0,0.0,0.0,0.0,0.0,0.0,0.0,0.0,0.0,0.0,0.0,0.0,-5.2929,-5.2929,-5.2929,-5.2929,-5.2578,-5.2649,-5.3407,-5.5022,-5.7465,-6.0451,-6.018,-6.0816,-6.2032,-6.0954,-6.0326,-6.0057,-5.9638,-5.9338,-5.9189,-6.0027,-6.0086,-5.9757,-6.0206,-5.9817,-5.9099,0.0,0.0,0.0,0.0,0.0,0.0,0.0,0.0,0.0,0.0,0.0,0.0,0.0,0.0,0.0,0.0,0.0,0.0,-3.7305,-3.7695,-3.793,-3.793,-3.834,-3.8437,-3.8144,-3.8828,-3.9434,-3.9902,-4.0762,-4.0957,-4.0508,-4.0098,-3.9648,-3.918,-3.8769,-3.8574,-3.8574,-3.8574,-3.8574,-3.872,-3.9962,-4.0514,0.0,0.0,0.0,0.0,0.0,0.0,0.0,0.0,-4.9177,-4.959,-4.959,-4.959,-4.949,-4.8937,-4.8636,-4.8309,-4.738,-4.7004,-4.7054,0.0,0.0,0.0,0.0,0.0,0.0,0.0,0.0,0.0,0.0,0.0,0.0,0.0,0.0,0.0,0.0,0.0,0.0,0.0,0.0,0.0,0.0,0.0,0.0,0.0,0.0,0.0,0.0,0.0,0.0,0.0,-5.2929,-5.2929,-5.2929,-5.2377,-5.2101,-5.2101,-5.2847,-5.5055,-5.8334,-5.8427,-5.9276,-6.0664,-6.0015,-5.9787,-5.9727,-5.9279,-5.9099,-5.9189,-6.0116,-6.0206,-5.9847,-6.0535,-6.0086,-5.9129,0.0,0.0,0.0,0.0,0.0,0.0,0.0,0.0,0.0,0.0,0.0,0.0,0.0,0.0,0.0,0.0,0.0,0.0,-3.7305,-3.7695,-3.793,-3.793,-3.834,-3.8574,-3.8574,-3.8984,-3.9434,-3.9902,-4.0742,-4.0937,-4.0508,-4.0098,-3.9648,-3.918,-3.8769,-3.8574,-3.8574,-3.8574,-3.8574,-3.8574,-3.8574,-3.8574,-3.8865,0.0,0.0,0.0,0.0,0.0,0.0,0.0,-4.806,-4.959,-4.959,-4.959,-4.949,-4.8937,-4.836,-4.7782,-4.728,-4.6728,0.0,0.0,0.0,0.0,0.0,0.0,0.0,0.0,0.0,0.0,0.0,0.0,0.0,0.0,0.0,0.0,0.0,0.0,0.0,0.0,0.0,0.0,0.0,0.0,0.0,0.0,0.0,0.0,0.0,0.0,0.0,0.0,-5.2929,-5.2929,-5.2929,-5.2377,-5.2101,-5.2076,-5.0946,-5.156,-5.3933,-5.6479,-5.7657,-5.7744,-5.8682,-5.9099,-5.9099,-5.9099,-5.9099,-5.9129,-5.9129,-5.9129,-5.9189,-5.9847,-5.9668,-5.9189,0.0,0.0,0.0,0.0,0.0,0.0,0.0,0.0,0.0,0.0,0.0,0.0,0.0,0.0,0.0,0.0,0.0,0.0,-3.7734,-3.7851,-3.793,-3.793,-3.834,-3.8437,-3.8125,-3.8828,-3.9434,-3.9902,-4.0156,-4.0039,-3.959,-3.9805,-3.9648,-3.9199,-3.9062,-3.9004,-3.9004,-3.8691,-3.8574,-3.8574,-3.8574,-3.8574,-3.8865,0.0,0.0,0.0,0.0,0.0,0.0,0.0,0.0,0.0,-4.806,-4.8477,-4.9414,-4.8435,-4.8033,-4.7707,-4.6803,-4.6728,0.0,0.0,0.0,0.0,0.0,0.0,0.0,0.0,0.0,0.0,0.0,0.0,0.0,0.0,0.0,0.0,0.0,0.0,0.0,0.0,0.0,0.0,0.0,0.0,0.0,0.0,0.0,0.0,0.0,0.0,0.0,0.0,-5.2929,-5.2729,-5.2352,-5.2176,-5.19,-5.1523,-5.077,-5.156,-5.3779,-5.4864,-5.5597,-5.617,-5.8179,-5.8495,-5.7552,-5.8634,-5.9368,-5.9787,-5.9787,-5.9787,-5.9817,-6.0027,-5.9668,-5.9129,0.0,0.0,0.0,0.0,0.0,0.0,0.0,0.0,0.0,0.0,0.0,0.0,0.0,0.0,0.0,0.0,0.0,0.0,0.0,-3.8086,-3.8105,-3.793,-3.834,-3.8457,-3.8184,-3.8691,-3.9082,-3.9375,-3.9726,-3.9668,-3.9219,-3.9668,-3.9648,-3.9199,-3.9199,-3.9199,-3.918,-3.875,-3.8574,-3.8574,-3.8574,-3.8574,-3.872,0.0,0.0,0.0,0.0,0.0,0.0,0.0,0.0,0.0,-4.613,-4.6414,-4.692,-4.6054,-4.6324,-4.6683,-4.5847,0.0,0.0,0.0,0.0,0.0,0.0,0.0,0.0,0.0,0.0,0.0,0.0,0.0,0.0,0.0,0.0,0.0,0.0,0.0,0.0,0.0,0.0,0.0,0.0,0.0,0.0,0.0,0.0,0.0,0.0,0.0,0.0,0.0,-5.2929,-5.2779,-5.2427,-5.2,-5.1599,-5.1272,-5.0469,-5.0738,-5.2154,-5.3021,-5.3619,-5.416,-5.688,-5.7915,-5.7664,-5.8743,-5.9338,-5.9697,-5.9697,-5.9697,-5.9727,-5.9997,-5.9668,-5.9129,0.0,0.0,0.0,0.0,0.0,0.0,0.0,0.0,0.0,0.0,-3.8574,0.0,0.0,0.0,0.0,0.0,0.0,0.0,0.0,-3.8359,-3.8398,-3.8008,-3.8398,-3.8613,-3.8574,-3.8613,-3.8613,-3.8574,-3.9375,-3.9551,-3.916,-3.9668,-3.9668,-3.9258,-3.9258,-3.9258,-3.9238,-3.8769,-3.8574,-3.8574,-3.8574,-3.8574,-3.8574,-3.8574,0.0,0.0,0.0,0.0,0.0,0.0,0.0,0.0,-4.3841,-4.3621,-4.3265,-4.2839,-4.3848,-4.5029,0.0,0.0,0.0,0.0,0.0,0.0,0.0,0.0,0.0,0.0,0.0,0.0,0.0,0.0,0.0,0.0,0.0,0.0,0.0,0.0,0.0,0.0,0.0,0.0,0.0,0.0,0.0,0.0,0.0,0.0,0.0,0.0,0.0,-5.2929,-5.2879,-5.2829,-5.2779,-5.1774,-5.1247,-5.1197,-5.0167,-4.9665,-4.9794,-5.1294,-5.2086,-5.2332,-5.5299,-5.744,-5.8882,-5.8991,-5.9099,-5.9099,-5.9099,-5.9099,-5.9189,-5.9787,-5.9608,-5.9189,0.0,0.0,0.0,0.0,0.0,0.0,0.0,0.0,0.0,0.0,0.0,0.0,0.0,0.0,0.0,0.0,0.0,0.0,0.0,-3.8516,-3.8535,-3.8437,-3.8848,-3.8906,-3.8574,-3.8906,-3.8906,-3.8574,-3.8769,-3.8809,-3.873,-3.9531,-3.9844,-3.9746,-3.9746,-3.9746,-3.9687,-3.8906,-3.8574,-3.8574,-3.8574,-3.8574,-3.8574,-3.8574,-3.8574,0.0,0.0,0.0,0.0,0.0,0.0,0.0,-4.2312,-4.2522,-4.3332,-4.3242,-4.3196,-4.3539,0.0,0.0,0.0,0.0,0.0,0.0,0.0,0.0,0.0,0.0,0.0,0.0,0.0,0.0,0.0,0.0,0.0,0.0,0.0,0.0,0.0,0.0,0.0,0.0,0.0,0.0,0.0,0.0,0.0,0.0,0.0,0.0,0.0,-5.2929,-5.2503,-5.2076,-5.1649,-5.1398,-5.1046,0.0,-5.0368,-5.0243,-5.0218,-5.1476,-5.27,-5.391,-5.4623,-5.5791,-5.7328,-5.8634,-5.9099,-5.9099,-5.9099,-5.9099,-5.9129,-5.9249,-5.9219,-5.9129,0.0,0.0,0.0,0.0,0.0,0.0,0.0,0.0,0.0,0.0,0.0,0.0,0.0,0.0,0.0,0.0,0.0,0.0,0.0,0.0,-3.8574,-3.8574,-3.8984,-3.9004,-3.8594,-3.8984,-3.9004,-3.8574,-3.8574,-3.8574,-3.8594,-3.9258,-3.957,-3.957,-3.957,-3.957,-3.9512,-3.8848,-3.8574,-3.8574,-3.8574,-3.8574,-3.8574,-3.8574,-3.8574,-3.8574,-3.8574,0.0,0.0,0.0,0.0,0.0,0.0,0.0,-4.0456,-4.0456,-4.0836,-4.1568,0.0,0.0,0.0,0.0,0.0,0.0,0.0,0.0,0.0,0.0,0.0,0.0,0.0,0.0,0.0,0.0,0.0,0.0,0.0,0.0,0.0,0.0,0.0,0.0,0.0,0.0,0.0,0.0,0.0,0.0,0.0,-5.2929,-5.2929,-5.2929,-5.2653,-5.2226,-5.1674,-5.1674,-5.1398,-5.082,-5.0544,-5.0268,-5.0017,-5.0563,-5.1741,-5.3308,-5.4029,-5.5327,-5.6849,-5.8386,-5.9099,-5.9099,-5.9099,-5.9099,-5.9099,-5.9099,-5.9099,-5.9099,0.0,0.0,0.0,0.0,0.0,0.0,0.0,0.0,0.0,0.0,0.0,0.0,0.0,0.0,0.0,0.0,0.0,0.0,0.0,0.0,0.0,-3.8574,-3.8984,-3.9004,-3.8594,-3.8984,-3.9004,-3.8574,-3.8574,-3.8613,-3.8691,-3.9043,-3.9199,-3.9199,-3.9199,-3.9199,-3.918,-3.875,-3.8574,-3.8574,-3.8574,-3.8574,-3.8574,-3.8574,-3.8574,-3.8574,-3.8574,-3.8574,-3.8574,-3.8574,0.0,0.0,0.0,0.0,-3.7305,-3.7383,-3.8386,-3.9646,0.0,0.0,0.0,0.0,0.0,0.0,0.0,0.0,0.0,0.0,0.0,0.0,0.0,0.0,0.0,0.0,0.0,0.0,0.0,0.0,0.0,0.0,0.0,0.0,0.0,0.0,0.0,0.0,0.0,0.0,-5.2929,-5.2929,-5.2929,-5.2929,-5.2829,-5.2578,-5.2101,-5.2026,-5.1724,-5.1272,-5.0695,-5.0117,-4.959,-4.959,-5.0308,-5.1616,-5.3308,-5.4859,-5.6366,-5.8026,-5.8852,-5.9099,-5.9099,-5.9099,-5.9099,-5.9099,-5.9099,-5.9099,0.0,0.0,0.0,0.0,0.0,0.0,0.0,0.0,0.0,0.0,0.0,0.0,0.0,0.0,0.0,0.0,0.0,0.0,-3.8574,0.0,0.0,-3.8574,-3.8984,-3.9004,-3.8594,-3.8984,-3.9004,-3.8574,-3.8574,-3.8769,-3.9121,-3.918,-3.9199,-3.9199,-3.9199,-3.9199,-3.918,-3.875,-3.8574,-3.8574,-3.8574,-3.8574,-3.8574,-3.8574,-3.8574,-3.8574,-3.8574,-3.8574,-3.8574,-3.8574,-3.8574,0.0,0.0,0.0,-3.7363,-3.7734,-3.7465,-3.7708,0.0,0.0,0.0,0.0,0.0,0.0,0.0,0.0,0.0,0.0,0.0,0.0,0.0,0.0,0.0,0.0,0.0,0.0,0.0,0.0,0.0,0.0,0.0,0.0,0.0,0.0,0.0,0.0,0.0,0.0,-5.2929,-5.2929,-5.2929,-5.2929,-5.2477,-5.2176,-5.2101,-5.1624,-5.1348,-5.1272,-5.0695,-5.0117,-4.959,-4.959,-4.9719,-4.995,-5.1616,-5.3187,-5.4859,-5.6366,-5.7804,-5.9099,-5.9099,-5.9099,-5.9099,-5.9099,-5.9099,-5.9099,0.0,0.0,0.0,0.0,0.0,0.0,0.0,0.0,0.0,0.0,0.0,0.0,0.0,0.0,0.0,-3.8574,-3.8574,-3.8574,-3.8574,-3.8574,-3.8574,-3.8574,-3.8984,-3.9004,-3.8594,-3.8984,-3.9004,-3.8574,-3.8574,-3.8789,-3.9199,-3.9199,-3.9336,-3.957,-3.9316,-3.9199,-3.918,-3.875,-3.8574,-3.8574,-3.8574,-3.8574,-3.8574,-3.8574,-3.8574,-3.8574,-3.8574,-3.8574,-3.8574,-3.8574,-3.8574,-3.8574,-3.8574,0.0,0.0,0.0,0.0,0.0,0.0,0.0,0.0,0.0,0.0,0.0,0.0,0.0,0.0,0.0,0.0,0.0,0.0,0.0,0.0,0.0,0.0,0.0,0.0,0.0,0.0,0.0,0.0,0.0,0.0,0.0,0.0,0.0,0.0,-5.2929,-5.2929,-5.2929,-5.2929,-5.2929,-5.2678,-5.2427,-5.2101,-5.2176,-5.19,-5.1272,-5.1021,-5.0444,-4.959,-4.959,-4.959,-4.9719,-5.1268,-5.2944,-5.4505,-5.6022,-5.7664,-5.9099,-5.9099,-5.9099,-5.9099,-5.9099,-5.9099,-5.9099,0.0,0.0,0.0,0.0,0.0,0.0,0.0,0.0,0.0,0.0,0.0,0.0,0.0,0.0,0.0,0.0,-3.8574,-3.8574,-3.8574,-3.8574,-3.8574,-3.8574,-3.8887,-3.8887,-3.8574,-3.8887,-3.8887,-3.8574,-3.8574,-3.8848,-3.9375,-3.9375,-3.9687,-4.0195,-3.9629,-3.9375,-3.9355,-3.8926,-3.873,-3.873,-3.8613,-3.8574,-3.8574,-3.8574,-3.8574,-3.8574,-3.8574,-3.8574,0.0,0.0,0.0,0.0,-3.8281,-3.7734,0.0,0.0,0.0,0.0,0.0,0.0,0.0,0.0,0.0,0.0,0.0,0.0,0.0,0.0,0.0,0.0,0.0,0.0,0.0,0.0,0.0,0.0,0.0,0.0,0.0,0.0,0.0,0.0,0.0,0.0,0.0,0.0,0.0,-5.2929,-5.2929,-5.2929,-5.2929,-5.2929,-5.2929,-5.2729,-5.2327,-5.2729,-5.2377,-5.1272,-5.1272,-5.0695,-4.959,-4.959,-4.959,-4.9719,-5.0916,-5.2359,-5.391,-5.5444,-5.7075,-5.8495,-5.8991,-5.9099,-5.9099,-5.9099,-5.9099,-5.9099,0.0,0.0,0.0,0.0,0.0,0.0,0.0,0.0,0.0,0.0,0.0,0.0,-3.8574,-3.8574,-3.8574,-3.8574,-3.8574,-3.8574,-3.8574,-3.8574,-3.8574,-3.8574,-3.8594,0.0,-3.8574,-3.8594,-3.8594,-3.8574,-3.8574,-3.9023,-3.9863,-3.9863,-4.0312,-4.1074,-4.0234,-3.9863,-3.9824,-3.9375,-3.916,-3.9141,-3.873,-3.8574,-3.8574,-3.8574,-3.8574,-3.8574,-3.8574,0.0,0.0,0.0,0.0,0.0,0.0,0.0,0.0,0.0,0.0,0.0,0.0,0.0,0.0,0.0,0.0,0.0,0.0,0.0,0.0,0.0,0.0,0.0,0.0,0.0,0.0,0.0,0.0,0.0,0.0,0.0,0.0,0.0,0.0,0.0,0.0,0.0,0.0,0.0,0.0,-5.2929,-5.2929,-5.2929,-5.2929,-5.2929,-5.2929,-5.2904,-5.2879,-5.2904,-5.2377,-5.1272,-5.1272,-5.0695,-4.959,-4.959,-4.959,-4.959,-4.9719,-5.0664,-5.2209,-5.391,-5.5444,-5.6962,-5.8495,-5.9099,-5.9099,-5.9099,-5.9099,-5.9099,0.0,0.0,0.0,0.0,0.0,0.0,0.0,0.0,0.0,0.0,0.0,0.0,0.0,-3.8574,-3.8574,-3.8574,-3.8574,-3.8574,-3.8574,-3.8574,-3.8574,-3.8574,-3.8574,-3.8574,-3.8574,-3.8574,-3.8574,-3.8574,-3.8574,-3.8867,-3.9453,-3.9453,-3.9922,-4.0742,-4.043,-4.0156,-3.9863,-3.9394,-3.9043,-3.8789,-3.8633,-3.8574,-3.8574,-3.8574,-3.8574,0.0,0.0,0.0,0.0,0.0,0.0,0.0,0.0,0.0,0.0,0.0,0.0,0.0,0.0,0.0,0.0,0.0,0.0,0.0,0.0,0.0,0.0,0.0,0.0,0.0,0.0,0.0,0.0,0.0,0.0,0.0,0.0,0.0,0.0,0.0,0.0,0.0,0.0,0.0,0.0,0.0,0.0,-5.2929,-5.2929,-5.2929,-5.2929,-5.2929,-5.2929,-5.2929,-5.2929,-5.2929,-5.2377,-5.1272,-5.1272,-5.0695,-4.959,-4.959,-4.959,-4.959,-4.959,-5.0563,-5.2086,-5.379,-5.5327,-5.6849,-5.8495,-5.9099,-5.9099,-5.9099,-5.9099,-5.9099,0.0,0.0,0.0,0.0,0.0,0.0,0.0,0.0,0.0,0.0,0.0,0.0,0.0,0.0,-3.8574,-3.8574,-3.8574,-3.8574,-3.8574,-3.8574,-3.8574,-3.8574,-3.8574,-3.8574,-3.8574,-3.8437,-3.8418,-3.8574,-3.8418,-3.8652,-3.9199,-3.9199,-3.959,-4.0312,-4.0312,-4.0312,-4.0293,-3.9687,-3.9277,-3.8984,-3.8691,-3.8574,-3.8594,0.0,0.0,0.0,0.0,0.0,0.0,0.0,0.0,0.0,0.0,0.0,0.0,0.0,0.0,0.0,0.0,0.0,0.0,0.0,0.0,0.0,0.0,0.0,0.0,0.0,0.0,0.0,0.0,0.0,0.0,0.0,0.0,0.0,0.0,0.0,0.0,0.0,0.0,0.0,0.0,0.0,0.0,0.0,0.0,0.0,-5.2929,-5.2929,-5.2929,-5.2929,-5.2929,-5.2929,-5.2929,-5.2929,-5.2377,-5.1272,-5.1272,-5.0695,-4.959,-4.959,-4.959,-4.959,-4.959,-5.0181,-5.1268,-5.2944,-5.4505,-5.6022,-5.7664,-5.8634,-5.9099,-5.9099,-5.9099,-5.9099,0.0,0.0,0.0,0.0,0.0,0.0,0.0,0.0,0.0,-3.8574,0.0,0.0,0.0,0.0,0.0,-3.8574,-3.8574,-3.8574,-3.8574,-3.8574,-3.8574,-3.8574,-3.8574,-3.8574,-3.8574,-3.8164,-3.8144,-3.8574,-3.8144,-3.8359,-3.918,-3.918,-3.9434,-3.9883,-3.9883,-4.0351,-4.1074,-4.0234,-3.9863,-3.9785,0.0,-3.8574,-3.8613,0.0,0.0,0.0,-3.9043,-3.8906,0.0,0.0,0.0,0.0,0.0,0.0,0.0,0.0,0.0,0.0,0.0,0.0,0.0,0.0,0.0,0.0,0.0,0.0,0.0,0.0,0.0,0.0,0.0,0.0,0.0,0.0,0.0,0.0,0.0,0.0,0.0,0.0,0.0,0.0,0.0,0.0,0.0,0.0,0.0,-5.2929,-5.2929,-5.2929,-5.2929,-5.2929,-5.2929,-5.2929,-5.2929,-5.2929,-5.2377,-5.1272,-5.1272,-5.0695,-4.959,-4.959,-4.959,-4.959,-4.959,-4.959,-4.9719,-5.1393,-5.2944,-5.4505,-5.6022,-5.7664,-5.8991,-5.9099,-5.9099,-5.9099,0.0,0.0,0.0,0.0,0.0,0.0,-3.8574,-3.8574,-3.8574,0.0,0.0,0.0,-3.9004,-3.9023,-3.8906,-3.8613,-3.8574,-3.8574,-3.8574,-3.8574,-3.8574,-3.8574,-3.8574,-3.8574,-3.8574,-3.8457,-3.8457,-3.8574,-3.8457,-3.8516,-3.875,-3.875,-3.8984,-3.9394,-3.9394,-3.9707,-4.0215,-3.9629,0.0,-3.8926,-3.8672,-3.8574,0.0,0.0,0.0,0.0,0.0,-3.8476,0.0,0.0,-3.7637,-3.7226,0.0,0.0,0.0,0.0,0.0,0.0,-3.6016,0.0,0.0,0.0,0.0,0.0,0.0,0.0,0.0,0.0,0.0,0.0,0.0,0.0,0.0,0.0,0.0,0.0,0.0,0.0,0.0,0.0,0.0,0.0,0.0,0.0,0.0,0.0,-5.2929,-5.2929,-5.2929,-5.2929,-5.2929,-5.2929,-5.2929,-5.2929,-5.2929,-5.2929,-5.2377,-5.1272,-5.1272,-5.0695,-4.959,-4.959,-4.959,-4.959,-4.959,-4.959,-4.9719,-5.1393,-5.2209,-5.2944,-5.5647,-5.6962,-5.7552,-5.8634,-5.9099,-5.9099,0.0,0.0,0.0,0.0,0.0,-3.8574,-3.8574,-3.8574,-3.8574,0.0,0.0,0.0,-3.916,-3.9199,-3.9101,-3.8867,-3.8672,-3.8574,-3.8574,-3.8574,-3.8574,-3.8574,-3.8574,-3.8574,-3.8574,-3.8398,-3.8398,-3.8574,-3.8398,-3.8398,-3.8574,-3.8574,-3.8711,-3.8945,-3.8945,-3.9082,-3.9336,-3.9062,0.0,0.0,-3.8828,0.0,0.0,-3.9043,-3.9004,0.0,0.0,0.0,-3.8203,-3.8203,-3.791,0.0,0.0,0.0,0.0,0.0,0.0,0.0,-3.6016,-3.6016,0.0,0.0,0.0,0.0,-3.8503,-3.9986,0.0,0.0,0.0,0.0,0.0,0.0,0.0,0.0,0.0,0.0,0.0,0.0,0.0,0.0,0.0,0.0,0.0,-5.2929,-5.2929,-5.2929,-5.2929,-5.2929,-5.2929,-5.2929,-5.2929,-5.2929,-5.2929,-5.2929,-5.2929,-5.2929,-5.2377,-5.1272,-5.1272,-5.0695,-4.959,-4.959,-4.959,-4.959,-4.959,-4.959,-4.9719,-5.0664,-5.1393,-5.2209,-5.4002,-5.5182,-5.5791,-5.6736,-5.7581,-5.8136,0.0,0.0,-3.8574,-3.8574,-3.8613,-3.8652,-3.8652,-3.8652,-3.8652,0.0,-3.8691,-3.8828,-3.9101,-3.9219,-3.9238,-3.9141,-3.8789,-3.8574,-3.8574,-3.8574,-3.8574,-3.8574,-3.8574,-3.8574,-3.8574,-3.8203,-3.8184,-3.8574,-3.8144,-3.8144,-3.8574,-3.8535,-3.8535,-3.8574,-3.8574,-3.8574,-3.8574,0.0,0.0,-3.9141,-3.918,-3.9199,0.0,0.0,-3.9609,0.0,-3.9199,-3.8926,-3.8574,-3.8574,-3.8281,0.0,0.0,0.0,0.0,0.0,-3.6094,0.0,-3.6094,-3.6094,-3.6191,0.0,0.0,0.0,-3.6992,-3.8543,-4.0013,0.0,0.0,0.0,0.0,0.0,0.0,0.0,0.0,0.0,0.0,0.0,0.0,0.0,0.0,0.0,-5.2929,-5.2929,-5.2929,-5.2929,-5.2929,-5.2929,-5.2929,-5.2929,-5.2929,-5.2929,-5.2929,-5.2929,-5.2929,-5.2929,-5.2402,-5.1373,-5.1322,-5.072,-4.969,-4.9615,-4.959,-4.959,-4.959,-4.959,-4.959,-4.959,-5.0436,-5.1741,-5.1989,-5.2822,-5.4149,-5.4268,-5.5327,-5.648,0.0,0.0,-3.8574,-3.8574,-3.8848,-3.9082,-3.9082,-3.9082,-3.9082,-3.9082,-3.9414,-3.9394,-3.8769,-3.9336,-3.9473,-3.875,-3.8613,-3.8574,-3.8574,-3.8574,-3.8574,-3.8574,-3.8574,-3.8574,-3.8574,-3.8496,-3.8496,-3.8574,-3.8144,-3.8144,-3.8574,-3.8223,-3.8242,-3.8574,-3.8574,-3.8574,-3.8574,0.0,0.0,-3.873,-3.9062,0.0,-3.9258,-3.9726,-3.9609,-3.9199,-3.9199,-3.8926,-3.8574,0.0,-3.8281,-3.7891,0.0,0.0,0.0,0.0,0.0,0.0,0.0,0.0,0.0,0.0,0.0,0.0,-3.6309,-3.6799,-3.7766,0.0,0.0,0.0,0.0,0.0,0.0,0.0,0.0,0.0,0.0,0.0,0.0,0.0,0.0,0.0,-5.2929,-5.2929,-5.2929,-5.2929,-5.2929,-5.2929,-5.2929,-5.2929,-5.2929,-5.2929,-5.2929,-5.2929,-5.2929,-5.2929,-5.2603,-5.195,-5.1498,-5.0921,-5.0243,-4.9791,-4.959,-4.959,-4.959,-4.959,-4.959,-4.959,-4.9847,-5.0181,-5.1492,-5.2209,-5.2578,-5.391,-5.4623,-5.4976,0.0,-3.8574,-3.8574,-3.8574,-3.8926,-3.9199,-3.9199,-3.9199,-3.9199,-3.9199,-3.9394,-3.9375,-3.8945,-3.9277,-3.9375,-3.8926,-3.8691,-3.8574,-3.8574,-3.8574,-3.8574,-3.8574,-3.8574,-3.8574,-3.8574,-3.8574,-3.8574,-3.8574,-3.8359,-3.8359,-3.8574,-3.8359,-3.8359,-3.8574,-3.8574,-3.8574,-3.8574,0.0,-3.8574,-3.8613,-3.9023,0.0,-3.9219,-3.9453,-3.9394,-3.918,-3.8965,-3.875,-3.8574,-3.8574,-3.8418,0.0,0.0,-3.7773,-3.7519,0.0,-3.6992,-3.6992,0.0,0.0,0.0,-3.6992,0.0,0.0,0.0,-3.6504,-3.6937,-3.7859,0.0,0.0,0.0,0.0,0.0,0.0,0.0,0.0,0.0,0.0,0.0,0.0,0.0,0.0,-5.2929,-5.2929,-5.2929,-5.2929,-5.2929,-5.2929,-5.2929,-5.2929,-5.2929,-5.2929,-5.2929,-5.2929,-5.2929,-5.2929,-5.2653,-5.2101,-5.1548,-5.0971,-5.0393,-4.9841,-4.959,-4.959,-4.959,-4.959,-4.959,-4.959,-4.959,-4.9719,-5.0563,-5.079,-5.0916,-5.1767,-5.2482,-5.3308,0.0,0.0,-3.7951,-3.797,-3.8612,-3.9199,-3.9199,-3.9199,-3.918,-3.9082,-3.9141,-3.918,-3.9082,-3.8844,-3.8547,-3.8471,-3.7849,-3.7658,0.0,0.0,-3.8039,-3.8574,-3.8496,-3.8496,-3.8574,-3.8574,-3.8574,-3.8574,-3.8496,-3.8496,-3.8574,-3.8398,-3.8418,-3.8574,-3.8496,-3.8496,-3.8574,0.0,0.0,-3.8711,0.0,-3.9121,-3.9219,-3.9297,-3.9277,-3.9141,-3.873,-3.8574,-3.8574,-3.8574,0.0,-3.8516,-3.8164,-3.8047,0.0,0.0,0.0,0.0,0.0,0.0,0.0,0.0,0.0,-3.6875,0.0,0.0,0.0,-3.6562,0.0,0.0,0.0,0.0,0.0,0.0,0.0,0.0,0.0,0.0,0.0,0.0,0.0,0.0,0.0,-5.2854,-5.2929,-5.2929,-5.2929,-5.2929,-5.2929,-5.2929,-5.2929,-5.2929,-5.2929,-5.2929,-5.2929,-5.2929,-5.2703,-5.2251,-5.1699,-5.1197,-5.072,-5.0067,-4.9816,-4.9916,-4.9791,-4.9741,-4.9741,-4.9741,-4.969,-4.959,-4.959,-4.959,-4.959,-4.959,-5.0436,-5.1616,-3.3196,-3.4601,0.0,-3.5849,-3.7705,-3.9199,-3.9199,-3.9199,-3.9062,-3.8691,-3.8965,-3.9062,0.0,0.0,0.0,0.0,0.0,0.0,-3.5812,0.0,-3.6365,-3.8555,-3.8203,-3.8184,-3.8574,-3.8574,-3.8574,-3.8574,-3.8184,-3.8203,-3.8555,-3.7793,-3.7851,-3.8555,-3.8164,0.0,0.0,0.0,-3.8789,0.0,-3.8769,-3.8867,0.0,-3.9668,-3.9551,-3.9141,-3.873,-3.8574,-3.8574,0.0,-3.8574,-3.8574,0.0,-3.8496,-3.8418,0.0,0.0,0.0,0.0,0.0,0.0,0.0,-3.7812,0.0,0.0,0.0,-3.6562,-3.6172,0.0,0.0,0.0,0.0,0.0,0.0,0.0,0.0,0.0,0.0,0.0,0.0,0.0,0.0,0.0,-5.2628,-5.2929,-5.2929,-5.2929,-5.2929,-5.2929,-5.2929,-5.2929,-5.2929,-5.2929,-5.2929,-5.2929,-5.2929,-5.2904,-5.2829,-5.2277,-5.1975,-5.1875,-5.082,-5.0594,-5.1071,-5.0544,-5.0318,-5.0318,-5.0318,-5.0042,-4.959,-4.959,-4.959,-4.959,-4.959,-4.9719,-5.0078,-3.343,-3.4723,0.0,-3.7014,-3.8105,-3.8926,-3.916,-3.9199,-3.9062,-3.8633,-3.873,-3.8867,0.0,0.0,0.0,0.0,0.0,0.0,0.0,0.0,-3.6257,-3.8555,-3.8398,0.0,-3.8574,-3.832,-3.8203,-3.8203,-3.7773,-3.7656,-3.7832,-3.7715,-3.7851,-3.8203,-3.8281,0.0,-3.8574,0.0,0.0,0.0,0.0,0.0,0.0,-3.9258,-3.9004,-3.8809,-3.8633,-3.8574,-3.8574,0.0,-3.8574,0.0,0.0,0.0,0.0,0.0,0.0,0.0,0.0,0.0,0.0,0.0,0.0,0.0,-3.748,0.0,-3.6973,0.0,0.0,0.0,0.0,0.0,0.0,0.0,-3.9765,0.0,0.0,0.0,0.0,0.0,0.0,0.0,0.0,0.0,0.0,0.0,-5.2277,-5.2452,-5.2452,-5.2754,-5.2929,-5.2929,-5.2929,-5.2929,-5.2929,-5.2929,-5.2929,-5.2929,-5.2377,-5.2101,-5.2076,-5.1272,-5.1046,-5.1247,-5.067,-5.0419,-5.0419,-5.0419,-5.0092,-4.9615,-4.9941,-4.9866,-4.959,-4.959,-4.959,-4.9719,-3.2509,0.0,0.0,0.0,-3.6713,-3.7759,-3.8642,-3.8848,-3.8789,0.0,0.0,0.0,-3.916,-3.812,0.0,0.0,0.0,-3.3804,0.0,0.0,-3.5366,0.0,0.0,0.0,0.0,-3.7856,-3.793,-3.793,-3.75,-3.7363,-3.7461,-3.7539,-3.7773,-3.8105,0.0,-3.8359,-3.8574,0.0,0.0,-3.9375,-3.9062,-3.9238,-3.9629,-3.8984,-3.8672,-3.8574,-3.8574,-3.8574,-3.8574,-3.8574,-3.8574,0.0,-3.8574,0.0,0.0,0.0,0.0,0.0,-3.8574,0.0,0.0,0.0,0.0,0.0,0.0,0.0,0.0,0.0,0.0,0.0,0.0,0.0,0.0,0.0,0.0,-3.9413,0.0,0.0,0.0,0.0,0.0,0.0,0.0,0.0,0.0,0.0,0.0,-5.195,-5.2101,-5.2477,-5.2779,-5.2929,-5.2929,-5.2929,-5.2929,-5.2929,-5.2929,-5.2929,-5.2377,-5.2101,-5.2076,-5.1373,-5.1222,-5.1473,-5.0896,-5.0645,-5.0645,-5.0645,-5.0243,-4.964,-5.0042,-4.9941,-4.959,-4.959,-4.959,-4.959,-2.8297,-2.8792,0.0,0.0,0.0,0.0,-3.7604,0.0,0.0,0.0,0.0,0.0,0.0,0.0,0.0,0.0,0.0,-2.8228,-2.9942,0.0,-3.2505,0.0,0.0,0.0,0.0,0.0,-3.793,-3.793,-3.75,-3.75,-3.7891,-3.709,-3.7363,-3.8516,-3.7695,-3.7793,-3.8613,-3.9004,-3.9453,-3.9883,-3.9863,-3.9609,-3.9219,0.0,-3.8926,-3.8574,-3.8574,0.0,0.0,-3.8574,-3.8574,0.0,0.0,0.0,0.0,0.0,0.0,0.0,0.0,0.0,0.0,-3.8574,0.0,0.0,0.0,0.0,-3.7793,0.0,0.0,0.0,0.0,0.0,0.0,-3.6758,0.0,0.0,0.0,0.0,0.0,0.0,0.0,0.0,0.0,0.0,0.0,0.0,0.0,0.0,-5.2076,-5.2126,-5.2377,-5.2904,-5.2929,-5.2929,-5.2929,-5.2929,-5.2929,-5.2929,-5.2377,-5.2101,-5.2076,-5.0946,-5.1046,-5.2051,-5.1498,-5.1247,-5.1247,-5.1247,-5.0594,-4.959,-4.9615,-4.9615,-4.959,-4.959,-4.959,-4.959,0.0,0.0,0.0,0.0,0.0,0.0,0.0,-3.672,0.0,0.0,0.0,0.0,0.0,0.0,-3.3159,0.0,0.0,-2.9734,-2.9814,-3.1697,0.0,0.0,0.0,-3.7505,0.0,0.0,-3.793,-3.793,-3.7226,-3.709,-3.75,-3.7226,-3.7324,-3.7734,0.0,-3.8144,0.0,0.0,0.0,0.0,0.0,-3.9805,-3.959,0.0,0.0,-3.8574,-3.8574,-3.8574,0.0,-3.8574,-3.8574,-3.8574,-3.8574,-3.8574,-3.8574,-3.8574,-3.8574,0.0,0.0,0.0,-3.8984,-3.8984,0.0,0.0,0.0,0.0,0.0,0.0,0.0,0.0,0.0,0.0,0.0,-3.7519,-3.7383,-3.7409,0.0,0.0,0.0,0.0,0.0,0.0,0.0,0.0,0.0,0.0,-4.9741,0.0,0.0,-5.1498,-5.2176,-5.2377,-5.2729,-5.2929,-5.2929,-5.2929,-5.2929,-5.2929,-5.2729,-5.2653,-5.2628,-5.1875,-5.1749,-5.2051,-5.1122,-5.072,-5.072,-5.072,-5.0268,-4.964,-4.9992,-4.9916,-4.959,-4.959,-4.959,-4.959,-2.4663,0.0,0.0,0.0,0.0,0.0,0.0,0.0,0.0,0.0,-3.3652,0.0,-3.371,0.0,-3.2404,0.0,-3.0437,-3.001,-2.9992,-3.1321,0.0,-3.1453,-3.4742,0.0,0.0,0.0,0.0,-3.6865,-3.6945,-3.7109,-3.7519,-3.7363,-3.7461,-3.7773,0.0,-3.8281,-3.8223,0.0,-3.9355,0.0,0.0,-3.9648,0.0,0.0,-3.8672,-3.8769,0.0,-3.8574,-3.8574,-3.8574,-3.8574,-3.8574,-3.8574,-3.8574,-3.8574,-3.8574,-3.8691,-3.8828,-3.8945,-3.9199,0.0,-3.9238,-3.9336,0.0,-3.8887,0.0,0.0,0.0,0.0,0.0,0.0,0.0,0.0,-3.7754,-3.748,-3.709,0.0,-3.7624,0.0,0.0,0.0,0.0,0.0,0.0,0.0,-4.7933,-4.8586,-4.9163,0.0,0.0,-5.1473,-5.2076,-5.2452,-5.2729,-5.2929,-5.2729,-5.2729,-5.2929,-5.2528,-5.2452,-5.2628,-5.2076,-5.18,-5.1774,-5.1046,-5.0619,-5.0419,-5.0419,-5.0092,-4.9615,-4.9992,-4.9916,-4.959,-4.959,-4.959,-4.959,0.0,0.0,0.0,0.0,-2.9199,0.0,0.0,0.0,-3.1939,0.0,-3.2757,-3.2878,-3.3562,-3.1888,-3.0899,-3.1212,-2.9453,0.0,-3.0013,-3.0587,0.0,0.0,-3.1649,-3.182,-2.9493,0.0,0.0,0.0,0.0,-3.7539,-3.7949,-3.7519,-3.7754,-3.8535,-3.8125,0.0,-3.8594,-3.9492,-3.9629,-3.9258,-3.9199,-3.9199,-3.9219,-3.875,-3.8828,-3.9141,-3.873,-3.8574,-3.8574,-3.8574,-3.8574,-3.8574,-3.8574,-3.8574,-3.8574,-3.8574,-3.8867,-3.9101,-3.873,-3.9258,-3.9785,-3.9355,0.0,0.0,0.0,0.0,-3.9082,0.0,0.0,0.0,0.0,0.0,0.0,-3.7461,-3.7285,-3.6973,-3.6133,0.0,0.0,0.0,0.0,0.0,0.0,0.0,-4.7733,-4.7708,-4.7857,-4.8335,0.0,0.0,-5.0368,-5.2026,-5.2126,-5.2402,-5.2929,-5.2402,-5.2402,-5.2879,-5.1825,-5.1599,-5.2076,-5.1498,-5.1247,-5.1272,-5.1222,-5.0896,-5.0368,-5.0368,-5.0067,-4.959,-4.959,-4.959,-4.959,-4.959,-4.959,-4.959,-2.469,-2.5968,-2.67,0.0,-2.7349,-2.9252,0.0,0.0,0.0,0.0,-2.9734,-2.9137,-2.9292,-2.9035,-2.8882,-2.895,-2.8473,0.0,0.0,0.0,0.0,-2.8011,-3.1352,-3.2299,-3.0181,-3.372,0.0,-3.5671,0.0,0.0,-3.8398,-3.7969,-3.7891,-3.8105,-3.832,0.0,-3.8144,-3.9004,-3.9687,-4.0098,-3.9121,-3.9316,0.0,0.0,-3.8828,-3.9141,-3.873,-3.8574,-3.8574,-3.8574,-3.8574,-3.8574,-3.8574,-3.8574,-3.8574,-3.8574,-3.8652,-3.8848,-3.9414,-3.9726,-3.9863,-3.9746,-3.9805,-3.9687,0.0,0.0,0.0,0.0,0.0,0.0,0.0,0.0,0.0,0.0,-3.7246,0.0,0.0,0.0,0.0,-3.7271,0.0,0.0,0.0,-4.4546,-4.5218,-4.4784,-4.6316,-4.7631,-4.8309,0.0,0.0,-5.1473,-5.2277,-5.2779,-5.2929,-5.2779,-5.2578,-5.2302,-5.2026,-5.1975,-5.2076,-5.1096,-5.087,-5.1222,-5.0393,-4.9941,-4.9816,-4.9816,-4.9715,-4.959,-4.959,-4.959,-4.959,-4.959,-4.959,-4.959,-2.469,0.0,0.0,-2.5227,0.0,0.0,-2.9003,0.0,0.0,-2.8688,-2.8097,0.0,-2.7682,-2.7963,-2.8136,-2.8136,-2.8136,0.0,0.0,0.0,0.0,-2.8706,-3.0086,-3.0247,-2.9001,-3.1826,0.0,-3.4588,0.0,0.0,-3.8281,-3.8027,-3.793,-3.793,-3.8184,-3.8262,-3.8242,-3.873,-3.9434,-4.0156,-3.9023,-3.9121,0.0,-3.8926,-3.873,-3.8926,-3.8867,-3.8848,-3.8828,-3.8633,-3.8691,-3.8809,-3.8633,-3.8574,-3.8574,-3.8574,-3.8848,-3.9219,-3.9512,-4.0019,-4.041,-4.0215,-4.0312,-4.0234,-3.9355,-3.9473,-3.9609,0.0,0.0,0.0,0.0,0.0,0.0,0.0,0.0,0.0,0.0,0.0,0.0,0.0,-3.8159,0.0,0.0,-4.302,-4.4836,-4.3755,-4.5552,-4.7104,0.0,0.0,0.0,-5.1247,-5.1875,-5.2452,-5.2929,-5.2678,-5.2528,-5.2452,-5.1975,-5.1875,-5.2076,-5.1197,-5.082,-5.087,-5.0218,-4.9816,-4.959,-4.959,-4.959,-4.959,-4.959,-4.959,-4.959,-4.959,-4.959,-4.959,0.0,0.0,0.0,0.0,0.0,0.0,0.0,-2.6533,0.0,-2.7255,0.0,-2.7482,-2.7722,-2.7989,-2.8136,-2.8136,0.0,-2.8854,-3.0364,-2.898,-2.873,-2.9939,-2.8578,-2.7642,-2.7388,-2.9094,0.0,0.0,0.0,0.0,-3.793,-3.793,-3.793,-3.793,-3.7988,0.0,0.0,-3.8263,-3.8747,-3.9275,-3.8445,-3.8662,-3.916,-3.873,-3.8574,-3.8633,-3.9062,-3.9199,-3.916,-3.8848,-3.8984,-3.9219,-3.8789,-3.8652,-3.8652,-3.8594,-3.916,-3.9726,-3.9394,-4.0176,-4.0996,-4.0625,-4.0801,-4.0879,-4.0078,-4.0215,-4.0293,-3.9453,-3.9375,-3.9434,0.0,0.0,0.0,0.0,0.0,0.0,0.0,0.0,0.0,0.0,0.0,0.0,0.0,0.0,-4.5013,-4.3482,-4.5159,-4.6753,0.0,0.0,0.0,-5.0996,-5.1272,-5.1825,-5.2703,0.0,-5.2277,-5.2578,-5.1624,-5.1423,-5.1875,-5.1297,-5.082,-5.0419,-5.0343,-5.0042,-4.959,-4.959,-4.959,-4.959,-4.959,-4.959,-4.959,-4.959,-4.959,-4.959,0.0,0.0,0.0,0.0,0.0,-2.6827,-2.7081,-2.7308,-2.7509,-2.7602,-2.7843,0.0,-2.8056,-2.811,-2.8136,-2.8136,-2.8136,0.0,0.0,0.0,0.0,-2.8479,-2.8197,-2.8043,-2.7989,-2.954,-3.1286,0.0,0.0,0.0,-3.793,-3.793,-3.793,-3.7949,-3.8301,0.0,-3.6109,-3.6109,0.0,-3.6824,-3.6311,-3.7277,-3.916,-3.873,-3.8574,-3.8633,-3.9062,-3.9199,-3.9258,-3.957,-3.9707,-3.9687,-3.9238,-3.9082,-3.9023,-3.8672,-3.8926,-3.9394,-3.9687,-4.0195,-4.0625,-4.0547,-4.0586,-4.0508,-4.0019,-4.0215,-4.0371,-3.9883,-4.0332,-4.0605,-3.9902,0.0,0.0,0.0,0.0,0.0,0.0,0.0,0.0,0.0,0.0,-3.8208,0.0,0.0,-4.1947,-4.1693,-4.4497,-4.6602,0.0,0.0,0.0,0.0,-5.1247,0.0,0.0,0.0,-5.1674,-5.0845,-5.067,-5.0619,-5.0695,-5.0142,-5.0092,-5.0393,-4.9941,-4.969,-4.959,-4.959,-4.959,-4.959,-4.959,-4.959,-4.959,-4.959,-4.959,-4.959,0.0,0.0,0.0,0.0,0.0,0.0,0.0,-2.7736,0.0,-2.7722,-2.7829,-2.7909,-2.7909,-2.8056,-2.8136,-2.8136,-2.8136,-2.8136,-2.8136,-2.8136,-2.8136,-2.8136,-2.8136,0.0,-2.8136,-2.8675,-3.0438,-3.3421,0.0,0.0,-3.7598,-3.7598,-3.7598,-3.7617,-3.7207,-3.6423,0.0,0.0,0.0,-3.4554,-3.4156,-3.5449,-3.7615,-3.7201,-3.7639,-3.8633,-3.9062,-3.9355,-3.959,-3.9824,-4.0039,-4.0156,-3.9707,-3.9551,-3.9473,-3.9023,-3.9375,-3.9883,-3.9902,-4.0371,-4.0859,-4.0859,-4.0859,-4.0742,-4.0312,-4.0547,-4.0742,-4.0312,-4.0547,-4.0566,-3.9707,-3.918,0.0,0.0,0.0,0.0,0.0,0.0,0.0,0.0,0.0,0.0,0.0,0.0,0.0,0.0,0.0,0.0,0.0,0.0,0.0,0.0,0.0,0.0,0.0,0.0,0.0,-5.087,-5.0569,-5.0419,-5.0393,-4.9841,-4.9741,-4.9967,-4.9715,-4.959,-4.959,-4.959,-4.959,-4.959,-4.959,-4.959,-4.959,-4.959,-4.959,-4.959,0.0,-2.5932,0.0,0.0,-2.7014,0.0,-2.7669,-2.7949,-2.8056,-2.7829,-2.7789,-2.7789,-2.7789,-2.8003,-2.8136,-2.8136,-2.8136,-2.8136,-2.8136,-2.8136,-2.8136,-2.8136,-2.8136,-2.8136,-2.8136,-2.7856,-2.9314,0.0,0.0,0.0,0.0,-3.728,-3.7177,-3.6847,0.0,0.0,0.0,0.0,-3.209,-3.2382,-3.2025,-3.3331,-3.5468,-3.551,-3.6571,-3.8009,-3.8895,-3.9492,-3.9902,-4.0,-4.0254,-4.0469,-4.0137,-3.9961,-3.9824,-3.9453,-3.9902,-4.0449,-4.0117,-4.0586,-4.1172,-4.1172,-4.1172,-4.1074,-4.0742,-4.0918,-4.1055,-4.0605,-4.0527,-4.0254,-3.9355,-3.9277,0.0,0.0,0.0,0.0,0.0,0.0,0.0,0.0,0.0,0.0,-3.6719,0.0,0.0,0.0,0.0,0.0,0.0,0.0,0.0,0.0,0.0,-5.0049,-5.0921,0.0,-5.1046,-5.0921,-5.0469,-5.0243,-5.0218,-4.9791,-4.959,-4.959,-4.959,-4.959,-4.959,-4.959,-4.959,-4.959,-4.959,-4.959,-4.959,-4.959,-4.959,-4.959,0.0,0.0,0.0,0.0,0.0,0.0,0.0,-2.7949,-2.8136,-2.811,-2.8096,-2.8096,-2.8096,-2.8123,-2.8136,-2.8136,-2.8136,-2.8136,-2.8136,-2.8136,-2.8136,-2.8136,-2.8136,-2.8136,-2.8136,-2.7856,-2.8673,0.0,0.0,0.0,0.0,-3.6971,-3.7017,0.0,0.0,0.0,0.0,-2.9743,-2.994,-3.0227,-2.9879,-3.1181,-3.3446,-3.4892,-3.5664,-3.6164,-3.8432,-3.9492,-3.9961,-4.0332,-4.0488,-4.0508,-4.0469,-4.0195,-3.9883,-3.9844,-4.0156,-4.0508,-4.0469,-4.082,-4.1172,-4.1172,-4.1172,-4.1172,-4.1113,-4.1152,-4.1055,-4.0605,-4.0527,-4.0254,-3.9355,-3.9551,-3.9551,0.0,0.0,0.0,0.0,0.0,0.0,0.0,0.0,0.0,0.0,-3.6406,0.0,0.0,-4.0278,0.0,0.0,0.0,0.0,-4.7908,0.0,-4.8158,-4.9741,-5.0243,-5.0243,-4.9766,-4.969,-4.9665,-4.9665,-4.9615,-4.959,-4.959,-4.959,-4.959,-4.959,-4.959,-4.959,-4.959,-4.959,-4.959,-4.959,-4.959,-4.959,-4.959,0.0,0.0,0.0,0.0,0.0,0.0,0.0,-2.807,-2.8136,-2.8136,-2.8136,-2.8136,-2.8136,-2.8136,-2.8136,-2.8136,-2.8136,-2.8136,-2.8136,-2.8136,-2.8136,-2.8136,-2.7976,-2.7883,-2.7883,-2.7589,-2.8246,0.0,0.0,0.0,0.0,0.0,0.0,0.0,0.0,-3.0961,-2.9293,-2.8076,-2.7787,-2.8053,-2.7941,-2.931,-3.1464,-3.2092,-3.3906,-3.6254,-3.7348,-3.8785,-4.0293,-4.0469,-4.0527,-4.0527,-4.0527,-4.041,-4.0215,-3.9961,-4.0371,-4.0859,-4.0586,-4.084,-4.1172,-4.1172,-4.1172,-4.1172,-4.1172,-4.1172,-4.1133,-4.0957,-4.0703,-4.041,-4.0059,-3.9941,-3.9687,0.0,0.0,0.0,0.0,0.0,0.0,0.0,0.0,0.0,0.0,0.0,0.0,0.0,0.0,0.0,0.0,0.0,0.0,-4.4607,0.0,-4.5615,-4.6311,-4.7593,-4.8123,-4.7929,-4.9047,-4.959,-4.959,-4.959,-4.959,-4.959,-4.959,-4.959,-4.959,-4.959,-4.959,-4.959,-4.959,-4.959,-4.959,-4.959,-4.959,-4.959,-2.7375,0.0,-2.7482,0.0,-2.7829,-2.7896,-2.811,-2.8136,-2.8136,-2.8136,-2.8136,-2.8136,-2.8136,-2.8136,-2.8136,-2.8136,-2.8136,-2.8136,-2.8136,-2.8136,-2.8136,-2.8136,-2.7856,0.0,-2.7696,-2.7415,-2.7905,-2.9008,-3.0794,0.0,0.0,0.0,0.0,0.0,-3.0053,-2.9138,-2.8374,-2.7004,-2.66,-2.6934,-2.676,-2.7698,-2.9471,-2.9996,-3.2472,-3.5621,-3.6362,-3.8247,-4.0527,-4.0527,-4.0527,-4.0547,-4.0684,-4.0625,-4.0488,-4.0332,-4.0703,-4.1113,-4.0801,-4.0937,-4.1172,-4.1172,-4.1172,-4.1172,-4.1172,-4.1172,-4.1133,-4.1016,-4.0742,-4.0488,-4.0371,-4.0195,-3.9941,-3.9473,0.0,0.0,0.0,0.0,0.0,0.0,-3.7559,-3.7129,-3.6719,-3.6269,0.0,0.0,0.0,0.0,0.0,0.0,0.0,0.0,0.0,0.0,0.0,-4.5862,-4.6798,-4.6798,-4.8763,-4.959,-4.959,-4.959,-4.959,-4.959,-4.959,-4.959,-4.959,-4.959,-4.959,-4.959,-4.959,-4.959,-4.959,-4.959,-4.959,-4.959,-2.7642,-2.7696,-2.7789,-2.8083,-2.8136,-2.8136,-2.8136,-2.8136,-2.8136,-2.8136,-2.8136,-2.8136,-2.8136,-2.8136,-2.8136,-2.8136,-2.8136,-2.8136,-2.8136,-2.8136,-2.8136,0.0,0.0,-2.7696,-2.7696,-2.7415,-2.7121,-2.6814,0.0,0.0,-2.9434,0.0,-3.1421,-2.9449,-2.9434,-2.8218,-2.6386,-2.6386,-2.672,-2.7215,-2.6627,-2.6747,-2.7554,-2.9297,-3.1183,-3.3392,-3.5793,-3.8247,-4.0527,-4.0527,-4.0527,-4.0605,-4.1035,-4.0879,-4.0605,-4.1035,-4.1172,-4.1172,-4.1172,-4.1172,-4.1172,-4.1172,-4.1172,-4.1172,-4.1172,-4.1172,-4.1055,-4.0625,-4.0527,-4.0391,-3.998,-4.0234,-4.0371,-3.9961,0.0,0.0,0.0,0.0,0.0,-3.7969,-3.7559,-3.7129,-3.6719,-3.6269,0.0,0.0,0.0,0.0,0.0,0.0,0.0,-4.2482,-4.1366,0.0,-4.4116,-4.5862,-4.6798,-4.6798,-4.8763,-4.959,-4.959,-4.959,-4.959,-4.959,-4.959,-4.959,-4.959,-4.959,-4.959,-4.959,-4.959,-4.959,-4.959,-4.959,-4.959,-4.959,-2.7989,-2.8003,-2.803,-2.8123,-2.8136,-2.8136,-2.8136,-2.8136,-2.8136,-2.8136,-2.8136,-2.8136,-2.8136,-2.8136,-2.8136,0.0,-2.8136,-2.8136,0.0,-2.8136,-2.8136,-2.8136,-2.7856,-2.7602,-2.7402,-2.7108,-2.6827,-2.6533,0.0,0.0,0.0,-3.0053,-2.9293,-2.7305,-2.7305,-2.7004,-2.6386,-2.6386,-2.6613,-2.6947,-2.676,-2.6921,-2.7445,-2.818,-2.9807,-3.1915,-3.4509,-3.6799,-3.9011,-4.0472,-4.0976,-4.0996,-4.1133,-4.0879,-4.0547,-4.0684,-4.0937,-4.1172,-4.1172,-4.1172,-4.1172,-4.1172,-4.1172,-4.1172,-4.1172,-4.1172,-4.1133,-4.0996,-4.0723,-4.0566,-4.0742,-4.0625,-4.0469,-4.0351,-3.9961,0.0,0.0,0.0,0.0,-3.7969,-3.7812,-3.7559,0.0,-3.6719,0.0,0.0,0.0,0.0,0.0,0.0,0.0,0.0,-3.9232,0.0,-4.0371,-4.215,-4.3658,-4.4914,-4.6822,-4.8347,-4.959,-4.959,-4.959,-4.959,-4.959,-4.959,-4.959,-4.959,-4.959,-4.959,-4.959,-4.959,-4.959,-4.959,-4.959,-4.959,-2.8136,-2.8136,-2.8136,-2.8136,-2.8136,-2.8136,-2.8136,-2.8136,-2.8136,-2.8136,-2.8136,-2.8136,-2.8136,-2.8136,0.0,-2.8136,-2.8136,-2.8136,-2.8136,-2.8136,-2.8136,-2.8136,-2.7856,-2.7562,-2.7268,-2.6974,0.0,-2.6386,-2.7605,-2.8218,-2.8218,-2.8218,-2.7619,-2.6386,-2.6386,-2.6386,-2.6386,-2.6386,-2.656,-2.6814,-2.6707,-2.6841,-2.7121,-2.7295,-2.9349,-3.2216,-3.3031,-3.584,-3.9198,-3.9707,-4.0509,-4.1172,-4.1172,-4.0976,-4.0762,-4.0762,-4.0957,-4.1172,-4.1172,-4.1172,-4.1172,-4.1172,-4.1172,-4.1172,-4.1172,-4.1172,-4.1172,-4.1172,-4.0957,-4.084,-4.1133,-4.0957,-4.0762,-4.0762,-4.0273,-3.9785,-3.9492,0.0,-3.8476,0.0,0.0,0.0,0.0,-3.7012,-3.668,0.0,0.0,0.0,0.0,0.0,0.0,-3.7305,-3.8125,0.0,-3.8574,-4.0371,-4.189,-4.3127,-4.5592,-4.7773,-4.959,-4.959,-4.959,-4.959,-4.959,-4.959,-4.959,-4.959,-4.959,-4.959,-4.959,-4.959,-4.959,-4.959,-4.959,-4.959,-2.8136,-2.8136,-2.8136,0.0,-2.8136,0.0,-2.8136,-2.8136,-2.8136,-2.8136,-2.8136,-2.8136,-2.8136,-2.8136,-2.8136,-2.8136,0.0,0.0,0.0,-2.8136,-2.8136,-2.8136,-2.7883,-2.7589,-2.7268,-2.7014,-2.6734,-2.6453,-2.6413,-2.64,-2.6413,-2.64,-2.6386,-2.6386,-2.6386,-2.6386,-2.6386,-2.6386,-2.6547,-2.6774,-2.6493,-2.6547,-2.6787,-2.6814,-2.95,-3.3106,-3.1557,-3.5122,-4.0471,-3.8511,-3.9355,-4.1172,-4.1172,-4.1172,-4.1172,-4.1172,-4.1172,-4.1172,-4.1172,-4.1172,-4.1172,-4.1172,-4.1172,-4.1172,-4.1172,-4.1172,-4.1172,-4.1172,-4.1172,-4.1172,-4.1172,-4.1172,-4.1172,-4.1172,-4.0449,-3.9902,-3.9902,-3.9141,-3.8574,0.0,0.0,0.0,0.0,-3.7226,-3.6758,0.0,0.0,0.0,0.0,0.0,-3.7305,-3.7344,-3.8144,-3.8574,-3.8574,-4.0228,-4.1205,-4.1326,-4.5027,-4.7773,-4.9461,-4.959,-4.959,-4.959,-4.959,-4.959,-4.959,-4.959,-4.959,-4.959,-4.959,-4.959,-4.959,-4.959,-4.959,-4.959,0.0,0.0,-2.8136,-2.8136,-2.8136,-2.8136,-2.8136,-2.8136,-2.8136,-2.8136,-2.8136,-2.8136,-2.8136,-2.8136,-2.8136,-2.8136,-2.8136,-2.8136,-2.8136,-2.8136,-2.8136,-2.8136,-2.807,-2.7789,-2.7281,-2.7415,-2.7348,-2.7054,-2.6613,-2.6507,-2.6707,-2.6493,-2.6386,-2.6386,-2.6386,-2.6386,-2.6386,-2.6386,-2.6426,-2.6493,-2.6413,-2.6426,-2.652,-2.6734,-2.7483,-2.8688,-3.01,-3.281,-3.6008,-3.7131,-3.9268,-4.1172,-4.1172,-4.1172,-4.1172,-4.1172,-4.1172,-4.1172,-4.1172,-4.1172,-4.1172,-4.1172,-4.1172,-4.1172,-4.1172,-4.1172,-4.1172,-4.1172,-4.1172,-4.1172,-4.1172,-4.1172,-4.1172,-4.1172,-4.0449,-3.9902,-3.9902,-3.9141,-3.8574,0.0,-3.8476,-3.8418,-3.8418,-3.793,-3.7637,0.0,0.0,0.0,0.0,-3.7246,-3.7441,-3.7773,-3.8301,-3.8574,-3.8574,-3.8991,-3.9962,-4.1326,-4.5027,-4.7088,-4.7509,-4.8893,-4.959,-4.959,-4.959,-4.959,-4.959,-4.959,-4.959,-4.959,-4.959,-4.959,-4.959,-4.959,-4.959,-4.959,-2.8323,-2.8243,-2.8136,-2.8136,-2.8136,-2.8136,-2.8136,-2.8136,-2.8136,-2.8136,-2.8136,-2.8136,-2.8136,-2.8136,-2.8136,-2.8136,-2.8136,-2.8136,-2.8136,-2.8136,-2.8136,-2.8136,-2.8136,-2.7923,-2.7468,-2.7495,-2.7295,-2.6867,-2.668,-2.66,-2.6627,-2.66,-2.652,-2.6386,-2.6386,-2.6386,-2.6386,-2.6386,-2.6386,-2.6386,-2.6386,-2.6386,-2.6413,-2.656,-2.7333,-2.8429,-2.8887,-3.1258,-3.4459,-3.5742,-3.7733,-3.9864,-4.0841,-4.1172,-4.1172,-4.1172,-4.1172,-4.1172,-4.1172,-4.1172,-4.1172,-4.1172,-4.1172,-4.1172,-4.1172,-4.1172,-4.1172,-4.1172,-4.1172,-4.1172,-4.1172,-4.1172,-4.1113,-4.0898,-4.0332,-3.9824,-3.9609,-3.9004,0.0,-3.8574,-3.8574,-3.8574,-3.8574,-3.8184,-3.793,-3.793,-3.7324,0.0,-3.7559,-3.7578,-3.7695,-3.791,-3.8359,-3.8574,-3.8574,-3.8574,-3.955,-4.1326,-4.3382,-4.4755,-4.5592,-4.7509,-4.8347,-4.8347,-4.9177,-4.959,-4.959,-4.959,-4.959,-4.959,-4.959,-4.959,-4.959,-4.959,-4.959,-4.959,-2.8497,-2.8364,-2.819,-2.815,-2.8136,-2.8136,-2.8136,-2.8136,-2.8136,-2.8136,-2.8136,-2.8136,-2.8136,-2.8136,-2.8136,-2.8136,-2.8136,-2.8136,-2.8136,-2.8136,-2.8136,-2.8136,-2.8136,-2.8003,-2.7709,-2.7415,-2.7041,-2.6587,-2.6747,-2.6694,-2.6453,-2.6667,-2.6627,-2.6386,-2.6386,-2.6386,-2.6386,-2.6386,-2.6386,-2.6386,-2.6386,-2.6386,-2.6386,-2.6386,-2.7801,-2.9354,-2.7743,-2.9954,-3.3836,-3.447,-3.6069,-3.8231,-4.0509,-4.1172,-4.1172,-4.1172,-4.1172,-4.1172,-4.1172,-4.1172,-4.1172,-4.1172,-4.1172,-4.1172,-4.1172,-4.1172,-4.1172,-4.1172,-4.1172,-4.1172,-4.1172,-4.1172,-4.1035,-4.0586,-4.0176,-3.9726,-3.9258,0.0,-3.8574,-3.8574,-3.8574,-3.8574,-3.8574,-3.8242,-3.8027,-3.8027,-3.7637,-3.7578,-3.8008,-3.7969,-3.7949,-3.8027,-3.8379,-3.8574,-3.8574,-3.8574,-3.9405,-4.0921,-4.1184,-4.2171,-4.368,-4.5592,-4.6398,-4.6532,-4.8347,-4.9177,-4.9177,-4.9461,-4.959,-4.959,-4.9515,-4.9515,-4.959,-4.9515,-4.9515,-4.959,-2.8257,-2.839,-2.8457,-2.819,-2.8136,-2.8136,-2.8136,-2.8136,-2.8136,-2.8136,-2.8136,-2.8136,-2.8136,-2.8136,-2.8136,-2.8136,-2.8136,-2.8136,-2.8136,-2.8136,-2.8136,-2.8136,-2.8136,-2.8003,-2.7709,-2.7415,-2.7348,-2.7495,-2.7041,-2.68,-2.6747,-2.6547,-2.6426,-2.6386,-2.6386,-2.6386,-2.6386,-2.6386,-2.6386,-2.6386,-2.6386,-2.6386,-2.6386,-2.6386,-2.6719,-2.7295,-2.7028,-2.8825,-3.1726,-3.3692,-3.5846,-3.8231,-4.0509,-4.1172,-4.1172,-4.1172,-4.1172,-4.1172,-4.1172,-4.1172,-4.1172,-4.1172,-4.1172,-4.1172,-4.1172,-4.1172,-4.1172,-4.1172,-4.1172,-4.1172,-4.1172,-4.1172,-4.1035,-4.0586,-4.0176,-3.9726,-3.9258,0.0,-3.8574,-3.8574,-3.8574,-3.8574,-3.8574,-3.8516,-3.8476,-3.8476,-3.8066,-3.8008,-3.8457,-3.8125,-3.8086,-3.8457,-3.8535,-3.8574,-3.8574,-3.8574,-3.872,-3.8991,-4.0494,-4.1467,-4.1749,-4.368,-4.4505,-4.4641,-4.6398,-4.7221,-4.7353,-4.8893,-4.959,-4.954,-4.9088,-4.9188,-4.954,-4.9063,-4.9188,-4.954,-2.8417,-2.8377,-2.831,-2.8163,-2.8136,-2.8136,-2.8136,-2.8136,-2.8136,-2.8136,-2.8136,-2.8136,-2.8136,-2.8136,-2.8136,-2.8136,-2.8136,-2.8136,-2.8136,-2.8136,-2.8136,-2.8136,-2.8136,-2.8003,-2.7709,-2.7562,-2.7495,-2.7468,-2.7348,-2.7134,-2.6827,-2.6854,-2.6694,-2.6386,-2.6386,-2.6386,-2.6386,-2.6386,-2.6386,-2.6386,-2.6386,-2.6386,-2.6386,-2.6386,-2.6466,-2.6627,-2.6947,-2.7866,-2.9598,-3.3307,-3.5164,-3.6762,-4.0197,-4.1172,-4.1172,-4.1172,-4.1172,-4.1172,-4.1172,-4.1172,-4.1172,-4.1172,-4.1172,-4.1172,-4.1172,-4.1172,-4.1172,-4.1172,-4.1172,-4.1172,-4.1172,-4.1172,-4.0957,-4.0293,-4.0019,0.0,0.0,-3.8691,-3.8574,-3.8574,-3.8574,-3.8574,-3.8574,-3.8574,-3.8574,-3.8574,-3.8379,-3.8359,-3.8555,-3.8379,-3.8359,-3.8574,-3.8574,-3.8574,-3.8574,-3.8574,-3.8574,-3.8574,-3.9405,-3.9818,-3.9962,-4.1749,-4.3127,-4.4116,-4.4914,-4.6422,-4.8322,-4.8191,-4.8763,-4.9565,-4.9314,-4.9364,-4.9565,-4.9314,-4.9188,-4.9113,-2.8724,-2.8511,-2.8323,-2.8257,-2.819,-2.8136,-2.8136,-2.8136,-2.8136,-2.8136,-2.8136,-2.8136,-2.8136,-2.8136,-2.8136,-2.8136,-2.8136,-2.8136,-2.8136,-2.8136,-2.8136,-2.8136,-2.8136,-2.803,-2.7802,-2.7802,-2.7655,-2.7362,-2.7589,-2.7428,-2.6934,-2.7094,-2.6921,-2.6493,-2.6413,-2.6386,-2.6386,-2.6386,-2.6386,-2.6386,-2.6386,-2.6386,-2.64,-2.6466,-2.6533,-2.6653,-2.7175,-2.7415,-2.8181,-3.3012,-3.4651,-3.5477,-3.9864,-4.1172,-4.1172,-4.1172,-4.1172,-4.1172,-4.1172,-4.1172,-4.1172,-4.1172,-4.1172,-4.1172,-4.1172,-4.1172,-4.1172,-4.1172,-4.1172,-4.1172,-4.1172,-4.1172,-4.0918,-4.0176,0.0,0.0,0.0,-3.873,-3.8691,-3.8594,-3.8652,-3.8691,-3.8594,-3.8574,-3.8574,-3.8574,-3.8574,-3.8574,-3.8574,-3.8574,-3.8574,-3.8574,-3.8574,-3.8574,-3.8574,-3.8574,-3.8574,-3.8574,-3.8574,-3.8574,-3.872,-4.0105,-4.1488,-4.287,-4.3288,-4.505,-4.7665,-4.7088,-4.7641,-4.9023,-4.9311,-4.949,-4.9565,-4.9439,-4.9138,-4.8761,-2.9058,-2.8991,-2.8885,-2.8617,-2.8337,-2.8136,-2.8136,-2.8136,-2.8136,-2.8136,-2.8136,-2.8136,-2.8136,-2.8136,-2.8136,-2.8136,-2.8136,-2.8136,-2.8136,-2.8136,-2.8136,-2.8136,-2.8136,-2.8136,-2.811,-2.811,-2.7963,-2.7669,-2.7682,-2.7535,-2.7228,-2.6974,-2.6827,-2.6774,-2.6507,-2.6386,-2.6386,-2.6386,-2.6386,-2.6386,-2.6386,-2.6386,-2.6413,-2.6694,-2.6961,-2.7241,-2.7549,-2.7843,-2.8742,-3.3186,-3.4651,-3.5477,-3.9864,-4.1172,-4.1172,-4.1172,-4.1172,-4.1172,-4.1172,-4.1172,-4.1172,-4.1172,-4.1172,-4.1172,-4.1172,-4.1172,-4.1172,-4.1172,-4.1172,-4.1172,-4.1172,-4.1172,-4.1016,-4.0547,0.0,0.0,-3.9219,-3.916,-3.9004,-3.8613,-3.8926,-3.9004,-3.8613,-3.8574,-3.8574,-3.8574,-3.8574,-3.8574,-3.8574,-3.8574,-3.8574,-3.8574,-3.8574,-3.8574,-3.8574,-3.8574,-3.8574,-3.8574,-3.8574,-3.8574,-3.8574,-3.872,-3.8846,-3.9136,-4.0779,-4.1608,-4.215,-4.5434,-4.6931,-4.7173,-4.8348,-4.9138,-4.954,-4.9012,-4.8812,-4.8686,-2.8858,-2.8778,-2.8671,-2.8377,-2.8217,-2.8136,-2.8136,-2.8136,-2.8136,-2.8136,-2.8136,-2.8136,-2.8136,-2.8136,-2.8136,-2.8136,-2.8136,-2.8136,-2.8136,-2.8136,-2.8136,-2.8136,-2.8136,-2.8136,-2.8136,-2.8136,-2.8083,-2.7976,-2.7976,-2.7816,-2.7535,-2.7415,-2.7175,-2.6814,-2.6707,-2.656,-2.6386,-2.6386,-2.6386,-2.6386,-2.6386,-2.6386,-2.6426,-2.6707,-2.6894,-2.7054,-2.7522,-2.7776,-2.8383,-3.1662,-3.2694,-3.3349,-3.7737,-3.9198,-3.9374,-4.0841,-4.1172,-4.1172,-4.1172,-4.1172,-4.1172,-4.1172,-4.1172,-4.1172,-4.1172,-4.1172,-4.1172,-4.1172,-4.1172,-4.1172,-4.1172,-4.1172,-4.1035,-4.0586,0.0,-3.9726,-3.9258,-3.9199,-3.9043,-3.8633,-3.8945,-3.9043,-3.8613,-3.8574,-3.8574,-3.8574,-3.8574,-3.8574,-3.8574,-3.8574,-3.8574,-3.8574,-3.8574,-3.8574,-3.8574,-3.8574,-3.8574,-3.8574,-3.8574,-3.8574,-3.8555,-3.8301,-3.8863,-3.98,-3.9111,-4.0069,-4.2228,-4.25,-4.3512,-4.4995,-4.6549,-4.7442,-4.8036,-4.8953,-4.8837,-4.8209,-2.8845,-2.8671,-2.8537,-2.8323,-2.8203,-2.8136,-2.8136,-2.8136,-2.8136,-2.8136,-2.8136,-2.8136,-2.8136,-2.8136,-2.8136,-2.8136,-2.8136,-2.8136,-2.8136,-2.8136,-2.8136,-2.8136,-2.8136,-2.8136,-2.8136,-2.8136,-2.8136,-2.8136,-2.8136,-2.7989,-2.7696,-2.7602,-2.7348,-2.6947,-2.6774,-2.668,-2.6653,-2.6466,-2.644,-2.652,-2.6426,-2.644,-2.656,-2.6854,-2.7014,-2.7161,-2.7655,-2.7843,-2.819,-3.0671,-3.1392,-3.2217,-3.6602,-3.839,-3.9198,-4.0685,-4.1172,-4.1172,-4.1172,-4.1172,-4.1172,-4.1172,-4.1172,-4.1172,-4.1172,-4.1172,-4.1172,-4.1172,-4.1172,-4.1172,-4.1172,-4.1172,-4.1074,-4.0781,-4.0371,-3.998,-3.9668,-3.9609,-3.9453,-3.9043,-3.9238,-3.9258,-3.8809,-3.8652,-3.8574,-3.8574,-3.8574,-3.8574,-3.8574,-3.8574,-3.8574,-3.8574,-3.8574,-3.8574,-3.8574,-3.8574,-3.8496,-3.8359,-3.8359,-3.8301,-3.8164,-3.7871,-3.8405,-3.9491,-3.7966,-3.8763,-4.1029,-4.0541,-4.1208,-4.2856,-4.5412,-4.6489,-4.7088,-4.8893,-4.8887,-4.7908,-2.9098,-2.8804,-2.8604,-2.8604,-2.835,-2.8136,-2.8136,-2.8136,-2.8136,-2.8136,-2.8136,-2.8136,-2.8136,-2.8136,-2.8136,-2.8136,-2.8136,-2.8136,-2.8136,-2.8136,-2.8136,-2.8136,-2.8136,-2.8136,-2.8136,-2.8136,-2.8136,-2.8136,-2.8136,-2.7989,-2.7696,-2.7402,-2.7268,-2.7241,-2.6653,-2.672,-2.7228,-2.664,-2.656,-2.6787,-2.6507,-2.656,-2.6854,-2.7148,-2.7455,-2.7736,-2.803,-2.8136,-2.8473,-3.0592,-3.1392,-3.2217,-3.6442,-3.9374,-4.1172,-4.1172,-4.1172,-4.1172,-4.1172,-4.1172,-4.1172,-4.1172,-4.1172,-4.1172,-4.1172,-4.1172,-4.1172,-4.1172,-4.1172,-4.1172,-4.1172,-4.1172,-4.1172,-4.1172,-4.0801,-4.0527,-4.0527,-4.0527,-4.0371,-3.9941,-3.9902,-3.9726,-3.9258,-3.8828,-3.8574,-3.8574,-3.8574,-3.8574,-3.8574,-3.8574,-3.8574,-3.8574,-3.8574,-3.8574,-3.8574,-3.8574,-3.8359,-3.793,-3.791,-3.7695,-3.7305,-3.7285,-3.7285,-3.7285,-3.7285,-3.7285,-3.7445,-3.9791,-4.0654,-4.1113,-4.5091,-4.6798,-4.6955,-4.8893,-4.8887,-4.7908,-2.9098,-2.8804,-2.8537,-2.8323,-2.8203,-2.8136,-2.8136,-2.8136,-2.8136,-2.8136,-2.8136,-2.8136,-2.8136,-2.8136,-2.8136,-2.8136,-2.8136,-2.8136,-2.8136,-2.8136,-2.8136,-2.8136,-2.8136,-2.8136,-2.8136,-2.8136,-2.8136,-2.8136,-2.8136,-2.7989,-2.7696,-2.7829,-2.7549,-2.6961,-2.6987,-2.6867,-2.664,-2.6466,-2.644,-2.6533,-2.664,-2.6747,-2.6881,-2.7375,-2.7629,-2.7736,-2.803,-2.8136,-2.8305,-2.8964,-2.9118,-2.9941,-3.4327,-3.7082,-3.9198,-4.0685,-4.1172,-4.1172,-4.1172,-4.1172,-4.1172,-4.1172,-4.1172,-4.1172,-4.1172,-4.1172,-4.1172,-4.1172,-4.1172,-4.1172,-4.1172,-4.1172,-4.1172,-4.1172,-4.0801,-4.0527,-4.0527,-4.0527,-4.0371,-3.9941,-4.0156,-4.0039,-3.9277,-3.9082,-3.8887,-3.8594,-3.8574,-3.8574,-3.8574,-3.8574,-3.8574,-3.8574,-3.8574,-3.8574,-3.8574,-3.8281,-3.8047,-3.791,-3.7617,-3.7422,-3.7285,-3.6992,-3.6855,-3.6836,-3.6543,-3.6406,-3.6426,-3.753,-3.8027,-3.8608,-4.1348,-4.3507,-4.5186,-4.6955,-4.7764,-4.7908,-2.8925,-2.8631,-2.8364,-2.8177,-2.8136,-2.8136,-2.8136,-2.8136,-2.8136,-2.8136,-2.8136,-2.8136,-2.8136,-2.8136,-2.8136,-2.8136,-2.8136,-2.8136,-2.8136,-2.8136,-2.8136,-2.8136,-2.8136,-2.8136,-2.8136,-2.8136,-2.8136,-2.8136,-2.8136,-2.7936,-2.7535,-2.7709,-2.7442,-2.6827,-2.6894,-2.6921,-2.6894,-2.6653,-2.6694,-2.6907,-2.6974,-2.7068,-2.7215,-2.7562,-2.7776,-2.7896,-2.8083,-2.8136,-2.8136,-2.8136,-2.8796,-3.0093,-3.3512,-3.6121,-3.839,-4.0529,-4.1172,-4.1172,-4.1172,-4.1172,-4.1172,-4.1172,-4.1172,-4.1172,-4.1172,-4.1172,-4.1172,-4.1172,-4.1172,-4.1172,-4.1172,-4.1172,-4.1172,-4.1172,-4.0957,-4.0781,-4.0781,-4.0781,-4.0684,-4.043,-4.0469,-4.0312,-3.9785,-3.9414,-3.9023,-3.8613,-3.8574,-3.8574,-3.8574,-3.8574,-3.8574,-3.8574,-3.8574,-3.8574,-3.8574,-3.7988,-3.7676,-3.7676,-3.7246,-3.6953,-3.6777,-3.6523,-3.6406,-3.6406,-3.6133,-3.6016,-3.6055,-3.6484,-3.6816,-3.735,-4.0351,-4.2316,-4.3782,-4.6335,-4.74,-4.7606,-2.8671,-2.8377,-2.8177,-2.815,-2.8136,-2.8136,-2.8136,-2.8136,-2.8136,-2.8136,-2.8136,-2.8136,-2.8136,-2.8136,-2.8136,-2.8136,-2.8136,-2.8136,-2.8136,-2.8136,-2.8136,-2.8136,-2.8136,-2.8136,-2.8136,-2.8136,-2.8136,-2.8136,-2.8136,-2.7843,-2.7268,-2.7321,-2.7161,-2.6814,-2.6573,-2.6907,-2.7629,-2.7054,-2.7148,-2.7642,-2.7402,-2.7468,-2.7696,-2.7722,-2.7909,-2.8136,-2.8136,-2.8136,-2.8136,-2.8136,-2.9453,-3.1557,-3.3676,-3.5943,-3.8073,-4.0197,-4.1016,-4.1172,-4.1172,-4.1172,-4.1172,-4.1172,-4.1172,-4.1172,-4.1172,-4.1172,-4.1172,-4.1172,-4.1172,-4.1172,-4.1172,-4.1172,-4.1172,-4.1172,-4.1172,-4.1172,-4.1172,-4.1172,-4.1172,-4.1172,-4.082,-4.0566,-4.0527,-3.9726,-3.9023,-3.8613,-3.8574,-3.8574,-3.8574,-3.8574,-3.8574,-3.8574,-3.8574,-3.8574,-3.8574,-3.7754,-3.7344,-3.7285,-3.6836,-3.6406,-3.6016,-3.6016,-3.6016,-3.6016,-3.6016,-3.6016,-3.6055,-3.6484,-3.668,-3.7114,-4.0721,-4.2371,-4.3012,-4.6197,-4.7308,-4.7129,-2.8671,-2.8551,-2.843,-2.819,-2.8136,-2.8136,-2.8136,-2.8136,-2.8136,-2.8136,-2.8136,-2.8136,-2.8136,-2.8136,-2.8136,-2.8136,-2.8136,-2.8136,-2.8136,-2.8136,-2.8136,-2.8136,-2.8136,-2.8136,-2.8136,-2.8136,-2.8136,-2.8136,-2.8136,-2.7843,-2.7281,-2.7736,-2.7549,-2.6827,-2.7001,-2.7188,-2.7335,-2.6974,-2.7028,-2.7375,-2.7535,-2.7642,-2.7722,-2.7963,-2.8083,-2.8136,-2.8136,-2.8136,-2.8136,-2.8136,-2.8473,-2.9286,-3.1392,-3.3676,-3.5799,-3.7896,-3.9864,-4.1172,-4.1172,-4.1172,-4.1172,-4.1172,-4.1172,-4.1172,-4.1172,-4.1172,-4.1172,-4.1172,-4.1172,-4.1172,-4.1172,-4.1172,-4.1172,-4.1172,-4.1172,-4.1172,-4.1172,-4.1172,-4.1172,-4.1172,-4.1094,-4.0898,-4.0566,-3.9726,-3.9023,-3.8613,-3.8574,-3.8574,-3.8574,-3.8574,-3.8574,-3.8574,-3.8574,-3.8574,-3.8574,-3.8047,-3.7617,-3.7285,-3.6523,-3.6113,-3.6016,-3.6016,-3.6016,-3.6016,-3.6016,-3.6016,-3.6055,-3.6484,-3.668,-3.6857,-3.7927,-4.0098,-4.2615,-4.3408,-4.5223,-4.7079,-2.8871,-2.8818,-2.8724,-2.8417,-2.8364,-2.831,-2.8163,-2.8136,-2.8136,-2.8136,-2.8136,-2.8136,-2.8136,-2.8136,-2.8136,-2.8136,-2.8136,-2.8136,-2.8136,-2.8136,-2.8136,-2.8136,-2.8136,-2.8136,-2.8136,-2.8136,-2.8136,-2.8136,-2.8136,-2.7909,-2.7482,-2.7789,-2.7615,-2.7028,-2.7041,-2.7215,-2.7455,-2.7161,-2.7281,-2.7696,-2.7843,-2.7909,-2.7923,-2.8083,-2.8136,-2.8136,-2.8136,-2.8136,-2.8136,-2.8136,-2.8136,-2.8628,-3.0744,-3.2858,-3.5137,-3.7259,-3.9531,-4.1172,-4.1172,-4.1172,-4.1172,-4.1172,-4.1172,-4.1172,-4.1172,-4.1172,-4.1172,-4.1172,-4.1172,-4.1172,-4.1172,-4.1172,-4.1172,-4.1172,-4.1172,-4.1172,-4.1172,-4.1172,-4.1172,-4.1172,-4.0996,-4.0605,-3.9961,-3.9473,-3.9023,-3.8613,-3.8574,-3.8574,-3.8574,-3.8574,-3.8574,-3.8574,-3.8574,-3.8574,-3.8574,-3.8144,-3.7812,-3.7598,-3.6738,-3.623,-3.6016,-3.6016,-3.6016,-3.6016,-3.6016,-3.6016,-3.6035,-3.6269,-3.6367,-3.6524,-3.7525,-3.9062,-4.0759,-4.1681,-4.3461,-4.5527,-2.9018,-2.8965,-2.8871,-2.8577,-2.8524,-2.8444,-2.8177,-2.8136,-2.8136,-2.8136,-2.8136,-2.8136,-2.8136,-2.8136,-2.8136,-2.8136,-2.8136,-2.8136,-2.8136,-2.8136,-2.8136,-2.8136,-2.8136,-2.8136,-2.8136,-2.8136,-2.8136,-2.8136,-2.8136,-2.7989,-2.7696,-2.7749,-2.7615,-2.7335,-2.7081,-2.7268,-2.7749,-2.7468,-2.7655,-2.8136,-2.8136,-2.8136,-2.8136,-2.8136,-2.8136,-2.8136,-2.8136,-2.8136,-2.8136,-2.8136,-2.8136,-2.8473,-3.026,-3.2381,-3.4489,-3.6762,-3.8882,-4.0685,-4.1172,-4.1172,-4.1172,-4.1172,-4.1172,-4.1172,-4.1172,-4.1172,-4.1172,-4.1172,-4.1172,-4.1172,-4.1172,-4.1172,-4.1172,-4.1172,-4.1172,-4.1172,-4.1172,-4.1172,-4.1172,-4.1172,-4.0781,-4.0176,-3.9277,-3.9199,-3.9023,-3.8613,-3.8574,-3.8574,-3.8574,-3.8574,-3.8574,-3.8574,-3.8574,-3.8574,-3.8574,-3.8223,-3.7988,-3.791,-3.7226,-3.6621,-3.6133,-3.6055,-3.6016,-3.6016,-3.6016,-3.6016,-3.6016,-3.6016,-3.6016,-3.6152,-3.7575,-3.8353,-3.8861,-4.0537,-4.2201,-4.3855,-2.8724,-2.8671,-2.8564,-2.8257,-2.8203,-2.819,-2.815,-2.8136,-2.8136,-2.8136,-2.8136,-2.8136,-2.8136,-2.8136,-2.8136,-2.8136,-2.8136,-2.8136,-2.8136,-2.8136,-2.8136,-2.8136,-2.8136,-2.8136,-2.8136,-2.8136,-2.8136,-2.8136,-2.8136,-2.7989,-2.7709,-2.7963,-2.7923,-2.7642,-2.7602,-2.7762,-2.8056,-2.7762,-2.7829,-2.8136,-2.8136,-2.8136,-2.8136,-2.8136,-2.8136,-2.8136,-2.8136,-2.8136,-2.8136,-2.8136,-2.8136,-2.8305,-2.8473,-3.0093,-3.2217,-3.4489,-3.6602,-3.8724,-4.0685,-4.1172,-4.1172,-4.1172,-4.1172,-4.1172,-4.1172,-4.1172,-4.1172,-4.1172,-4.1172,-4.1172,-4.1172,-4.1172,-4.1172,-4.1172,-4.1172,-4.1172,-4.1172,-4.1172,-4.1172,-4.1172,-4.0781,-4.0176,-3.9277,-3.9199,-3.9023,-3.8613,-3.8574,-3.8574,-3.8574,-3.8574,-3.8574,-3.8574,-3.8574,-3.8574,-3.8574,-3.8516,-3.8301,-3.793,-3.7812,-3.7344,-3.6562,-3.6191,-3.6016,-3.6016,-3.6016,-3.6016,-3.6016,-3.6016,-3.6016,-3.6016,-3.6287,-3.7307,-3.8861,-4.0537,-4.2201,-4.3731,-2.8911,-2.8845,-2.8751,-2.8457,-2.8404,-2.8337,-2.8163,-2.8136,-2.8136,-2.8136,-2.8136,-2.8136,-2.8136,-2.8136,-2.8136,-2.8136,-2.8136,-2.8136,-2.8136,-2.8136,-2.8136,-2.8136,-2.8136,-2.8136,-2.8136,-2.8136,-2.8136,-2.8136,-2.8136,-2.807,-2.7949,-2.8083,-2.807,-2.7936,-2.7776,-2.7869,-2.8123,-2.7829,-2.7869,-2.8136,-2.8136,-2.8136,-2.8136,-2.8136,-2.8136,-2.8136,-2.8136,-2.8136,-2.8136,-2.8136,-2.8136,-2.8136,-2.8136,-2.9607,-3.1887,-3.4002,-3.6281,-3.839,-4.0666,-4.1172,-4.1172,-4.1172,-4.1172,-4.1172,-4.1172,-4.1172,-4.1172,-4.1172,-4.1172,-4.1172,-4.1172,-4.1172,-4.1172,-4.1172,-4.1172,-4.1172,-4.1172,-4.1172,-4.1074,-4.084,-4.043,-3.9922,-3.9258,-3.8984,-3.8769,-3.8594,-3.8574,-3.8574,-3.8574,-3.8574,-3.8574,-3.8574,-3.8574,-3.8574,-3.8574,-3.8574,-3.8476,-3.8281,-3.8047,-3.7598,-3.7012,-3.6582,-3.6387,-3.6367,-3.6133,-3.6016,-3.6016,-3.6016,-3.6016,-3.6016,-3.6016,-3.6403,-3.7307,-3.9125,-4.0795,-4.2454]}]]